[[{"header":{"parameterUnit":"m.s-1","parameterCategory":1,"la1":30.6,"la2":28.766,"lo1":-90.7593,"lo2":-88.6598,"dy":0.0162,"dx":0.0183,"nx":116,"ny":114,"refTime":"2023-07-04T12:00:00:Z","depth":0,"parameterNumber":2,"parameterNumberName":"U-component_of_WINDS"},"data":[0.0,0.0,0.0,0.0,0.0,0.0,0.0,0.0,0.0,0.0,0.0,0.0,0.0,0.0,0.0,0.0,0.0,0.0,0.0,0.0,0.0,0.0,0.0,0.0,0.0,0.0,0.0,0.0,0.0,0.0,0.0,0.0,0.0,0.0,0.0,0.0,0.0,0.0,0.0,0.0,0.0,0.0,0.0,0.0,0.0,0.0,0.0,0.0,0.0,0.0,0.0,0.0,0.0,0.0,0.0,0.0,0.0,0.0,0.0,0.0,0.0,0.0,0.0,0.0,0.0,0.0,0.0,0.0,0.0,0.0,0.0,0.0,0.0,0.0,0.0,0.0,0.0,0.0,0.0,0.0,0.0,0.0,0.0,0.0,0.0,0.0,0.0,0.0,0.0,0.0,0.0,0.0,0.0,0.0,0.0,0.0,0.0,0.0,0.0,0.0,0.0,0.0,0.0,0.0,0.0,0.0,0.0,0.0,0.0,0.0,0.0,0.0,0.0,0.0,0.0,0.0,0.0,0.0,0.0,0.0,0.0,0.0,0.0,0.0,0.0,0.0,0.0,0.0,0.0,0.0,0.0,0.0,0.0,0.0,0.0,0.0,0.0,0.0,0.0,0.0,0.0,0.0,0.0,0.0,0.0,0.0,0.0,0.0,0.0,0.0,0.0,0.0,0.0,0.0,0.0,0.0,0.0,0.0,0.0,0.0,0.0,0.0,0.0,0.0,0.0,0.0,0.0,0.0,0.0,0.0,0.0,0.0,0.0,0.0,0.0,0.0,0.0,0.0,0.0,0.0,0.0,0.0,0.0,0.0,0.0,0.0,0.0,0.0,0.0,0.0,0.0,0.0,0.0,0.0,0.0,0.0,0.0,0.0,0.0,0.0,0.0,0.0,0.0,0.0,0.0,0.0,0.0,0.0,0.0,0.0,0.0,0.0,0.0,0.0,0.0,0.0,0.0,0.0,0.0,0.0,0.0,0.0,0.0,0.0,0.0,0.0,0.0,0.0,0.0,0.0,0.0,0.0,0.0,0.0,0.0,0.0,0.0,0.0,0.0,0.0,0.0,0.0,0.0,0.0,0.0,0.0,0.0,0.0,0.0,0.0,0.0,0.0,0.0,0.0,0.0,0.0,0.0,0.0,0.0,0.0,0.0,0.0,0.0,0.0,0.0,0.0,0.0,0.0,0.0,0.0,0.0,0.0,0.0,0.0,0.0,0.0,0.0,0.0,0.0,0.0,0.0,0.0,0.0,0.0,0.0,0.0,0.0,0.0,0.0,0.0,0.0,0.0,0.0,0.0,0.0,0.0,0.0,0.0,0.0,0.0,0.0,0.0,0.0,0.0,0.0,0.0,0.0,0.0,0.0,0.0,0.0,0.0,0.0,0.0,0.0,0.0,0.0,0.0,0.0,0.0,0.0,0.0,0.0,0.0,0.0,0.0,0.0,0.0,0.0,0.0,0.0,0.0,0.0,0.0,0.0,0.0,0.0,0.0,0.0,0.0,0.0,0.0,0.0,0.0,0.0,0.0,0.0,0.0,0.0,0.0,0.0,0.0,0.0,0.0,0.0,0.0,0.0,0.0,0.0,0.0,0.0,0.0,0.0,0.0,0.0,0.0,0.0,0.0,0.0,0.0,0.0,0.0,0.0,0.0,0.0,0.0,0.0,0.0,0.0,0.0,0.0,0.0,0.0,0.0,0.0,0.0,0.0,0.0,0.0,0.0,0.0,0.0,0.0,0.0,0.0,0.0,0.0,0.0,0.0,0.0,0.0,0.0,0.0,0.0,0.0,0.0,0.0,0.0,0.0,0.0,0.0,0.0,0.0,0.0,0.0,0.0,0.0,0.0,0.0,0.0,0.0,0.0,0.0,0.0,0.0,0.0,0.0,0.0,0.0,0.0,0.0,0.0,0.0,0.0,0.0,0.0,0.0,0.0,0.0,0.0,0.0,0.0,0.0,0.0,0.0,0.0,0.0,0.0,0.0,0.0,0.0,0.0,0.0,0.0,0.0,0.0,0.0,0.0,0.0,0.0,0.0,0.0,0.0,0.0,0.0,0.0,0.0,0.0,0.0,0.0,0.0,0.0,0.0,0.0,0.0,0.0,0.0,0.0,0.0,0.0,0.0,0.0,0.0,0.0,0.0,0.0,0.0,0.0,0.0,0.0,0.0,0.0,0.0,0.0,0.0,0.0,0.0,0.0,0.0,0.0,0.0,0.0,0.0,0.0,0.0,0.0,0.0,0.0,0.0,0.0,0.0,0.0,0.0,0.0,0.0,0.0,0.0,0.0,0.0,0.0,0.0,0.0,0.0,0.0,0.0,0.0,0.0,0.0,0.0,0.0,0.0,0.0,0.0,0.0,0.0,0.0,0.0,0.0,0.0,0.0,0.0,0.0,0.0,0.0,0.0,0.0,0.0,0.0,0.0,0.0,0.0,0.0,0.0,0.0,0.0,0.0,0.0,0.0,0.0,0.0,0.0,0.0,0.0,0.0,0.0,0.0,0.0,0.0,0.0,0.0,0.0,0.0,0.0,0.0,0.0,0.0,0.0,0.0,0.0,0.0,0.0,0.0,0.0,0.0,0.0,0.0,0.0,0.0,0.0,0.0,0.0,0.0,0.0,0.0,0.0,0.0,0.0,0.0,0.0,0.0,0.0,0.0,0.0,0.0,0.0,0.0,0.0,0.0,0.0,0.0,0.0,0.0,0.0,0.0,0.0,0.0,0.0,0.0,0.0,0.0,0.0,0.0,0.0,0.0,0.0,0.0,0.0,0.0,0.0,0.0,0.0,0.0,0.0,0.0,0.0,0.0,0.0,0.0,0.0,0.0,0.0,0.0,0.0,0.0,0.0,0.0,0.0,0.0,0.0,0.0,0.0,0.0,0.0,0.0,0.0,0.0,0.0,0.0,0.0,0.0,0.0,0.0,0.0,0.0,0.0,0.0,0.0,0.0,0.0,0.0,0.0,0.0,0.0,0.0,0.0,0.0,0.0,0.0,0.0,0.0,0.0,0.0,0.0,0.0,0.0,0.0,0.0,0.0,0.0,0.0,0.0,0.0,0.0,0.0,0.0,0.0,0.0,0.0,0.0,0.0,0.0,0.0,0.0,0.0,0.0,0.0,0.0,0.0,0.0,0.0,0.0,0.0,0.0,0.0,0.0,0.0,0.0,0.0,0.0,0.0,0.0,0.0,0.0,0.0,0.0,0.0,0.0,0.0,0.0,0.0,0.0,0.0,0.0,0.0,0.0,0.0,0.0,0.0,0.0,0.0,0.0,0.0,0.0,0.0,0.0,0.0,0.0,0.0,0.0,0.0,0.0,0.0,0.0,0.0,0.0,0.0,0.0,0.0,0.0,0.0,0.0,0.0,0.0,0.0,0.0,0.0,0.0,0.0,0.0,0.0,0.0,0.0,0.0,0.0,0.0,0.0,0.0,0.0,0.0,0.0,0.0,0.0,0.0,0.0,0.0,0.0,0.0,0.0,0.0,0.0,0.0,0.0,0.0,0.0,0.0,0.0,0.0,0.0,0.0,0.0,0.0,0.0,0.0,0.0,0.0,0.0,0.0,0.0,0.0,0.0,0.0,0.0,0.0,0.0,0.0,0.0,0.0,0.0,0.0,0.0,0.0,0.0,0.0,0.0,0.0,0.0,0.0,0.0,0.0,0.0,0.0,0.0,0.0,0.0,0.0,0.0,0.0,0.0,0.0,0.0,0.0,0.0,0.0,0.0,0.0,0.0,0.0,0.0,0.0,0.0,0.0,0.0,0.0,0.0,0.0,0.0,0.0,0.0,0.0,0.0,0.0,0.0,0.0,0.0,0.0,0.0,0.0,0.0,0.0,0.0,0.0,0.0,0.0,0.0,0.0,0.0,0.0,0.0,0.0,0.0,0.0,0.0,0.0,0.0,0.0,0.0,0.0,0.0,0.0,0.0,0.0,0.0,0.0,0.0,0.0,0.0,0.0,0.0,0.0,0.0,0.0,0.0,0.0,0.0,0.0,0.0,0.0,0.0,0.0,0.0,0.0,0.0,0.0,0.0,0.0,0.0,0.0,0.0,0.0,0.0,0.0,0.0,0.0,0.0,0.0,0.0,0.0,0.0,0.0,0.0,0.0,0.0,0.0,0.0,0.0,0.0,0.0,0.0,0.0,0.0,0.0,0.0,0.0,0.0,0.0,0.0,0.0,0.0,0.0,0.0,0.0,0.0,0.0,0.0,0.0,0.0,0.0,0.0,0.0,0.0,0.0,0.0,0.0,0.0,0.0,0.0,0.0,0.0,0.0,0.0,0.0,0.0,0.0,0.0,0.0,0.0,0.0,0.0,0.0,0.0,0.0,0.0,0.0,0.0,0.0,0.0,0.0,0.0,0.0,0.0,0.0,0.0,0.0,0.0,0.0,0.0,0.0,0.0,0.0,0.0,0.0,0.0,0.0,0.0,0.0,0.0,0.0,0.0,0.0,0.0,0.0,0.0,0.0,0.0,0.0,0.0,0.0,0.0,0.0,0.0,0.0,0.0,0.0,0.0,0.0,0.0,0.0,0.0,0.0,0.0,0.0,0.0,0.0,0.0,0.0,0.0,0.0,0.0,0.0,0.0,0.0,0.0,0.0,0.0,0.0,0.0,0.0,0.0,0.0,0.0,0.0,0.0,0.0,0.0,0.0,0.0,0.0,0.0,0.0,0.0,0.0,0.0,0.0,0.0,0.0,0.0,0.0,0.0,0.0,0.0,0.0,0.0,0.0,0.0,0.0,0.0,0.0,0.0,0.0,0.0,0.0,0.0,0.0,0.0,0.0,0.0,0.0,0.0,0.0,0.0,0.0,0.0,0.0,0.0,0.0,0.0,0.0,0.0,0.0,0.0,0.0,0.0,0.0,0.0,0.0,0.0,0.0,0.0,0.0,0.0,0.0,0.0,0.0,0.0,0.0,0.0,0.0,0.0,0.0,0.0,0.0,0.0,0.0,0.0,0.0,0.0,0.0,0.0,0.0,0.0,0.0,0.0,0.0,0.0,0.0,0.0,0.0,0.0,0.0,0.0,0.0,0.0,0.0,0.0,0.0,0.0,0.0,0.0,0.0,0.0,0.0,0.0,0.0,0.0,0.0,0.0,0.0,0.0,0.0,0.0,0.0,0.0,0.0,0.0,0.0,0.0,0.0,0.0,0.0,0.0,0.0,0.0,0.0,0.0,0.0,0.0,0.0,0.0,0.0,0.0,0.0,0.0,0.0,0.0,0.0,0.0,0.0,0.0,0.0,0.0,0.0,0.0,0.0,0.0,0.0,0.0,0.0,0.0,0.0,0.0,0.0,0.0,0.0,0.0,0.0,0.0,0.0,0.0,0.0,0.0,0.0,0.0,0.0,0.0,0.0,0.0,0.0,0.0,0.0,0.0,0.0,0.0,0.0,0.0,0.0,0.0,0.0,0.0,0.0,0.0,0.0,0.0,0.0,0.0,0.0,0.0,0.0,0.0,0.0,0.0,0.0,0.0,0.0,0.0,0.0,0.0,0.0,0.0,0.0,0.0,0.0,0.0,0.0,0.0,0.0,0.0,0.0,0.0,0.0,0.0,0.0,0.0,0.0,0.0,0.0,0.0,0.0,0.0,0.0,0.0,0.0,0.0,0.0,0.0,0.0,0.0,0.0,0.0,0.0,0.0,0.0,0.0,0.0,0.0,0.0,0.0,0.0,0.0,0.0,0.0,0.0,0.0,0.0,0.0,0.0,0.0,0.0,0.0,0.0,0.0,0.0,0.0,0.0,0.0,0.0,0.0,0.0,0.0,0.0,0.0,0.0,0.0,0.0,0.0,0.0,0.0,0.0,0.0,0.0,0.0,0.0,0.0,0.0,0.0,0.0,0.0,0.0,0.0,0.0,0.0,0.0,0.0,0.0,0.0,0.0,0.0,0.0,0.0,0.0,0.0,0.0,0.0,0.0,0.0,0.0,0.0,0.0,0.0,0.0,0.0,0.0,0.0,0.0,0.0,0.0,0.0,0.0,0.0,0.0,0.0,0.0,0.0,0.0,0.0,0.0,0.0,0.0,0.0,0.0,0.0,0.0,0.0,0.0,0.0,0.0,0.0,0.0,0.0,0.0,0.0,-2.1435,-2.1569,0.0,0.0,0.0,0.0,0.0,0.0,0.0,0.0,0.0,0.0,0.0,0.0,0.0,0.0,0.0,0.0,0.0,0.0,0.0,0.0,0.0,0.0,0.0,0.0,0.0,0.0,0.0,0.0,0.0,0.0,0.0,0.0,0.0,0.0,0.0,0.0,0.0,0.0,0.0,0.0,0.0,0.0,0.0,0.0,0.0,0.0,0.0,0.0,0.0,0.0,0.0,0.0,0.0,0.0,0.0,0.0,0.0,0.0,0.0,0.0,0.0,0.0,0.0,0.0,0.0,0.0,0.0,0.0,0.0,0.0,0.0,0.0,0.0,0.0,0.0,0.0,0.0,0.0,0.0,0.0,0.0,0.0,0.0,0.0,0.0,0.0,0.0,0.0,0.0,0.0,0.0,0.0,0.0,0.0,0.0,0.0,0.0,0.0,0.0,0.0,0.0,0.0,0.0,0.0,0.0,0.0,0.0,0.0,0.0,0.0,0.0,0.0,0.0,0.0,-2.1741,-2.1931,0.0,0.0,0.0,0.0,0.0,0.0,0.0,0.0,0.0,0.0,0.0,0.0,0.0,0.0,0.0,0.0,0.0,0.0,0.0,0.0,0.0,0.0,0.0,0.0,0.0,0.0,0.0,0.0,0.0,0.0,0.0,0.0,0.0,0.0,0.0,0.0,0.0,0.0,0.0,0.0,0.0,0.0,0.0,0.0,0.0,0.0,0.0,0.0,0.0,0.0,0.0,0.0,0.0,0.0,0.0,0.0,0.0,0.0,0.0,0.0,0.0,0.0,0.0,0.0,0.0,0.0,0.0,0.0,0.0,0.0,0.0,0.0,0.0,0.0,0.0,0.0,0.0,0.0,0.0,0.0,0.0,0.0,0.0,0.0,0.0,0.0,0.0,0.0,0.0,0.0,0.0,0.0,0.0,0.0,0.0,0.0,0.0,0.0,0.0,0.0,0.0,0.0,0.0,0.0,0.0,0.0,0.0,0.0,-2.1651,-2.1741,-2.1741,-2.1805,-2.1841,-2.1841,-2.1915,-2.2089,-2.2428,-2.296,0.0,0.0,0.0,0.0,0.0,0.0,0.0,0.0,0.0,0.0,0.0,0.0,0.0,0.0,0.0,0.0,0.0,0.0,0.0,0.0,0.0,0.0,0.0,0.0,0.0,0.0,0.0,0.0,0.0,0.0,0.0,0.0,0.0,0.0,0.0,0.0,0.0,0.0,0.0,0.0,0.0,0.0,0.0,0.0,0.0,0.0,0.0,0.0,0.0,0.0,0.0,0.0,0.0,0.0,0.0,0.0,0.0,0.0,0.0,0.0,0.0,0.0,0.0,0.0,0.0,0.0,0.0,0.0,0.0,0.0,0.0,0.0,0.0,0.0,0.0,0.0,0.0,0.0,0.0,0.0,0.0,0.0,0.0,0.0,0.0,0.0,-1.5228,-1.5567,0.0,0.0,0.0,0.0,0.0,0.0,0.0,0.0,0.0,0.0,0.0,0.0,0.0,-2.067,-2.0779,-2.1307,-2.1596,-2.1651,-2.1651,-2.1741,-2.175,-2.2089,-2.2245,-2.2263,-2.263,0.0,-2.2721,-2.3094,0.0,0.0,0.0,0.0,0.0,0.0,0.0,0.0,0.0,0.0,0.0,0.0,0.0,0.0,0.0,0.0,0.0,0.0,0.0,0.0,0.0,0.0,0.0,0.0,0.0,0.0,0.0,0.0,0.0,0.0,0.0,0.0,0.0,0.0,0.0,0.0,0.0,0.0,0.0,0.0,0.0,0.0,0.0,0.0,0.0,0.0,0.0,0.0,0.0,0.0,0.0,0.0,0.0,0.0,0.0,0.0,0.0,0.0,0.0,0.0,0.0,0.0,0.0,0.0,0.0,0.0,0.0,0.0,0.0,0.0,0.0,0.0,0.0,0.0,0.0,0.0,0.0,0.0,0.0,0.0,0.0,0.0,0.0,0.0,0.0,-1.5235,-1.5733,-1.6237,-1.664,-1.7139,0.0,0.0,0.0,0.0,0.0,0.0,0.0,0.0,0.0,-2.0322,-2.0762,-2.1053,-2.1289,-2.156,-2.1741,-2.1741,-2.1741,-2.1851,-2.2071,-2.2245,-2.2456,-2.2703,-2.3012,-2.318,-2.3213,-2.3493,-2.4,-2.4667,0.0,0.0,0.0,0.0,-2.4548,-2.3954,0.0,0.0,0.0,0.0,0.0,0.0,0.0,0.0,0.0,0.0,0.0,0.0,0.0,0.0,0.0,0.0,0.0,0.0,0.0,0.0,0.0,0.0,0.0,0.0,0.0,0.0,0.0,0.0,0.0,0.0,0.0,0.0,0.0,0.0,0.0,0.0,0.0,0.0,0.0,0.0,0.0,0.0,0.0,0.0,0.0,0.0,0.0,0.0,0.0,0.0,0.0,0.0,0.0,0.0,0.0,0.0,0.0,0.0,0.0,0.0,0.0,0.0,0.0,0.0,0.0,0.0,0.0,0.0,0.0,0.0,0.0,0.0,0.0,0.0,0.0,0.0,0.0,-1.5733,-1.6147,-1.673,-1.7139,-1.7546,0.0,0.0,0.0,0.0,0.0,0.0,-1.9652,-2.0026,-2.0503,-2.1089,-2.1209,-2.142,-2.1731,-2.1741,-2.1741,-2.1741,-2.1841,-2.2043,-2.2327,-2.2538,-2.2813,-2.3125,-2.3529,-2.3703,-2.3694,-2.3897,-2.417,-2.4529,-2.4932,-2.4833,-2.4529,-2.4735,-2.4538,-2.4152,0.0,0.0,0.0,0.0,0.0,0.0,0.0,0.0,0.0,0.0,0.0,0.0,0.0,0.0,0.0,0.0,0.0,0.0,0.0,0.0,0.0,0.0,0.0,0.0,0.0,0.0,0.0,0.0,0.0,0.0,0.0,0.0,0.0,0.0,0.0,0.0,0.0,0.0,0.0,0.0,0.0,0.0,0.0,0.0,0.0,0.0,0.0,0.0,0.0,0.0,0.0,0.0,0.0,0.0,0.0,0.0,0.0,0.0,0.0,0.0,0.0,0.0,0.0,0.0,0.0,0.0,0.0,0.0,0.0,0.0,0.0,0.0,0.0,0.0,0.0,0.0,0.0,0.0,0.0,-1.7057,-1.7627,0.0,0.0,0.0,0.0,-1.9002,-1.9516,-1.9825,-1.9843,-2.064,-2.1062,-2.1108,-2.1493,-2.1713,-2.1741,-2.1741,-2.1741,-2.1741,-2.2116,-2.23,-2.2355,-2.3125,-2.3492,-2.3538,-2.3941,-2.4115,-2.4125,-2.4223,-2.4322,-2.4529,-2.4538,-2.4529,-2.4529,-2.4529,-2.4341,-2.4152,0.0,0.0,0.0,0.0,0.0,0.0,0.0,0.0,0.0,0.0,0.0,0.0,0.0,0.0,0.0,0.0,0.0,0.0,0.0,0.0,0.0,0.0,0.0,0.0,0.0,0.0,0.0,0.0,0.0,0.0,0.0,0.0,0.0,0.0,0.0,0.0,0.0,0.0,0.0,0.0,0.0,0.0,0.0,0.0,0.0,0.0,0.0,0.0,0.0,0.0,0.0,0.0,0.0,0.0,0.0,0.0,0.0,0.0,0.0,0.0,0.0,0.0,0.0,0.0,0.0,0.0,0.0,0.0,0.0,0.0,0.0,0.0,0.0,0.0,0.0,0.0,0.0,0.0,0.0,-1.7456,-1.7951,0.0,-1.8612,-1.8843,-1.919,-1.9534,-1.9761,-2.0154,-2.0659,-2.0952,-2.1236,-2.1502,-2.1658,-2.1741,-2.1741,-2.1741,-2.1869,-2.2116,-2.2254,-2.2602,-2.3116,-2.3409,-2.3684,-2.3941,-2.4088,-2.4152,-2.4152,-2.4152,-2.4251,-2.4341,-2.443,-2.444,-2.4341,-2.443,-2.4341,-2.4152,0.0,0.0,0.0,0.0,0.0,0.0,0.0,0.0,0.0,0.0,0.0,0.0,0.0,0.0,0.0,0.0,0.0,0.0,0.0,0.0,0.0,0.0,0.0,0.0,0.0,0.0,0.0,0.0,0.0,0.0,0.0,0.0,0.0,0.0,0.0,0.0,0.0,0.0,0.0,0.0,0.0,0.0,-1.3222,0.0,0.0,0.0,0.0,0.0,0.0,0.0,0.0,0.0,0.0,0.0,0.0,0.0,0.0,0.0,0.0,0.0,0.0,0.0,0.0,0.0,0.0,0.0,0.0,0.0,0.0,0.0,0.0,0.0,0.0,0.0,0.0,0.0,0.0,-1.6976,-1.7302,-1.77,-1.8193,-1.8531,-1.87,-1.9048,-1.9479,-1.9834,-2.0173,-2.0558,-2.108,-2.1245,-2.1447,-2.1722,-2.1741,-2.1741,-2.1741,-2.1869,-2.2071,-2.2327,-2.2602,-2.3015,-2.3547,-2.3684,-2.3895,-2.4152,-2.4152,-2.4152,-2.4152,-2.4152,-2.4152,-2.4251,-2.4341,-2.4341,-2.4251,-2.4341,-2.4341,-2.4152,0.0,0.0,0.0,0.0,0.0,0.0,0.0,0.0,0.0,0.0,0.0,0.0,0.0,0.0,0.0,0.0,0.0,0.0,0.0,0.0,0.0,0.0,0.0,0.0,0.0,0.0,0.0,0.0,0.0,0.0,0.0,0.0,0.0,0.0,0.0,0.0,0.0,0.0,0.0,0.0,0.0,0.0,-1.3398,0.0,0.0,0.0,0.0,0.0,0.0,0.0,0.0,0.0,0.0,0.0,0.0,0.0,0.0,0.0,0.0,0.0,0.0,0.0,0.0,0.0,0.0,0.0,0.0,0.0,0.0,0.0,0.0,0.0,0.0,0.0,0.0,0.0,-1.6648,-1.7147,-1.7473,-1.77,-1.8282,-1.87,-1.8718,-1.9462,-1.9943,-1.9971,-2.0677,-2.1117,-2.1126,-2.152,-2.1741,-2.1741,-2.1741,-2.1741,-2.1741,-2.2126,-2.2327,-2.2355,-2.3162,-2.3547,-2.3574,-2.3969,-2.4152,-2.4152,-2.4152,-2.4152,-2.4152,-2.4152,-2.4152,-2.4152,-2.4152,-2.4152,-2.4152,-2.4152,-2.4152,-2.4152,0.0,0.0,0.0,0.0,0.0,0.0,0.0,0.0,0.0,0.0,0.0,0.0,0.0,0.0,0.0,0.0,0.0,0.0,0.0,0.0,0.0,0.0,0.0,0.0,0.0,0.0,0.0,0.0,0.0,0.0,0.0,0.0,0.0,0.0,0.0,0.0,0.0,0.0,0.0,0.0,0.0,0.0,-1.3652,0.0,0.0,0.0,0.0,0.0,0.0,0.0,0.0,0.0,0.0,0.0,0.0,0.0,0.0,0.0,0.0,0.0,0.0,0.0,0.0,0.0,0.0,0.0,0.0,0.0,0.0,0.0,0.0,0.0,0.0,0.0,-1.6394,-1.6566,-1.7147,-1.731,-1.7554,-1.787,-1.8282,-1.8637,-1.9082,-1.9443,-1.9989,-2.0741,-2.0979,-2.1236,-2.1548,-2.1676,-2.1741,-2.1741,-2.1741,-2.1741,-2.1741,-2.2126,-2.2474,-2.2786,-2.3299,-2.3703,-2.3987,-2.4106,-2.4152,-2.4152,-2.4152,-2.4152,-2.4152,-2.4152,-2.4152,-2.4152,-2.4152,-2.4152,-2.4152,-2.4152,-2.4152,-2.4152,0.0,0.0,0.0,0.0,0.0,0.0,0.0,0.0,0.0,0.0,0.0,0.0,0.0,0.0,0.0,0.0,0.0,0.0,0.0,0.0,0.0,0.0,0.0,0.0,0.0,0.0,0.0,0.0,0.0,0.0,0.0,0.0,0.0,0.0,0.0,0.0,0.0,0.0,0.0,0.0,0.0,0.0,-1.3984,-1.4314,-1.4482,-1.4741,-1.4824,-1.4908,-1.4999,-1.5173,0.0,0.0,0.0,0.0,0.0,0.0,0.0,0.0,0.0,0.0,0.0,0.0,0.0,0.0,0.0,0.0,0.0,0.0,0.0,0.0,0.0,0.0,0.0,0.0,-1.6476,-1.673,-1.7221,-1.731,-1.7554,-1.787,-1.8339,-1.8775,-1.9085,-1.9728,-2.0359,-2.0907,-2.1186,-2.1475,-2.1722,-2.1741,-2.1741,-2.1741,-2.1741,-2.1814,-2.1979,-2.2382,-2.2795,-2.3208,-2.3611,-2.3923,-2.4152,-2.4152,-2.4152,-2.4152,-2.4152,-2.4152,-2.4152,-2.4152,-2.4152,-2.4152,0.0,0.0,0.0,0.0,-2.4152,-2.4152,0.0,0.0,0.0,0.0,0.0,0.0,0.0,0.0,0.0,0.0,0.0,0.0,0.0,0.0,0.0,0.0,0.0,0.0,0.0,0.0,0.0,0.0,0.0,0.0,0.0,0.0,0.0,0.0,0.0,0.0,0.0,0.0,0.0,0.0,0.0,0.0,0.0,0.0,0.0,0.0,0.0,0.0,-1.4398,-1.4482,-1.4741,-1.509,-1.509,-1.5257,-1.5431,-1.5431,0.0,0.0,0.0,0.0,0.0,0.0,0.0,0.0,0.0,0.0,0.0,0.0,0.0,0.0,0.0,0.0,0.0,0.0,0.0,0.0,0.0,0.0,0.0,0.0,-1.6566,-1.6812,-1.7057,-1.7221,-1.7473,-1.77,-1.8365,-1.8872,-1.8998,-1.9995,-2.0709,-2.0842,-2.1353,-2.1651,-2.1651,-2.1651,0.0,0.0,0.0,-2.197,-2.2318,-2.2786,-2.3198,-2.3547,-2.396,-2.4152,-2.4152,-2.4152,-2.4152,-2.4152,-2.4152,-2.4152,-2.4152,-2.4152,-2.4152,-2.4152,-2.4152,-2.4152,-2.4152,-2.4152,-2.4152,-2.4152,0.0,0.0,0.0,0.0,0.0,0.0,0.0,0.0,0.0,0.0,0.0,0.0,0.0,0.0,0.0,0.0,0.0,0.0,0.0,0.0,0.0,0.0,0.0,0.0,0.0,0.0,0.0,0.0,0.0,0.0,0.0,0.0,0.0,0.0,0.0,0.0,0.0,0.0,0.0,0.0,0.0,0.0,-1.4482,-1.4824,-1.4999,-1.509,-1.5257,-1.5347,-1.5431,-1.5431,-1.5431,-1.5431,-1.5431,0.0,0.0,0.0,0.0,0.0,0.0,0.0,0.0,0.0,0.0,0.0,0.0,0.0,0.0,0.0,0.0,0.0,0.0,0.0,0.0,-1.6648,-1.6648,-1.673,-1.673,-1.6976,-1.7294,-1.77,-1.8118,-1.8641,-1.9364,-1.9904,-2.0474,-2.0953,-2.1248,-2.1482,-2.1482,-2.1651,-2.1741,-2.1741,-2.2043,-2.2245,-2.2327,-2.3061,-2.3464,-2.3547,-2.396,0.0,-2.4152,-2.4152,-2.4152,-2.4152,-2.4152,-2.4152,-2.4152,-2.4152,-2.4152,-2.4152,-2.4152,-2.4152,-2.4152,-2.4152,-2.4152,-2.4152,0.0,0.0,0.0,0.0,0.0,0.0,0.0,0.0,0.0,0.0,0.0,0.0,0.0,0.0,0.0,0.0,0.0,0.0,0.0,0.0,0.0,0.0,0.0,0.0,0.0,0.0,0.0,0.0,0.0,0.0,0.0,0.0,0.0,0.0,0.0,0.0,0.0,0.0,0.0,0.0,0.0,0.0,-1.4566,-1.4999,-1.5173,-1.5257,-1.5499,-1.5582,-1.5582,-1.5582,-1.5582,-1.5499,-1.5423,-1.5431,-1.5431,0.0,0.0,0.0,0.0,0.0,0.0,0.0,0.0,0.0,0.0,0.0,0.0,0.0,0.0,-1.5741,-1.6087,0.0,-1.6476,-1.6648,-1.673,-1.673,-1.673,-1.6972,-1.7333,-1.7648,-1.8062,-1.8692,-1.9401,-1.9875,-2.0364,-2.0808,-2.1105,-2.1293,-2.1392,-2.1482,-2.1562,-2.1741,-2.2116,-2.2428,-2.2639,-2.3244,-2.3648,-2.3849,-2.4051,-2.4152,-2.4152,-2.4152,-2.4152,-2.4152,-2.4152,-2.4152,-2.4152,-2.4152,-2.4152,-2.4152,-2.4152,-2.4152,-2.4152,-2.4152,-2.4152,-2.4152,0.0,0.0,0.0,0.0,0.0,0.0,0.0,0.0,0.0,0.0,0.0,0.0,0.0,0.0,0.0,0.0,0.0,0.0,0.0,0.0,0.0,0.0,0.0,0.0,0.0,0.0,0.0,0.0,0.0,0.0,0.0,0.0,0.0,0.0,0.0,0.0,0.0,0.0,0.0,0.0,0.0,0.0,-1.4824,-1.5082,-1.534,-1.5506,-1.5658,-1.5733,-1.5741,-1.5741,-1.5741,-1.5741,-1.5499,-1.5423,-1.5423,-1.5431,-1.5431,0.0,0.0,0.0,0.0,0.0,0.0,0.0,0.0,-1.5431,-1.5431,-1.5431,-1.5582,-1.5824,-1.6087,-1.6327,-1.6476,-1.6648,-1.673,-1.673,-1.673,-1.7048,-1.7379,-1.7604,-1.8185,-1.8783,-1.9259,-1.9889,-2.0292,-2.0564,-2.0826,-2.1096,-2.1293,-2.1392,-2.1518,-2.1851,-2.2236,-2.2648,-2.2975,-2.3464,-2.3831,-2.4152,-2.4152,-2.4152,-2.4152,-2.4152,-2.4152,-2.4152,-2.4152,-2.4152,-2.4152,-2.4152,-2.4152,-2.4152,-2.4152,-2.4152,-2.4152,-2.4152,-2.4152,-2.4152,0.0,0.0,0.0,0.0,0.0,0.0,0.0,0.0,0.0,0.0,0.0,0.0,0.0,0.0,0.0,0.0,0.0,0.0,0.0,0.0,0.0,0.0,0.0,0.0,0.0,0.0,0.0,0.0,0.0,0.0,0.0,0.0,0.0,0.0,0.0,0.0,0.0,0.0,0.0,0.0,0.0,0.0,-1.5082,-1.5492,-1.5658,-1.565,-1.565,-1.5824,-1.6087,-1.6087,-1.6087,-1.5997,-1.5741,-1.565,-1.5658,-1.5423,0.0,-1.5431,-1.5431,-1.5431,-1.5431,-1.5431,-1.5431,-1.5431,0.0,-1.5431,-1.5431,-1.5431,-1.5756,-1.6087,-1.6087,-1.6409,-1.6648,-1.673,-1.673,-1.673,-1.673,-1.7048,-1.739,-1.7762,-1.8306,-1.8815,-1.9018,-1.9619,-1.9928,-2.0019,-2.0473,-2.0826,-2.0997,-2.1293,-2.1645,-2.2245,-2.2667,-2.307,-2.3474,-2.3877,-2.4106,-2.4152,-2.4152,-2.4152,-2.4152,-2.4152,-2.4152,-2.4152,-2.4152,-2.4152,-2.4152,-2.4152,-2.4152,-2.4152,-2.4152,-2.4152,-2.4152,-2.4152,-2.4152,-2.4152,0.0,0.0,0.0,0.0,0.0,0.0,0.0,0.0,0.0,0.0,0.0,0.0,0.0,0.0,0.0,0.0,0.0,0.0,0.0,0.0,0.0,0.0,0.0,0.0,0.0,0.0,0.0,0.0,0.0,0.0,0.0,0.0,0.0,0.0,0.0,0.0,0.0,0.0,0.0,0.0,0.0,0.0,-1.5325,-1.5567,-1.5899,-1.6237,-1.6147,-1.6154,0.0,0.0,-1.6237,-1.6237,-1.5816,-1.5733,-1.5658,-1.5423,-1.5431,0.0,-1.5431,-1.5431,-1.5431,-1.5431,-1.5431,-1.5431,-1.5431,-1.5431,-1.5431,-1.5431,-1.5756,-1.6087,-1.6087,-1.6409,-1.673,-1.673,-1.673,-1.681,-1.7024,-1.735,-1.7691,-1.8041,-1.8489,-1.8886,-1.906,-1.9381,-1.9654,-1.9837,-2.011,-2.0382,-2.0826,-2.1236,-2.1715,-2.2144,-2.2866,-2.3373,-2.3547,-2.395,-2.4152,-2.4152,-2.4152,-2.4152,-2.4152,-2.4152,-2.4152,-2.4152,-2.4152,-2.4152,-2.4152,-2.4152,-2.4152,-2.4152,-2.4152,-2.4152,-2.4152,-2.4152,-2.4152,-2.4152,0.0,0.0,0.0,0.0,0.0,0.0,0.0,0.0,0.0,0.0,0.0,0.0,0.0,0.0,0.0,0.0,0.0,0.0,0.0,0.0,0.0,0.0,0.0,0.0,0.0,0.0,0.0,0.0,0.0,0.0,0.0,0.0,0.0,0.0,0.0,0.0,0.0,0.0,0.0,0.0,0.0,0.0,-1.565,-1.5899,-1.6319,-1.6656,-1.6558,-1.6566,0.0,0.0,-1.6558,-1.6476,-1.5989,-1.5824,-1.5741,-1.5506,-1.5431,-1.5431,-1.5431,-1.5431,-1.5431,-1.5431,-1.5431,-1.5431,-1.5431,-1.5431,-1.5431,-1.5431,-1.5756,-1.6087,-1.6087,-1.6409,-1.673,-1.673,-1.673,-1.6857,-1.7231,-1.7564,-1.7898,-1.8255,-1.8613,-1.892,-1.9096,-1.9188,-1.9371,-1.9754,-1.9845,-2.0152,-2.0802,-2.1357,-2.179,-2.2294,-2.3044,-2.3593,-2.3712,-2.4005,-2.4152,-2.4152,-2.4152,-2.4152,-2.4152,-2.4152,-2.4152,-2.4152,-2.4152,-2.4152,-2.4152,-2.4152,-2.4152,-2.4152,-2.4152,-2.4152,-2.4152,-2.4152,-2.4152,-2.4152,0.0,0.0,0.0,0.0,0.0,0.0,0.0,0.0,0.0,0.0,0.0,0.0,0.0,0.0,0.0,0.0,0.0,0.0,0.0,0.0,0.0,0.0,0.0,0.0,0.0,0.0,0.0,0.0,0.0,0.0,0.0,0.0,0.0,0.0,0.0,0.0,0.0,0.0,0.0,0.0,0.0,0.0,-1.6087,-1.6492,-1.6656,-1.673,-1.6648,0.0,0.0,0.0,-1.7057,-1.6976,-1.6335,-1.6087,0.0,-1.5514,-1.5431,-1.5431,-1.5431,-1.5431,-1.5431,-1.5431,-1.5431,-1.5431,-1.5431,-1.5431,-1.5431,-1.5431,-1.5756,-1.6087,-1.6087,-1.6409,-1.673,-1.673,-1.673,-1.6857,-1.7231,-1.7564,-1.7898,-1.8255,-1.8613,-1.8827,-1.8827,-1.9012,-1.9288,-1.9587,-1.9754,-2.0271,-2.1102,-2.1415,-2.204,-2.3,-2.3335,-2.373,-2.4134,-2.4143,-2.4152,-2.4152,-2.4152,-2.4152,-2.4152,-2.4152,-2.4152,-2.4152,-2.4152,-2.4152,-2.4152,-2.4152,-2.4152,-2.4152,-2.4152,-2.4152,-2.4152,-2.4152,-2.4152,-2.4152,0.0,0.0,0.0,0.0,0.0,0.0,0.0,0.0,0.0,0.0,0.0,0.0,0.0,0.0,0.0,0.0,0.0,0.0,0.0,0.0,0.0,0.0,0.0,0.0,0.0,0.0,0.0,0.0,0.0,0.0,0.0,0.0,0.0,0.0,0.0,0.0,0.0,0.0,0.0,0.0,0.0,0.0,-1.6574,-1.6984,-1.731,-1.7627,0.0,0.0,0.0,0.0,-1.7139,-1.6976,-1.6327,-1.6087,-1.6004,-1.5514,-1.5431,-1.5431,-1.5431,-1.5431,-1.5431,-1.5431,-1.5431,-1.5431,-1.5431,-1.5431,-1.5431,-1.5431,-1.5756,-1.6087,-1.6087,-1.6409,-1.673,-1.673,-1.6937,-1.7215,-1.7556,-1.7898,-1.8255,-1.8605,-1.8756,-1.8827,-1.8827,-1.892,-1.9112,-1.9587,-1.9886,-2.0348,-2.0959,-2.1916,-2.2504,-2.2868,-2.3608,-2.4015,-2.4152,-2.4152,-2.4152,-2.4152,-2.4152,-2.4152,-2.4152,-2.4152,-2.4152,-2.4152,-2.4152,-2.4152,-2.4152,-2.4152,-2.4152,-2.4152,-2.4152,-2.4152,-2.4152,-2.4152,-2.4152,-2.4152,0.0,0.0,0.0,0.0,0.0,0.0,0.0,0.0,0.0,0.0,0.0,0.0,0.0,0.0,0.0,0.0,0.0,0.0,0.0,0.0,0.0,0.0,0.0,0.0,0.0,0.0,0.0,0.0,0.0,0.0,0.0,0.0,0.0,0.0,0.0,0.0,0.0,0.0,0.0,0.0,0.0,0.0,-1.7139,-1.7554,-1.7959,0.0,0.0,0.0,0.0,0.0,-1.7294,-1.7066,-1.6335,-1.6004,-1.5756,-1.5514,-1.5431,-1.5431,-1.5431,-1.5431,-1.5431,-1.5431,-1.5431,-1.5431,-1.5431,-1.5431,-1.5431,-1.5506,-1.5839,-1.6087,-1.6162,-1.6492,-1.673,-1.673,-1.704,-1.7397,-1.7723,-1.8073,-1.843,-1.8788,-1.8827,-1.8827,-1.8827,-1.8947,-1.9212,-1.9769,-1.9975,-2.0404,-2.1259,-2.2224,-2.2841,-2.2974,-2.3817,-2.4152,-2.4152,-2.4152,-2.4152,-2.4152,-2.4152,-2.4152,-2.4152,-2.4152,-2.4152,-2.4152,-2.4152,-2.4152,-2.4152,-2.4152,-2.4152,-2.4152,-2.4152,-2.4152,-2.4152,-2.4152,-2.4152,-2.4152,0.0,0.0,0.0,0.0,0.0,0.0,0.0,0.0,0.0,0.0,0.0,0.0,0.0,0.0,0.0,0.0,0.0,0.0,0.0,0.0,0.0,0.0,0.0,0.0,0.0,0.0,0.0,0.0,0.0,0.0,0.0,0.0,0.0,0.0,0.0,0.0,0.0,0.0,0.0,0.0,0.0,0.0,-1.7781,-1.8273,0.0,0.0,0.0,0.0,0.0,0.0,-1.7546,-1.7229,-1.6335,-1.5763,-1.5431,-1.5431,-1.5431,-1.5431,-1.5431,-1.5431,-1.5431,-1.5431,-1.5431,-1.5431,-1.5431,-1.5431,-1.5423,-1.5658,-1.5914,-1.617,-1.6394,-1.6566,-1.673,-1.673,-1.7056,-1.7413,-1.7723,-1.8089,-1.8446,-1.8788,-1.8827,-1.8835,-1.8851,-1.9169,-1.966,-2.0149,-2.0157,-2.0654,-2.1953,-2.2504,-2.2974,-2.3438,-2.3954,-2.4152,-2.4152,-2.4152,-2.4152,-2.4152,-2.4152,-2.4152,-2.4152,-2.4152,-2.4152,-2.4152,-2.4152,-2.4152,-2.4152,-2.4152,-2.4152,-2.4152,-2.4152,-2.4152,-2.4152,-2.4152,-2.4152,-2.4152,0.0,0.0,0.0,0.0,0.0,0.0,0.0,0.0,0.0,0.0,0.0,0.0,0.0,0.0,0.0,0.0,0.0,0.0,0.0,0.0,0.0,0.0,0.0,0.0,0.0,0.0,0.0,0.0,0.0,0.0,0.0,0.0,0.0,0.0,0.0,0.0,0.0,0.0,0.0,0.0,0.0,0.0,-1.8505,0.0,0.0,0.0,0.0,0.0,0.0,0.0,-1.7383,-1.6566,-1.6252,-1.5763,-1.5431,-1.5431,-1.5431,-1.5431,-1.5431,-1.5431,-1.5431,-1.5431,-1.5431,-1.5431,-1.5431,-1.5431,-1.5423,-1.5658,-1.5914,-1.617,-1.6394,-1.6566,-1.673,-1.673,-1.7247,-1.7676,-1.7755,-1.8303,-1.8724,-1.8819,-1.8827,-1.8939,-1.9209,-1.9501,-2.0053,-2.0858,-2.09,-2.1285,-2.1987,-2.2758,-2.3249,-2.3447,-2.3954,-2.4152,-2.4152,-2.4152,-2.4152,-2.4152,-2.4152,-2.4152,-2.4152,-2.4152,-2.4152,-2.4152,-2.4152,-2.4152,-2.4152,-2.4152,-2.4152,-2.4152,-2.4152,-2.4152,-2.4152,-2.4152,-2.4152,-2.4152,0.0,0.0,0.0,0.0,0.0,0.0,0.0,0.0,0.0,0.0,0.0,0.0,0.0,0.0,0.0,0.0,0.0,0.0,0.0,0.0,0.0,0.0,0.0,0.0,0.0,0.0,0.0,0.0,0.0,0.0,0.0,0.0,0.0,0.0,0.0,0.0,0.0,0.0,0.0,0.0,0.0,0.0,0.0,0.0,0.0,0.0,0.0,0.0,0.0,0.0,0.0,-1.6394,-1.617,-1.5763,-1.5431,-1.5431,-1.5431,-1.5431,-1.5431,-1.5431,-1.5431,-1.5431,-1.5431,-1.5431,-1.5431,-1.5506,-1.5582,-1.5831,-1.6079,-1.6319,-1.6484,-1.6648,-1.673,-1.673,-1.7318,-1.7771,-1.7771,-1.8383,-1.8827,-1.8827,-1.897,-1.9145,-1.9352,-1.9926,-2.0557,-2.1147,-2.1279,-2.166,-2.2425,-2.3032,-2.3447,-2.3546,-2.3954,-2.4152,-2.4152,-2.4152,-2.4152,-2.4152,-2.4152,-2.4152,-2.4152,-2.4152,-2.4152,-2.4152,-2.4152,-2.4152,-2.4152,-2.4152,-2.4152,-2.4152,-2.4152,-2.4152,-2.4152,-2.4152,-2.4152,-2.4152,0.0,0.0,0.0,0.0,0.0,0.0,0.0,0.0,0.0,0.0,0.0,0.0,0.0,0.0,0.0,0.0,0.0,0.0,0.0,0.0,0.0,0.0,0.0,0.0,0.0,0.0,0.0,0.0,0.0,0.0,0.0,0.0,0.0,0.0,0.0,0.0,0.0,0.0,0.0,0.0,0.0,0.0,0.0,0.0,0.0,0.0,0.0,0.0,0.0,0.0,-1.7123,-1.6484,-1.617,-1.5756,-1.5423,-1.5431,-1.5431,-1.5431,-1.5431,-1.5431,-1.5431,-1.5431,-1.5431,-1.5423,-1.5423,-1.5582,-1.5824,-1.6087,-1.6237,-1.6476,-1.6648,-1.673,-1.673,-1.673,-1.7318,-1.7771,-1.7771,-1.8383,-1.8827,-1.8827,-1.9153,-1.9391,-1.9534,-2.0305,-2.0998,-2.1346,-2.1569,-2.211,-2.2929,-2.3247,-2.3546,-2.3854,-2.4053,-2.4152,-2.4152,-2.4152,-2.4152,-2.4152,-2.4152,-2.4152,-2.4152,-2.4152,-2.4152,-2.4152,-2.4152,-2.4152,-2.4152,-2.4152,-2.4152,-2.4152,-2.4152,-2.4152,-2.4152,-2.4152,-2.4152,-2.4152,0.0,0.0,0.0,0.0,0.0,0.0,0.0,0.0,0.0,0.0,-1.3046,0.0,0.0,0.0,0.0,0.0,0.0,0.0,0.0,0.0,0.0,0.0,0.0,0.0,0.0,0.0,0.0,0.0,0.0,0.0,0.0,0.0,0.0,0.0,0.0,0.0,0.0,0.0,0.0,0.0,0.0,0.0,0.0,0.0,0.0,0.0,0.0,0.0,0.0,0.0,-1.7375,-1.6894,-1.6252,-1.5914,-1.5658,-1.5423,-1.5431,-1.5431,-1.5431,-1.5431,-1.5431,-1.5431,-1.5499,-1.5658,-1.5658,-1.5831,-1.6079,-1.6319,-1.6394,-1.6476,-1.6648,-1.673,-1.673,-1.673,-1.7318,-1.7771,-1.7771,-1.8383,-1.8827,-1.8827,-1.9153,-1.9582,-2.0063,-2.0745,-2.1396,-2.1904,-2.2441,-2.2876,-2.2946,-2.3247,-2.3646,-2.4152,-2.4152,-2.4152,-2.4152,-2.4152,-2.4152,-2.4152,-2.4152,-2.4152,-2.4152,-2.4152,-2.4152,-2.4152,-2.4152,-2.4152,-2.4152,-2.4152,-2.4152,-2.4152,-2.4152,-2.4152,-2.4152,-2.4152,-2.4152,-2.4152,0.0,0.0,0.0,0.0,0.0,0.0,0.0,0.0,0.0,0.0,-1.4091,-1.3622,0.0,0.0,0.0,0.0,0.0,0.0,0.0,0.0,0.0,0.0,0.0,0.0,0.0,0.0,0.0,0.0,0.0,0.0,0.0,0.0,0.0,0.0,0.0,0.0,0.0,0.0,0.0,0.0,0.0,0.0,0.0,0.0,0.0,0.0,0.0,0.0,0.0,0.0,-1.7708,-1.7139,-1.6484,-1.6079,-1.5914,-1.5756,-1.5673,-1.5582,-1.5756,-1.5673,-1.5582,-1.5756,-1.5839,-1.5914,-1.5914,-1.6079,-1.6237,-1.6394,-1.6476,-1.6566,-1.6656,-1.673,-1.673,-1.673,-1.7318,-1.7771,-1.7771,-1.8383,-1.8827,-1.8827,-1.9407,-1.9999,-2.0265,-2.1147,-2.1829,-2.2114,-2.2636,-2.3046,-2.3247,-2.3546,-2.3954,-2.4152,-2.4152,-2.4152,-2.4152,-2.4152,-2.4152,-2.4152,-2.4152,-2.4152,-2.4152,-2.4152,-2.4152,-2.4152,-2.4152,-2.4152,-2.4152,-2.4152,-2.4152,-2.4152,-2.4152,-2.4152,-2.4152,-2.4152,-2.4152,-2.4152,0.0,0.0,0.0,0.0,0.0,0.0,0.0,-1.5668,-1.5364,-1.5501,-1.5186,-1.4752,-1.4172,-1.4175,-1.4274,0.0,0.0,0.0,0.0,0.0,0.0,0.0,0.0,0.0,0.0,0.0,0.0,-1.9618,-1.9618,0.0,0.0,0.0,0.0,0.0,-2.0566,0.0,0.0,0.0,0.0,0.0,0.0,0.0,0.0,0.0,0.0,0.0,0.0,0.0,0.0,0.0,-1.8031,-1.7392,-1.6804,-1.6409,-1.617,-1.6087,-1.5914,-1.5824,-1.6004,-1.5914,-1.5824,-1.6087,-1.617,-1.617,-1.617,-1.6319,-1.6476,-1.6476,-1.6566,-1.673,-1.673,-1.6738,-1.6812,-1.6812,-1.7403,-1.7945,-1.7945,-1.8563,-1.8928,-1.8928,-1.9844,-2.0378,-2.0475,-2.1503,-2.2131,-2.2333,-2.2846,-2.3247,-2.3447,-2.3954,-2.4152,-2.4152,-2.4152,-2.4152,-2.4152,-2.4152,-2.4152,-2.4152,-2.4152,-2.4152,-2.4152,-2.4152,-2.4152,-2.4152,-2.4152,-2.4152,-2.4152,-2.4152,-2.4152,-2.4152,-2.4152,-2.4152,-2.4152,-2.4152,-2.4152,-2.4152,0.0,0.0,0.0,0.0,0.0,0.0,0.0,-1.6789,-1.671,-1.6607,-1.6228,-1.5993,-1.6147,-1.5194,-1.4705,0.0,0.0,0.0,0.0,0.0,0.0,0.0,0.0,0.0,0.0,0.0,0.0,-2.0479,-2.0479,0.0,0.0,0.0,0.0,0.0,0.0,-2.1128,-2.1128,0.0,0.0,0.0,0.0,0.0,0.0,0.0,0.0,0.0,0.0,0.0,0.0,0.0,0.0,-1.7878,-1.7473,-1.6894,-1.6319,-1.6162,-1.6087,-1.6087,-1.6087,-1.6087,-1.6087,-1.6087,-1.6245,-1.6394,-1.6394,-1.6566,-1.6648,-1.6648,-1.6648,-1.673,-1.673,-1.6894,-1.7057,-1.7057,-1.7826,-1.8473,-1.8473,-1.9117,-1.9496,-1.9496,-2.0223,-2.0757,-2.1046,-2.1702,-2.2333,-2.2846,-2.3447,-2.3755,-2.3755,-2.4053,-2.4152,-2.4152,-2.4152,-2.4152,-2.4152,-2.4152,-2.4152,-2.4152,-2.4152,-2.4152,-2.4152,-2.4152,-2.4152,-2.4152,-2.4152,-2.4152,-2.4152,-2.4152,-2.4152,-2.4152,-2.4152,-2.4152,-2.4152,-2.4152,-2.4152,-2.4152,0.0,0.0,0.0,0.0,0.0,0.0,0.0,-1.7296,-1.7267,-1.7355,-1.7162,-1.6994,-1.7077,-1.6781,-1.6349,0.0,0.0,0.0,0.0,0.0,0.0,0.0,0.0,0.0,0.0,0.0,-2.0964,-2.1339,-2.1339,0.0,0.0,0.0,0.0,0.0,0.0,-2.1959,-2.1959,0.0,0.0,0.0,0.0,0.0,0.0,0.0,0.0,0.0,0.0,0.0,-1.9557,-1.9143,0.0,0.0,-1.7797,-1.7392,0.0,0.0,-1.6484,-1.6319,-1.6409,-1.6409,-1.6319,-1.6409,-1.6484,-1.6566,-1.6566,-1.673,-1.6976,-1.6976,-1.7066,-1.7147,-1.7147,-1.7229,-1.731,-1.731,-1.7994,-1.8473,-1.8473,-1.9117,-1.9587,-1.9587,-2.0412,-2.095,-2.1046,-2.2008,-2.2846,-2.3447,-2.3646,-2.3845,-2.4053,-2.4152,-2.4152,-2.4152,-2.4152,-2.4152,-2.4152,-2.4152,-2.4152,-2.4152,-2.4152,-2.4152,-2.4152,-2.4152,-2.4152,-2.4152,-2.4152,-2.4152,-2.4152,-2.4152,-2.4152,-2.4152,-2.4152,-2.4152,-2.4152,-2.4152,-2.4053,-2.3954,0.0,0.0,0.0,0.0,0.0,0.0,-1.7861,-1.78,-1.7874,-1.8118,-1.7947,-1.7859,-1.8001,-1.8043,-1.7733,-1.7009,0.0,0.0,0.0,0.0,0.0,0.0,0.0,0.0,0.0,0.0,-2.1731,-2.2101,-2.2101,-2.2176,0.0,0.0,-2.2402,-2.2402,0.0,0.0,0.0,0.0,0.0,0.0,0.0,0.0,0.0,0.0,0.0,0.0,0.0,0.0,0.0,0.0,0.0,0.0,0.0,0.0,0.0,0.0,-1.6976,-1.673,-1.6894,-1.6812,-1.673,-1.6894,-1.6902,-1.6902,-1.6902,-1.7057,-1.7221,-1.7221,-1.731,-1.7392,-1.7392,-1.7473,-1.7473,-1.7473,-1.8071,-1.8606,-1.8715,-1.9196,-1.9645,-1.9754,-2.0593,-2.1207,-2.1318,-2.2493,-2.3347,-2.3746,-2.3845,-2.3954,-2.4152,-2.4152,-2.4152,-2.4152,-2.4152,-2.4152,-2.4152,-2.4152,-2.4152,-2.4152,-2.4152,-2.4152,-2.4152,-2.4152,-2.4152,-2.4152,-2.4152,-2.4152,-2.4152,-2.4152,-2.4152,-2.4152,-2.4152,-2.4152,-2.4152,-2.4152,-2.3954,-2.3755,0.0,0.0,0.0,0.0,0.0,0.0,0.0,-1.8353,-1.8514,-1.8913,-1.8659,-1.8561,-1.8917,-1.8639,-1.8544,-1.8956,0.0,0.0,0.0,0.0,0.0,0.0,0.0,0.0,0.0,0.0,0.0,-2.2703,-2.2927,-2.3001,-2.3001,-2.3001,-2.3001,-2.3001,0.0,0.0,0.0,0.0,0.0,0.0,0.0,0.0,0.0,0.0,0.0,0.0,0.0,0.0,0.0,0.0,0.0,0.0,0.0,0.0,0.0,0.0,-1.7392,-1.7392,-1.7392,-1.7392,-1.7392,-1.7392,-1.7392,-1.7392,-1.7392,-1.7392,-1.7392,-1.7392,-1.7392,-1.7392,-1.7392,-1.7546,-1.77,-1.77,-1.8175,-1.8725,-1.9119,-1.9504,-1.9889,-2.0249,-2.0819,-2.1386,-2.1752,-2.2984,-2.3746,-2.3755,-2.4053,-2.4152,-2.4152,-2.4152,-2.4152,-2.4152,-2.4152,-2.4152,-2.4152,-2.4152,-2.4152,-2.4152,-2.4152,-2.4152,-2.4152,-2.4152,-2.4152,-2.4152,-2.4152,-2.4152,-2.4152,-2.4152,-2.4152,-2.4152,-2.4152,-2.4152,-2.4152,-2.3854,-2.3755,-2.3646,0.0,0.0,0.0,0.0,0.0,0.0,0.0,-1.8683,-1.8843,-1.9002,-1.9131,-1.9293,-1.9362,-1.9552,-1.9784,-2.007,0.0,0.0,0.0,0.0,0.0,0.0,0.0,0.0,0.0,0.0,0.0,0.0,-2.3446,-2.3446,-2.3593,-2.3446,-2.3372,-2.3372,-2.3372,-2.3298,0.0,0.0,0.0,0.0,0.0,0.0,0.0,0.0,0.0,0.0,0.0,0.0,0.0,0.0,0.0,0.0,0.0,0.0,0.0,0.0,0.0,0.0,-1.7392,-1.7392,-1.7392,-1.7392,-1.7392,-1.7392,-1.7392,-1.7546,-1.7619,-1.7619,-1.787,-1.8121,-1.8121,-1.8282,-1.8362,-1.8362,-1.8757,-1.9143,-1.9545,-1.993,-2.0307,-2.0683,-2.1397,-2.215,-2.2636,-2.3341,-2.3854,-2.4053,-2.4152,-2.4152,-2.4152,-2.4152,-2.4152,-2.4152,-2.4152,-2.4152,-2.4152,-2.4152,-2.4152,-2.4152,-2.4152,-2.4251,-2.444,-2.444,-2.4538,-2.4646,-2.4646,-2.4646,-2.4646,-2.4646,-2.4538,-2.444,-2.444,-2.4242,-2.3954,-2.3845,-2.3438,-2.2837,0.0,0.0,0.0,0.0,0.0,0.0,0.0,-1.8922,-1.9082,-1.924,-1.9399,-1.9645,-1.9872,-2.0186,-2.0576,-2.0876,0.0,0.0,0.0,0.0,0.0,0.0,0.0,0.0,0.0,0.0,0.0,0.0,0.0,-2.4127,-2.4273,-2.4116,-2.397,-2.397,-2.3824,-2.3751,0.0,0.0,0.0,0.0,0.0,0.0,-2.2927,0.0,0.0,0.0,0.0,0.0,0.0,0.0,0.0,0.0,0.0,0.0,0.0,0.0,-1.8371,-1.7878,0.0,-1.7878,-1.7878,-1.7878,-1.7878,-1.7878,-1.7878,0.0,-1.8112,-1.8112,-1.8282,-1.8523,-1.8523,-1.8612,-1.87,-1.87,-1.8896,-1.9232,-1.9697,-1.998,-2.0412,-2.1033,-2.1883,-2.2559,-2.3003,-2.3626,-2.4053,-2.4152,-2.4152,-2.4152,-2.4152,-2.4251,-2.4341,-2.4341,-2.4251,-2.4152,-2.4152,-2.4251,-2.4341,-2.4341,-2.4449,-2.4548,-2.4627,-2.4627,-2.4735,-2.4932,-2.4932,-2.4932,0.0,-2.4833,-2.4627,-2.4538,-2.444,-2.4143,-2.3746,-2.3538,-2.2941,-2.2212,0.0,0.0,0.0,0.0,0.0,0.0,0.0,0.0,0.0,0.0,-1.9645,-1.9794,-2.0264,-2.0489,-2.0876,0.0,0.0,0.0,0.0,0.0,0.0,0.0,0.0,0.0,0.0,0.0,0.0,-2.4562,-2.4718,-2.479,-2.479,0.0,-2.4718,-2.449,-2.4345,0.0,0.0,0.0,0.0,0.0,0.0,0.0,0.0,0.0,0.0,0.0,0.0,0.0,0.0,0.0,0.0,0.0,0.0,0.0,0.0,0.0,0.0,0.0,0.0,-1.87,-1.87,-1.87,-1.87,-1.87,0.0,0.0,0.0,0.0,0.0,-1.87,-1.87,-1.87,-1.8772,-1.8772,-1.8772,-1.8958,-1.9711,-1.9862,-2.0268,-2.1302,-2.2152,-2.2623,-2.2857,-2.3657,-2.4115,-2.4152,-2.4251,-2.4251,-2.4251,-2.444,-2.4538,-2.4538,-2.435,-2.4251,-2.4251,-2.444,-2.4538,-2.4529,-2.4735,-2.4932,-2.4932,-2.4932,-2.4932,-2.4932,-2.4932,-2.4932,-2.4932,-2.4637,-2.4538,-2.4538,-2.4242,-2.4035,-2.3601,-2.3094,-2.2443,-2.1722,0.0,0.0,0.0,0.0,0.0,0.0,0.0,0.0,0.0,0.0,-1.9872,-2.0264,-2.0489,-2.0731,0.0,0.0,0.0,0.0,0.0,0.0,0.0,0.0,0.0,0.0,0.0,0.0,0.0,-2.4981,-2.4861,-2.4861,-2.5052,-2.4861,0.0,0.0,0.0,0.0,0.0,0.0,0.0,0.0,0.0,0.0,0.0,0.0,0.0,0.0,-2.2777,-2.2327,0.0,0.0,0.0,0.0,0.0,0.0,0.0,0.0,-1.9408,-1.932,-1.9231,0.0,-1.87,-1.87,-1.87,-1.87,0.0,0.0,0.0,0.0,0.0,0.0,0.0,-1.9073,-1.9152,-1.9152,-1.9152,-1.9334,-1.9834,-2.0425,-2.0989,-2.1587,-2.208,-2.2501,-2.2829,-2.34,-2.3813,-2.4134,-2.4341,-2.444,-2.444,-2.4637,-2.4833,-2.4833,-2.4735,-2.4735,-2.4735,-2.4735,-2.4833,-2.4833,-2.4833,-2.5039,-2.5235,-2.5235,-2.5333,-2.5538,-2.5538,-2.5538,-2.5538,-2.5235,-2.503,-2.4735,-2.4332,-2.3547,-2.2689,-2.2386,-2.1467,-2.037,0.0,0.0,0.0,0.0,0.0,0.0,0.0,0.0,0.0,0.0,0.0,0.0,0.0,0.0,0.0,0.0,0.0,0.0,0.0,0.0,0.0,0.0,0.0,0.0,0.0,0.0,0.0,0.0,0.0,-2.5123,0.0,0.0,0.0,0.0,0.0,0.0,0.0,0.0,0.0,0.0,-2.4189,0.0,0.0,0.0,0.0,0.0,-2.3075,-2.2703,0.0,-2.1959,-2.1492,-2.1108,0.0,0.0,0.0,0.0,-1.9636,-1.9566,-1.9469,-1.9231,-1.9002,-1.9002,-1.9002,-1.9002,-1.9002,0.0,0.0,0.0,0.0,0.0,0.0,-1.9231,-1.9301,-1.9301,-1.9301,-1.9512,-2.0118,-2.0723,-2.1264,-2.1686,-2.2089,-2.2419,-2.2648,-2.3294,-2.3832,-2.4054,-2.4436,-2.4637,-2.4637,-2.4932,-2.5039,-2.5039,-2.5034,-2.4927,-2.4932,-2.4849,-2.4851,-2.4851,-2.4737,-2.4737,-2.4937,-2.4937,-2.4937,-2.5127,-2.5127,-2.5042,-2.4946,-2.4651,-2.4364,-2.3979,-2.3584,-2.2867,-2.1907,-2.151,-2.0693,-1.9622,0.0,0.0,0.0,0.0,0.0,0.0,0.0,0.0,0.0,0.0,0.0,0.0,0.0,0.0,0.0,0.0,0.0,0.0,0.0,0.0,0.0,0.0,0.0,0.0,0.0,0.0,0.0,0.0,0.0,0.0,0.0,0.0,-2.5241,0.0,0.0,0.0,0.0,0.0,0.0,0.0,-2.479,0.0,0.0,0.0,0.0,0.0,0.0,0.0,0.0,-2.2252,-2.1959,-2.1731,-2.1031,0.0,0.0,0.0,0.0,0.0,-1.9645,-1.9478,-1.9301,-1.9301,-1.9301,-1.9301,-1.9301,0.0,0.0,0.0,0.0,0.0,0.0,-1.9301,-1.9301,-1.9301,-1.9301,-1.9586,-2.0402,-2.0805,-2.12,-2.1676,-2.2034,-2.2354,-2.241,-2.3233,-2.3774,-2.3839,-2.4513,-2.4837,-2.4837,-2.513,-2.5237,-2.5237,-2.51,-2.4956,-2.483,-2.4689,-2.4612,-2.4612,-2.4507,-2.4414,-2.4414,-2.4414,-2.4414,-2.4414,-2.4414,0.0,-2.4054,-2.3765,-2.3402,-2.2933,-2.265,-2.2046,-2.1241,-2.0745,-1.9933,-1.9067,0.0,0.0,0.0,0.0,0.0,0.0,0.0,0.0,0.0,0.0,0.0,0.0,0.0,0.0,0.0,0.0,0.0,0.0,0.0,0.0,0.0,0.0,0.0,0.0,0.0,0.0,0.0,0.0,0.0,0.0,-2.5535,-2.5382,-2.5241,-2.5123,0.0,0.0,-2.479,-2.479,-2.479,-2.479,-2.479,0.0,0.0,0.0,0.0,0.0,0.0,0.0,0.0,-2.2927,-2.2628,-2.2252,-2.1721,0.0,0.0,0.0,0.0,0.0,-1.9942,-1.9715,-1.9478,-1.9301,-1.9301,-1.9301,-1.9301,0.0,0.0,0.0,0.0,0.0,0.0,-1.9301,-1.9301,-1.9301,-1.9301,-1.9586,-2.0402,-2.0567,-2.0973,-2.1915,-2.2063,-2.232,-2.2828,-2.307,-2.3306,-2.3692,-2.4383,-2.4718,-2.4718,-2.4985,-2.5166,-2.5166,-2.4746,-2.4458,-2.4516,-2.4458,-2.4429,-2.4429,-2.4453,-2.4414,-2.4414,-2.4414,-2.4414,-2.4414,0.0,-2.4331,-2.4054,-2.3765,-2.3402,-2.2933,-2.2167,-2.1406,-2.0559,-1.989,-1.9005,-1.8163,0.0,0.0,0.0,0.0,0.0,0.0,0.0,0.0,0.0,0.0,0.0,0.0,0.0,0.0,0.0,0.0,0.0,0.0,0.0,0.0,0.0,0.0,0.0,0.0,0.0,0.0,0.0,0.0,0.0,-2.5688,-2.5606,-2.5382,-2.5241,-2.5182,0.0,0.0,-2.5052,-2.4992,-2.4981,-2.5052,0.0,0.0,0.0,0.0,0.0,0.0,0.0,0.0,0.0,0.0,-2.315,-2.2777,-2.2252,0.0,0.0,0.0,0.0,0.0,-2.0333,-2.002,-1.9715,-1.9469,-1.9381,-1.9301,-1.9301,0.0,0.0,0.0,0.0,0.0,0.0,-1.9618,-1.9618,-1.9618,-1.9618,-1.9906,-2.0736,-2.0848,-2.124,-2.2171,-2.2264,-2.234,-2.2608,-2.3005,-2.3324,-2.3534,-2.4111,-2.4539,-2.4539,-2.4623,-2.4717,-2.4717,-2.4297,-2.4082,-2.4082,-2.3838,-2.3838,-2.4072,-2.3838,-2.373,-2.373,-2.373,-2.373,-2.373,0.0,-2.3461,-2.319,-2.2919,-2.2464,-2.1814,-2.127,-2.0509,-1.9709,-1.8785,-1.8036,-1.7441,0.0,0.0,0.0,0.0,0.0,0.0,0.0,0.0,0.0,0.0,0.0,0.0,0.0,0.0,0.0,0.0,0.0,0.0,0.0,0.0,0.0,0.0,0.0,0.0,0.0,0.0,-2.627,-2.627,-2.6062,-2.5828,-2.5606,-2.5465,-2.5382,0.0,0.0,0.0,-2.5312,-2.5182,-2.5182,-2.5312,0.0,0.0,0.0,0.0,0.0,0.0,0.0,0.0,0.0,0.0,0.0,0.0,0.0,0.0,0.0,-2.1807,-2.1349,-2.0876,-2.0799,-2.0411,-2.002,-1.9794,0.0,-1.939,-1.939,0.0,0.0,0.0,0.0,0.0,0.0,-1.9863,-1.9863,-1.9863,-1.9863,-2.0235,-2.1059,-2.1182,-2.1494,-2.2425,-2.253,-2.253,-2.253,-2.2993,-2.3364,-2.3364,-2.3933,-2.4268,-2.4268,-2.4268,-2.4268,-2.4268,-2.3857,-2.3633,-2.3633,-2.3301,-2.3301,-2.3633,-2.3301,-2.3135,-2.3135,-2.3135,-2.3135,-2.3135,-2.3047,-2.2794,-2.2353,-2.2097,-2.1553,-2.0907,-2.0374,-1.9646,-1.8819,-1.8001,-1.7448,-1.6979,0.0,0.0,0.0,0.0,0.0,0.0,0.0,0.0,0.0,0.0,0.0,0.0,0.0,0.0,0.0,0.0,0.0,0.0,0.0,0.0,0.0,0.0,0.0,0.0,0.0,-2.6465,-2.6465,-2.6465,-2.627,-2.598,-2.5606,-2.5606,-2.5465,-2.5312,0.0,0.0,-2.5312,-2.5312,-2.5312,-2.5312,-2.5312,0.0,0.0,0.0,0.0,0.0,0.0,0.0,0.0,0.0,0.0,0.0,0.0,0.0,-2.2852,-2.2478,-2.2025,-2.1655,-2.1282,-2.0886,-2.0489,-2.0264,0.0,0.0,-1.9566,-1.9566,0.0,-1.9863,0.0,0.0,0.0,-1.9863,-1.9863,-1.9863,-1.9863,-2.0235,-2.1059,-2.1182,-2.1579,-2.261,-2.2794,-2.2794,-2.3047,-2.3076,-2.3096,-2.3096,-2.3594,-2.3838,-2.3838,-2.3838,-2.3838,-2.3838,-2.3408,-2.3184,-2.3184,-2.3154,-2.3154,-2.3184,-2.3154,-2.3135,-2.3135,-2.3135,-2.3135,-2.3057,-2.2882,-2.2618,-2.2353,-2.1909,-2.1374,-2.0654,-2.011,-1.9188,-1.8179,-1.7815,-1.7448,-1.6979,0.0,0.0,0.0,0.0,0.0,0.0,0.0,0.0,0.0,0.0,0.0,0.0,0.0,0.0,0.0,0.0,0.0,0.0,0.0,0.0,0.0,0.0,0.0,-2.6533,-2.6533,-2.6533,-2.6533,-2.6533,-2.627,-2.6062,-2.5758,-2.5676,0.0,0.0,0.0,0.0,-2.5312,-2.5312,-2.5312,-2.5312,-2.5312,-2.5312,0.0,0.0,0.0,0.0,0.0,0.0,0.0,0.0,-2.4706,-2.4502,0.0,-2.3751,-2.3457,-2.2927,-2.2402,-2.1959,-2.1655,-2.1205,-2.0741,-2.0576,0.0,0.0,0.0,-1.9794,-1.9872,-2.0108,-2.0186,0.0,0.0,-2.0333,-2.0333,-2.0333,-2.0333,-2.0536,-2.1134,-2.1453,-2.1839,-2.2514,-2.2814,-2.3057,-2.3047,-2.3135,-2.3135,-2.3135,-2.3291,-2.3389,-2.3389,-2.3389,-2.3389,-2.3389,-2.3223,-2.3135,-2.3135,-2.3135,-2.3135,-2.3135,-2.3135,-2.3135,-2.3135,-2.3135,-2.3135,-2.3057,-2.2882,-2.2618,-2.2353,-2.1741,-2.1203,-2.0564,-1.9463,-1.855,-1.7815,-1.7441,-1.7066,-1.669,0.0,0.0,0.0,0.0,0.0,0.0,0.0,0.0,0.0,0.0,0.0,0.0,0.0,0.0,0.0,0.0,0.0,0.0,0.0,0.0,0.0,0.0,0.0,-2.6533,-2.6533,-2.6533,-2.6533,-2.6533,-2.6339,-2.6131,-2.591,0.0,0.0,0.0,0.0,0.0,-2.5312,-2.5312,-2.5312,-2.5312,-2.5312,-2.5312,0.0,0.0,0.0,0.0,0.0,0.0,0.0,0.0,-2.4981,0.0,0.0,0.0,0.0,0.0,-2.2777,-2.2252,-2.1959,-2.1425,-2.0984,0.0,0.0,0.0,-2.0177,-2.0098,-2.0108,-2.0333,-2.042,-2.042,-2.0566,-2.0566,-2.0566,-2.0566,-2.0566,-2.0723,-2.1172,-2.1494,-2.1885,-2.2441,-2.2764,-2.2988,-2.3125,-2.3135,-2.3135,-2.3135,-2.3135,-2.3135,-2.3135,-2.3135,-2.3135,-2.3135,-2.3135,-2.3135,-2.3135,-2.3135,-2.3135,-2.3135,-2.3135,-2.3135,-2.3135,-2.3135,-2.3135,-2.3047,-2.2794,-2.253,-2.2264,-2.1553,-2.0835,-2.0102,-1.8812,-1.8087,-1.7628,-1.7167,-1.6784,-1.6588,0.0,0.0,0.0,0.0,0.0,0.0,0.0,0.0,0.0,0.0,0.0,0.0,0.0,0.0,0.0,0.0,0.0,0.0,0.0,0.0,0.0,0.0,0.0,-2.6533,-2.6533,-2.6533,-2.6533,-2.6533,-2.6533,-2.6314,-2.591,-2.591,0.0,0.0,0.0,0.0,0.0,0.0,-2.5312,-2.5312,-2.5312,-2.5312,-2.5312,0.0,0.0,0.0,0.0,0.0,0.0,0.0,-2.5123,0.0,0.0,0.0,0.0,0.0,-2.315,-2.2628,-2.2176,-2.1655,-2.1128,0.0,0.0,0.0,-2.0566,-2.0411,-2.0342,-2.0566,-2.0566,-2.0566,-2.0566,-2.0566,-2.0566,-2.0566,-2.0566,-2.0723,-2.1172,-2.123,-2.1553,-2.2402,-2.251,-2.2676,-2.3086,-2.3135,-2.3135,-2.3135,-2.3135,-2.3135,-2.3135,-2.3135,-2.3135,-2.3135,-2.3135,-2.3135,-2.3135,-2.3135,-2.3135,-2.3135,-2.3135,-2.3135,-2.3135,-2.3135,-2.3135,-2.3057,-2.2608,-2.2264,-2.2008,-2.1275,-2.0275,-1.9096,-1.8365,-1.79,-1.7636,-1.7167,-1.6784,-1.6588,0.0,0.0,0.0,0.0,0.0,0.0,0.0,0.0,0.0,0.0,0.0,0.0,0.0,0.0,0.0,0.0,0.0,0.0,0.0,0.0,0.0,0.0,0.0,0.0,0.0,0.0,-2.6533,-2.6533,-2.6533,-2.6314,0.0,0.0,0.0,-2.5312,0.0,0.0,0.0,0.0,-2.5312,-2.5312,-2.5312,-2.5312,-2.5312,0.0,0.0,0.0,0.0,0.0,0.0,0.0,0.0,0.0,0.0,0.0,0.0,-2.397,-2.3446,-2.3001,-2.2478,-2.1883,0.0,-2.1138,0.0,0.0,0.0,-2.0566,0.0,0.0,-2.0566,-2.0566,-2.0566,-2.0566,-2.0566,-2.0566,-2.0566,-2.0605,-2.0742,-2.1035,-2.1328,-2.1582,-2.1885,-2.2119,-2.2246,-2.2519,-2.2705,-2.2705,-2.2969,-2.3135,-2.3135,-2.3135,-2.3135,-2.3135,-2.3135,-2.3135,-2.3135,-2.3135,-2.3135,-2.3135,-2.3135,-2.3135,-2.3135,-2.3135,-2.3057,-2.2882,-2.253,-2.2176,-2.1741,-2.0654,-1.9646,-1.8635,-1.8265,-1.78,-1.7333,-1.6871,-1.6683,-1.6494,0.0,0.0,0.0,0.0,0.0,0.0,0.0,0.0,0.0,0.0,0.0,0.0,0.0,0.0,0.0,0.0,0.0,0.0,0.0,0.0,0.0,0.0,0.0,0.0,0.0,-2.6533,-2.6533,0.0,0.0,0.0,0.0,0.0,0.0,-2.5312,0.0,-2.5312,0.0,0.0,-2.5312,-2.5312,-2.5312,-2.5312,-2.5312,0.0,0.0,0.0,0.0,0.0,0.0,0.0,0.0,0.0,0.0,0.0,0.0,-2.4043,-2.353,-2.3075,-2.2553,-2.1883,0.0,-2.1205,-2.0886,-2.0566,-2.0566,0.0,0.0,0.0,-2.0566,-2.0566,-2.0566,-2.0566,-2.0566,-2.0566,-2.0566,-2.0566,-2.0566,-2.0801,-2.1035,-2.1211,-2.1465,-2.1699,-2.1865,-2.2119,-2.2266,-2.2266,-2.25,-2.2715,-2.2881,-2.2891,-2.2969,-2.3135,-2.3135,-2.3135,-2.3135,-2.3135,-2.3135,-2.3135,-2.3135,-2.3135,-2.3135,-2.3135,-2.2969,-2.2803,-2.2264,-2.1651,-2.1105,-2.0011,-1.9188,-1.845,-1.8087,-1.7621,-1.7153,-1.6777,-1.6494,-1.64,0.0,0.0,0.0,0.0,0.0,0.0,0.0,0.0,0.0,0.0,0.0,0.0,0.0,0.0,0.0,0.0,0.0,0.0,0.0,0.0,0.0,0.0,0.0,0.0,0.0,0.0,0.0,0.0,0.0,0.0,0.0,0.0,-2.5676,-2.5312,0.0,-2.5312,0.0,0.0,-2.5241,-2.5241,-2.5241,-2.5312,-2.5312,-2.5312,0.0,0.0,0.0,0.0,0.0,0.0,0.0,0.0,0.0,0.0,-2.4646,-2.4043,-2.353,-2.2927,-2.2478,-2.1807,-2.1205,-2.1205,-2.0886,0.0,-2.0566,-2.0566,-2.0566,-2.0566,-2.0566,-2.0566,-2.0566,-2.0566,-2.0566,-2.0566,-2.0566,-2.0566,-2.0566,-2.0566,-2.0713,-2.1123,-2.1172,-2.1328,-2.1728,-2.1807,-2.1826,-2.1826,-2.1865,-2.2051,-2.2432,-2.2461,-2.2646,-2.3066,-2.3086,-2.3096,-2.3135,-2.3135,-2.3135,-2.3135,-2.3135,-2.3135,-2.3135,-2.3047,-2.2969,-2.2618,-2.1741,-2.0934,-2.0201,-1.9463,-1.8912,-1.845,-1.7908,-1.7441,-1.6979,-1.6683,-1.64,-1.613,0.0,0.0,0.0,0.0,0.0,0.0,0.0,0.0,0.0,0.0,0.0,0.0,0.0,0.0,0.0,0.0,0.0,0.0,0.0,0.0,0.0,0.0,0.0,0.0,0.0,0.0,0.0,0.0,0.0,0.0,0.0,0.0,0.0,-2.5312,0.0,-2.5111,0.0,-2.4992,-2.4921,-2.4921,-2.5052,-2.5111,-2.5182,-2.5241,-2.5312,0.0,0.0,0.0,0.0,0.0,0.0,0.0,-2.5111,-2.4992,-2.4646,-2.4043,-2.3593,-2.315,-2.2553,-2.1949,0.0,-2.1205,-2.0886,-2.0566,-2.0566,-2.0566,-2.0566,-2.0566,-2.0566,-2.0566,-2.0566,-2.0566,-2.0566,-2.0566,-2.0566,-2.0566,-2.0566,-2.0566,-2.0596,-2.0703,-2.0713,-2.0742,-2.084,-2.1172,-2.1377,-2.1377,-2.1689,-2.1924,-2.2012,-2.2021,-2.2207,-2.2637,-2.2646,-2.2803,-2.3135,-2.3135,-2.3135,-2.3135,-2.3135,-2.3135,-2.3047,-2.2969,-2.2539,-2.1909,-2.1195,-2.0473,-1.9928,-1.9196,-1.8643,-1.8172,-1.7815,-1.7441,-1.6979,-1.6683,-1.64,-1.613,0.0,0.0,0.0,0.0,0.0,0.0,0.0,0.0,0.0,0.0,0.0,0.0,0.0,0.0,0.0,0.0,0.0,0.0,0.0,0.0,0.0,0.0,0.0,0.0,0.0,0.0,0.0,0.0,0.0,0.0,0.0,0.0,0.0,-2.5182,0.0,-2.5052,0.0,0.0,-2.479,-2.479,-2.4921,-2.4992,-2.4992,-2.5052,-2.5052,-2.5052,-2.5182,0.0,0.0,0.0,0.0,0.0,0.0,0.0,-2.4646,-2.4043,-2.353,-2.3075,-2.2553,0.0,0.0,-2.0964,0.0,-2.0566,-2.0566,-2.0566,-2.0566,-2.0566,-2.0566,-2.0566,-2.0566,-2.0566,-2.0566,-2.0566,-2.0566,-2.0566,-2.0566,-2.0566,-2.0566,-2.0566,-2.0566,-2.0566,-2.0566,-2.0781,-2.0918,-2.0918,-2.1123,-2.1348,-2.1562,-2.1572,-2.1768,-2.2197,-2.2207,-2.2314,-2.2539,-2.2539,-2.2539,-2.2539,-2.2539,-2.2475,-2.2496,-2.2522,-2.2185,-2.1562,-2.0925,-2.0292,-1.9554,-1.892,-1.8365,-1.7908,-1.7621,-1.7246,-1.6784,-1.6683,-1.6305,-1.6028,0.0,0.0,0.0,0.0,0.0,0.0,0.0,0.0,0.0,0.0,0.0,0.0,0.0,0.0,0.0,0.0,0.0,0.0,0.0,0.0,0.0,0.0,0.0,0.0,0.0,0.0,0.0,0.0,0.0,0.0,0.0,0.0,0.0,-2.5052,0.0,0.0,0.0,0.0,-2.4574,-2.4574,-2.4646,-2.4646,-2.4646,-2.4718,-2.4718,-2.479,-2.4992,-2.5052,-2.5052,-2.5182,0.0,0.0,0.0,0.0,-2.4562,-2.4043,-2.3446,-2.2852,-2.2478,0.0,-2.1128,-2.0722,-2.0566,0.0,-2.0566,-2.0566,-2.0566,-2.0566,-2.0566,-2.0566,-2.0566,-2.0566,-2.0566,-2.0566,-2.0566,-2.0566,-2.0566,-2.0566,-2.0566,-2.0566,-2.0566,-2.0566,-2.0566,-2.0566,-2.0566,-2.0566,-2.0566,-2.0732,-2.1103,-2.1123,-2.1318,-2.1758,-2.1777,-2.1807,-2.1885,-2.1885,-2.1885,-2.1885,-2.1875,-2.181,-2.1646,-2.1964,-2.1845,-2.1212,-2.0753,-2.0011,-1.9096,-1.8635,-1.8179,-1.7628,-1.734,-1.6958,-1.6581,-1.6588,-1.6211,-1.5832,0.0,0.0,0.0,0.0,0.0,0.0,0.0,0.0,0.0,0.0,0.0,0.0,0.0,0.0,0.0,0.0,0.0,0.0,-2.6465,0.0,0.0,-2.6533,-2.6533,0.0,0.0,0.0,0.0,0.0,0.0,0.0,0.0,0.0,0.0,-2.479,0.0,0.0,0.0,0.0,0.0,-2.3751,-2.397,-2.4043,-2.4043,-2.4418,-2.4562,-2.4574,-2.479,-2.4861,-2.4861,-2.4861,-2.4861,0.0,0.0,0.0,-2.42,-2.3751,-2.3224,-2.2703,-2.2478,0.0,-2.1128,0.0,-2.0566,-2.0566,0.0,0.0,-2.0566,-2.0566,-2.0566,-2.0566,-2.0566,-2.0566,-2.0566,-2.0566,-2.0566,-2.0566,-2.0566,-2.0566,-2.0566,-2.0566,-2.0566,-2.0566,-2.0566,-2.0566,-2.0566,-2.0566,-2.0566,-2.0596,-2.0654,-2.0654,-2.0859,-2.1309,-2.1318,-2.1504,-2.1885,-2.1885,-2.1885,-2.1885,-2.169,-2.1377,-2.1044,-2.1188,-2.1119,-2.0744,-2.0201,-1.9563,-1.8827,-1.8365,-1.7994,-1.7636,-1.7254,-1.6878,-1.6581,-1.6312,-1.6028,-1.5832,0.0,0.0,0.0,0.0,0.0,0.0,0.0,0.0,0.0,0.0,0.0,0.0,0.0,0.0,0.0,-2.609,-2.6045,-2.6188,-2.6465,-2.6533,-2.6533,-2.6533,-2.6396,-2.627,0.0,0.0,0.0,0.0,0.0,0.0,0.0,-2.4622,-2.4562,0.0,0.0,0.0,0.0,0.0,0.0,-2.3593,-2.3677,-2.3751,-2.3751,-2.3897,-2.397,-2.4043,-2.4189,-2.4273,-2.4345,-2.4574,-2.4574,-2.4418,-2.4345,0.0,0.0,0.0,-2.3001,-2.2553,-2.1883,-2.1359,-2.0974,0.0,-2.0566,-2.0566,-2.0566,-2.0566,-2.0566,-2.0566,-2.0566,-2.0566,-2.0566,-2.0566,-2.0566,-2.0566,-2.0566,-2.0566,-2.0566,-2.0566,-2.0566,-2.0566,-2.0566,-2.0566,-2.0566,-2.0566,-2.0566,-2.0566,-2.0566,-2.0566,-2.0566,-2.0566,-2.0654,-2.0859,-2.0859,-2.0947,-2.1143,-2.1143,-2.1152,-2.0992,-2.0972,-2.0759,-2.0375,-2.0256,-2.021,-2.0153,-1.9827,-1.9279,-1.8635,-1.8087,-1.7628,-1.7261,-1.7073,-1.6697,-1.6407,-1.6224,-1.6028,-1.5832,0.0,0.0,0.0,0.0,0.0,0.0,0.0,0.0,0.0,0.0,0.0,0.0,0.0,0.0,0.0,0.0,-2.5688,-2.598,-2.6396,-2.6396,-2.6396,-2.6396,-2.6201,-2.6062,-2.598,0.0,0.0,0.0,0.0,0.0,-2.42,-2.4043,-2.397,0.0,-2.3897,-2.3751,0.0,0.0,0.0,0.0,0.0,-2.3298,-2.3298,-2.3372,-2.3372,-2.3372,-2.3677,-2.3751,-2.3824,-2.4116,-2.42,-2.4043,-2.397,-2.3824,0.0,0.0,0.0,-2.2252,-2.1359,0.0,-2.0829,-2.0644,-2.0566,-2.0566,0.0,-2.0566,-2.0566,-2.0566,-2.0566,-2.0566,-2.0566,-2.0566,-2.0566,-2.0566,-2.0566,-2.0566,-2.0566,-2.0566,-2.0566,-2.0566,-2.0566,-2.0566,-2.0566,-2.0566,-2.0566,-2.0566,-2.0566,-2.0566,-2.0566,-2.0566,-2.0566,-2.0566,-2.0566,-2.0566,-2.0566,-2.0566,-2.0411,-2.0274,-2.0263,-2.0012,-1.9625,-1.934,-1.9162,-1.9104,-1.9216,-1.8867,-1.8233,-1.777,-1.7347,-1.6979,-1.6885,-1.6508,-1.6224,-1.6123,-1.5933,-1.5832,0.0,0.0,0.0,0.0,0.0,0.0,0.0,0.0,0.0,0.0,0.0,0.0,-2.5761,-2.5622,-2.5465,-2.536,-2.5535,-2.5758,-2.6201,-2.6201,-2.6201,-2.6201,-2.598,0.0,-2.5382,0.0,0.0,0.0,0.0,0.0,-2.42,-2.3593,-2.3224,-2.3075,-2.3075,-2.3075,-2.3001,0.0,0.0,0.0,0.0,-2.2478,-2.2478,-2.2703,-2.2777,-2.2777,-2.3224,-2.3298,-2.3372,-2.3604,-2.3666,-2.3593,-2.3372,-2.3224,-2.3001,0.0,0.0,0.0,-2.1061,-2.0906,0.0,-2.0644,-2.0566,-2.0566,-2.0566,-2.0566,-2.0566,-2.0566,-2.0566,-2.0566,-2.0566,-2.0566,-2.0566,-2.0566,-2.0566,-2.0566,-2.0566,-2.0566,-2.0566,-2.0566,-2.0566,-2.0566,-2.0566,-2.0566,-2.0566,-2.0566,-2.0566,-2.0566,-2.0566,-2.0566,-2.0566,-2.0566,-2.0566,-2.0566,-2.0566,-2.042,-2.0342,-2.0264,-1.9645,-1.917,-1.878,-1.8689,-1.8221,-1.7451,-1.8121,-1.8057,-1.7629,-1.7394,-1.7153,-1.6979,-1.6414,-1.6224,-1.613,-1.5927,-1.5832,-1.5832,0.0,0.0,0.0,0.0,0.0,0.0,0.0,0.0,0.0,0.0,0.0,0.0,0.0,-2.4985,-2.4966,-2.5123,-2.5465,-2.5688,-2.598,-2.5992,-2.5992,-2.5992,-2.5688,-2.5453,-2.5312,0.0,0.0,0.0,0.0,-2.397,-2.3457,-2.3224,-2.2927,-2.2628,-2.2777,-2.2703,-2.2628,-2.2478,0.0,0.0,-2.2252,-2.2176,-2.2252,-2.2252,-2.2327,-2.2327,-2.2628,-2.2703,-2.2777,-2.2927,-2.2927,-2.2852,-2.2927,-2.2777,-2.2553,-2.2252,-2.1731,-2.1215,-2.0984,0.0,0.0,-2.0644,-2.0566,-2.0566,-2.0566,-2.0566,-2.0566,-2.0566,-2.0566,-2.0566,-2.0566,-2.0566,-2.0566,-2.0566,-2.0566,-2.0566,-2.0566,-2.0566,-2.0566,-2.0566,-2.0566,-2.0566,-2.0566,-2.0566,-2.0566,-2.0566,-2.0566,-2.0566,-2.0566,-2.0566,-2.0566,-2.0566,-2.0566,-2.0566,-2.042,-2.0342,-2.0108,-1.9627,-1.9381,-1.8904,-1.8273,-1.7924,-1.7499,-1.687,-1.6822,-1.6785,-1.6833,-1.6803,-1.6579,-1.6237,-1.6243,-1.6123,-1.5927,-1.5832,-1.5832,-1.5832,0.0,0.0,0.0,0.0,0.0,0.0,0.0,0.0,0.0,0.0,0.0,0.0,0.0,0.0,-2.4562,-2.5052,-2.5324,-2.5606,-2.5758,-2.5758,-2.5688,-2.5688,-2.5324,-2.504,-2.4957,0.0,0.0,0.0,0.0,0.0,0.0,-2.2777,-2.2553,-2.2176,-2.2252,-2.2252,0.0,0.0,-2.2035,-2.1959,-2.1883,-2.1807,-2.1807,-2.1807,-2.1807,-2.1807,-2.2035,-2.2101,-2.2101,-2.2327,-2.2327,-2.2176,-2.2252,-2.2176,-2.1949,-2.1589,-2.1205,-2.0906,-2.0819,0.0,0.0,0.0,-2.0566,-2.0566,-2.0566,-2.0566,-2.0566,-2.0566,-2.0566,-2.0566,-2.0566,-2.0566,-2.0566,-2.0566,-2.0566,-2.0566,-2.0566,-2.0566,-2.0566,-2.0566,-2.0566,-2.0566,-2.0566,-2.0566,-2.0566,-2.0566,-2.0566,-2.0566,-2.0566,-2.0566,-2.0566,-2.0489,-2.0489,-2.0411,-2.0186,-2.002,-1.9706,-1.9301,-1.8984,-1.8505,-1.7797,-1.7392,-1.682,-1.6245,-1.5881,-1.5899,-1.6228,-1.6109,-1.5882,-1.565,-1.5858,-1.5785,-1.5698,-1.5792,-1.5832,-1.5832,0.0,0.0,0.0,0.0,0.0,0.0,0.0,0.0,0.0,0.0,0.0,0.0,0.0,0.0,0.0,-2.504,-2.5182,-2.5382,-2.5535,-2.5382,-2.5312,-2.5312,-2.4992,-2.4574,-2.42,0.0,0.0,0.0,0.0,0.0,0.0,0.0,-2.1959,-2.1807,-2.1578,-2.1589,-2.1731,0.0,-2.1359,-2.1205,-2.1205,-2.1205,-2.1205,-2.1205,-2.1205,-2.1205,-2.1436,-2.1512,-2.1512,-2.1731,-2.1807,-2.1731,-2.1578,-2.1359,-2.1128,-2.0984,-2.0906,-2.0829,0.0,0.0,0.0,-2.0566,-2.0566,-2.0566,-2.0566,-2.0566,-2.0566,-2.0566,-2.0566,-2.0566,-2.0566,-2.0566,-2.0566,-2.0566,-2.0566,-2.0566,-2.0566,-2.0566,-2.0566,-2.0566,-2.0566,-2.0566,-2.0566,-2.0566,-2.0566,-2.0566,-2.0566,-2.0566,-2.0566,-2.0566,-2.0489,-2.0342,-2.0264,-2.0186,-1.9863,-1.946,-1.9301,-1.9222,-1.8434,-1.7797,-1.7392,-1.6902,-1.6229,-1.5394,-1.5394,-1.557,-1.5806,-1.5422,-1.528,-1.5308,-1.5355,-1.5384,-1.5418,-1.5712,-1.5812,-1.5818,0.0,0.0,0.0,0.0,0.0,0.0,0.0,0.0,0.0,0.0,0.0,0.0,-2.385,-2.4134,-2.449,-2.4634,-2.4849,-2.4921,-2.5004,-2.4992,-2.4849,-2.4694,-2.449,-2.4273,-2.397,0.0,0.0,0.0,0.0,0.0,0.0,0.0,0.0,0.0,-2.1349,-2.1205,-2.1128,-2.1205,-2.1282,-2.1205,-2.1061,-2.0984,-2.0984,-2.0984,-2.0984,-2.0984,-2.1205,-2.1282,-2.1282,-2.1359,-2.1359,-2.1359,-2.1282,-2.1128,-2.0984,-2.0906,-2.0819,-2.0654,-2.0644,0.0,0.0,0.0,0.0,0.0,-2.0566,-2.0566,-2.0566,-2.0566,-2.0566,-2.0566,-2.0566,-2.0566,-2.0566,-2.0566,-2.0566,-2.0566,-2.0566,-2.0566,-2.0566,-2.0566,-2.0566,-2.0566,-2.0566,-2.0566,-2.0566,-2.0566,-2.0566,-2.0566,-2.0566,-2.0489,-2.0342,-2.0264,-2.0098,-1.9863,-1.946,-1.9381,-1.8984,-1.8353,-1.7951,-1.7465,-1.6902,-1.6237,-1.5733,-1.5394,-1.4894,-1.4699,-1.4796,-1.495,-1.4906,-1.4751,-1.5053,-1.5084,-1.5117,-1.5411,-1.5518,-1.5545,0.0,0.0,0.0,0.0,0.0,0.0,0.0,0.0,0.0,0.0,0.0,0.0,-2.3479,-2.3897,-2.42,-2.4345,-2.449,-2.4574,-2.4646,-2.4574,-2.449,-2.4273,-2.4055,-2.3824,-2.353,0.0,0.0,0.0,0.0,0.0,0.0,0.0,0.0,0.0,0.0,0.0,0.0,-2.0886,-2.0964,-2.0964,-2.0819,-2.0741,-2.0741,-2.0741,-2.0741,-2.0819,-2.0886,-2.0964,-2.0964,-2.0964,-2.0964,-2.0964,-2.0964,-2.0896,-2.0741,-2.0741,-2.0654,-2.0566,-2.0566,-2.0566,-2.0566,-2.0566,0.0,0.0,-2.0566,-2.0566,-2.0566,-2.0566,-2.0566,-2.0566,-2.0566,-2.0566,-2.0566,-2.0566,-2.0566,-2.0566,-2.0566,-2.0566,-2.0566,-2.0566,-2.0566,-2.0566,-2.0566,-2.0566,-2.0566,-2.0566,-2.0566,-2.0566,-2.0489,-2.0264,-2.002,-1.9863,-1.9696,-1.939,-1.8913,-1.8825,-1.8434,-1.7716,-1.7465,-1.6968,-1.6237,-1.5816,-1.5394,-1.4977,-1.4559,-1.4314,-1.425,-1.4525,-1.4428,-1.4369,-1.4663,-1.4776,-1.4816,-1.5104,-1.5291,-1.5424,0.0,0.0,0.0,0.0,0.0,0.0,0.0,0.0,0.0,0.0,0.0,0.0,-2.3298,-2.3446,-2.374,-2.4127,-2.4116,-2.42,-2.4418,-2.42,-2.4043,-2.3824,-2.3604,-2.3372,-2.2927,-2.2927,0.0,0.0,0.0,0.0,0.0,0.0,0.0,0.0,0.0,0.0,0.0,-2.0566,-2.0566,-2.0566,-2.0566,-2.0566,-2.0566,-2.0566,-2.0566,-2.0566,-2.0566,-2.0566,-2.0566,-2.0566,-2.0566,-2.0566,-2.0566,-2.0566,-2.0566,-2.0566,-2.0566,-2.0566,-2.0566,-2.0566,0.0,-2.0566,-2.0566,0.0,-2.0566,-2.0566,-2.0566,-2.0566,-2.0566,-2.0566,-2.0566,-2.0566,-2.0566,-2.0566,-2.0566,-2.0566,-2.0566,-2.0566,-2.0566,-2.0566,-2.0566,-2.0566,-2.0566,-2.0566,-2.0566,-2.0566,-2.0566,-2.0489,-2.0264,-2.0029,-1.9706,-1.9301,-1.9222,-1.8913,-1.8362,-1.8031,-1.7716,-1.731,-1.6812,-1.6237,-1.565,-1.5394,-1.4977,-1.4398,-1.4398,-1.4243,-1.4088,-1.4088,-1.4088,-1.4115,-1.4369,-1.4476,-1.4509,-1.4803,-1.5077,-1.5311,-2.3135,0.0,0.0,0.0,0.0,0.0,0.0,0.0,0.0,0.0,0.0,0.0,-2.3298,-2.3446,-2.3604,-2.3677,-2.3751,-2.3751,-2.374,-2.3751,-2.353,-2.3224,-2.315,-2.2927,-2.2553,-2.2553,-2.2327,0.0,0.0,0.0,0.0,0.0,0.0,0.0,0.0,0.0,0.0,-2.0566,-2.0566,-2.0566,-2.0566,-2.0566,-2.0566,-2.0566,-2.0566,-2.0566,-2.0566,-2.0566,-2.0566,-2.0566,-2.0566,-2.0566,-2.0566,-2.0566,-2.0566,-2.0566,-2.0566,-2.0566,-2.0566,-2.0566,-2.0566,-2.0566,-2.0566,0.0,-2.0566,-2.0566,-2.0566,-2.0566,-2.0566,-2.0566,-2.0566,-2.0566,-2.0566,-2.0566,-2.0566,-2.0566,-2.0566,-2.0566,-2.0566,-2.0566,-2.0566,-2.0566,-2.0566,-2.0566,-2.0566,-2.0566,-2.0411,-2.0264,-2.002,-1.9618,-1.9381,-1.9301,-1.8834,-1.8442,-1.8121,-1.7716,-1.731,-1.6812,-1.6237,-1.5733,-1.5477,-1.4894,-1.4559,-1.4398,-1.4243,-1.4173,-1.4088,-1.4088,-1.4088,-1.4095,-1.4148,-1.4168,-1.4208,-1.4502,-1.4643,-1.4756,-2.2822,0.0,0.0,0.0,0.0,0.0,0.0,0.0,0.0,0.0,-2.2927,-2.315,-2.315,-2.3224,-2.3372,-2.3446,-2.3446,-2.3446,-2.3446,-2.3372,-2.315,-2.2852,-2.2777,-2.2553,-2.2252,-2.2176,-2.1959,0.0,0.0,0.0,0.0,0.0,0.0,0.0,0.0,0.0,0.0,-2.0566,-2.0566,-2.0566,-2.0566,-2.0566,-2.0566,-2.0566,-2.0566,-2.0566,-2.0566,-2.0566,-2.0566,-2.0566,-2.0566,-2.0566,-2.0566,-2.0566,-2.0566,-2.0566,-2.0566,-2.0566,-2.0566,-2.0566,-2.0566,-2.0566,-2.0566,0.0,0.0,-2.0566,-2.0566,-2.0566,-2.0566,-2.0566,-2.0566,-2.0566,-2.0566,-2.0566,-2.0566,-2.0566,-2.0566,-2.0566,-2.0566,-2.0566,-2.0566,-2.0566,-2.0566,-2.0489,-2.0411,-2.0255,-2.002,-1.9872,-1.9794,-1.939,-1.9073,-1.9002,-1.8523,-1.7951,-1.7546,-1.7229,-1.673,-1.6064,-1.5733,-1.5311,-1.4894,-1.4559,-1.4321,-1.4243,-1.4166,-1.4088,-1.4088,-1.4088,-1.4088,-1.4088,-1.4088,-1.4088,-1.4108,-1.4249,-1.4396,-1.4563,-2.2373,0.0,0.0,0.0,0.0,0.0,0.0,0.0,0.0,-2.2628,-2.2777,-2.2852,-2.2852,-2.2852,-2.2927,-2.315,-2.315,-2.315,-2.315,-2.3001,-2.2777,-2.2628,-2.2402,-2.2252,-2.2035,-2.1883,-2.1655,-2.1436,0.0,0.0,0.0,0.0,0.0,0.0,0.0,0.0,0.0,-2.0566,-2.0566,-2.0566,-2.0566,-2.0566,-2.0566,-2.0566,-2.0566,-2.0566,-2.0566,-2.0566,-2.0566,-2.0566,-2.0566,-2.0566,-2.0566,-2.0566,-2.0566,-2.0566,-2.0566,-2.0566,-2.0566,-2.0566,-2.0566,-2.0566,-2.0566,-2.0566,0.0,0.0,0.0,-2.0566,-2.0566,-2.0566,-2.0566,-2.0566,-2.0566,-2.0566,-2.0566,-2.0566,-2.0566,-2.0566,-2.0566,-2.0566,-2.0566,-2.0566,-2.0566,-2.0342,-2.0108,-1.9863,-1.9636,-1.9557,-1.9487,-1.9082,-1.8763,-1.8531,-1.8121,-1.7627,-1.7057,-1.673,-1.6154,-1.5394,-1.5311,-1.4977,-1.4398,-1.4398,-1.4243,-1.4088,-1.4088,-1.4088,-1.4088,-1.4088,-1.4088,-1.4088,-1.4088,-1.4088,-1.4088,-1.4088,-1.4235,-1.4356,-2.1885,-2.2079,0.0,0.0,0.0,0.0,0.0,0.0,0.0,-2.2402,-2.2478,-2.2478,-2.2478,-2.2478,-2.2478,-2.2478,-2.2478,-2.2478,-2.2478,-2.2478,-2.2402,-2.2176,-2.2176,-2.2025,-2.1807,-2.1655,-2.1436,-2.1205,0.0,0.0,0.0,0.0,0.0,0.0,-2.0566,-2.0566,-2.0566,-2.0566,-2.0566,-2.0566,-2.0566,-2.0566,-2.0566,-2.0566,-2.0566,-2.0566,-2.0566,-2.0566,-2.0566,-2.0566,-2.0566,-2.0566,-2.0566,-2.0566,-2.0566,-2.0566,-2.0566,-2.0566,-2.0566,-2.0566,-2.0566,-2.0566,-2.0566,-2.0566,-2.0566,0.0,-2.0566,-2.0566,0.0,-2.0566,-2.0566,0.0,0.0,-2.0566,-2.0566,-2.0566,-2.0566,-2.0566,-2.0566,-2.0566,-2.0566,-2.0489,-2.0342,-2.0108,-1.9863,-1.9645,-1.9469,-1.9231,-1.9082,-1.8683,-1.8362,-1.8121,-1.7716,-1.7229,-1.6738,-1.6327,-1.5906,-1.5394,-1.4985,-1.465,-1.4391,-1.4243,-1.4088,-1.4088,-1.4088,-1.4088,-1.4088,-1.4088,-1.4088,-1.4088,-1.4088,-1.4088,-1.4088,-1.4088,-1.3932,-1.3822,-2.1426,-2.1469,0.0,0.0,0.0,0.0,0.0,0.0,0.0,-2.2402,-2.2402,-2.2402,-2.2402,-2.2402,-2.2402,-2.2402,-2.2402,-2.2402,-2.2402,-2.2327,-2.2176,-2.2101,-2.1949,-2.1807,-2.1655,-2.1436,-2.1205,-2.1061,-2.0819,0.0,0.0,0.0,0.0,0.0,-2.0566,-2.0566,-2.0566,-2.0566,-2.0566,-2.0566,-2.0566,-2.0566,-2.0566,-2.0566,-2.0566,-2.0566,-2.0566,-2.0566,-2.0566,-2.0566,-2.0566,-2.0566,-2.0566,-2.0566,-2.0566,-2.0566,-2.0566,-2.0566,-2.0566,-2.0566,-2.0566,-2.0566,-2.0566,-2.0566,-2.0566,-2.0566,-2.0566,-2.0566,0.0,0.0,0.0,0.0,0.0,0.0,-2.0566,-2.0566,-2.042,-2.042,-2.042,-2.042,-2.042,-2.0264,-1.9951,-1.9706,-1.9469,-1.924,-1.9082,-1.8922,-1.8851,-1.8442,-1.8121,-1.804,-1.7392,-1.6812,-1.6566,-1.5989,-1.5484,-1.4985,-1.465,-1.4398,-1.4243,-1.4166,-1.4088,-1.4088,-1.4088,-1.4088,-1.4088,-1.4088,-1.4088,-1.4088,-1.4088,-1.4088,-1.4088,-1.3913,-1.3828,-1.3665,-2.0986,0.0,0.0,0.0,0.0,0.0,0.0,-2.1807,-2.2101,-2.2252,-2.2252,-2.2252,-2.2252,-2.2252,-2.2252,-2.2252,-2.2252,-2.2252,-2.2252,-2.2101,-2.2025,-2.2025,-2.1807,-2.1655,-2.1502,-2.1282,-2.1061,-2.0906,-2.0731,0.0,0.0,0.0,0.0,0.0,-2.0566,-2.0566,-2.0566,-2.0566,-2.0566,-2.0566,-2.0566,-2.0566,-2.0566,-2.0566,-2.0566,-2.0566,-2.0566,-2.0566,-2.0566,-2.0566,-2.0566,-2.0566,-2.0566,-2.0566,-2.0566,-2.0566,-2.0566,-2.0566,-2.0566,-2.0566,-2.0566,-2.0566,-2.0566,-2.0566,-2.0566,-2.0566,-2.0566,-2.0566,-2.0566,0.0,0.0,0.0,-2.0489,-2.0489,0.0,-2.0333,-2.0186,-2.0186,-2.0186,-2.0186,-2.0098,-1.9863,-1.9557,-1.9311,-1.9073,-1.8922,-1.8692,-1.8531,-1.8531,-1.804,-1.7797,-1.7627,-1.7057,-1.6566,-1.6229,-1.5643,-1.5144,-1.4734,-1.4482,-1.4321,-1.4088,-1.4088,-1.4088,-1.4088,-1.4088,-1.4088,-1.4088,-1.4088,-1.4088,-1.4088,-1.3997,-1.3997,-1.3997,-1.3737,-1.3652,-1.3483,-2.0586,-2.0576,-2.0654,-2.0906,-2.0906,-2.1061,-2.1436,-2.1655,-2.1807,-2.1807,-2.1807,-2.1807,-2.1807,-2.1807,-2.1807,-2.1807,-2.1807,-2.1807,-2.1807,-2.1807,-2.1807,-2.1807,-2.1655,-2.1512,-2.1502,-2.1138,-2.0906,-2.0906,-2.0731,0.0,0.0,0.0,0.0,0.0,-2.0566,-2.0566,-2.0566,-2.0566,-2.0566,-2.0566,-2.0566,-2.0566,-2.0566,-2.0566,-2.0566,-2.0566,-2.0566,-2.0566,-2.0566,-2.0566,-2.0566,-2.0566,-2.0566,-2.0566,-2.0566,-2.0566,-2.0566,-2.0566,-2.0566,-2.0566,-2.0566,-2.0566,-2.0566,-2.0566,-2.0566,-2.0566,-2.0566,-2.0566,-2.0566,-2.0566,-2.0566,-2.042,-2.0342,-2.0342,-2.0098,0.0,0.0,-1.9942,-1.9942,-1.9942,-1.9548,-1.9301,-1.9301,-1.8922,-1.87,-1.87,-1.8282,-1.804,-1.804,-1.7635,-1.7229,-1.673,-1.673,-1.6402,-1.5733,-1.5477,-1.5144,-1.4734,-1.4482,-1.4321,-1.4088,-1.4088,-1.4088,-1.4088,-1.4088,-1.4088,-1.4088,-1.4088,-1.4088,-1.4088,-1.3822,-1.3737,-1.3737,-1.3737,-1.3476,-1.3137,-2.0566,0.0,-2.0644,-2.0654,-2.0819,-2.0984,-2.1282,-2.1512,-2.1578,-2.1578,-2.1731,-2.1807,-2.1807,-2.1807,-2.1807,-2.1807,-2.1807,-2.1807,-2.1807,-2.1655,-2.1578,-2.1578,-2.1436,-2.1205,-2.1138,-2.0984,-2.0819,-2.0731,-2.0644,0.0,0.0,0.0,0.0,0.0,0.0,-2.0566,-2.0566,-2.0566,-2.0566,-2.0566,-2.0566,-2.0566,-2.0566,-2.0566,-2.0566,-2.0566,-2.0566,-2.0566,-2.0566,-2.0566,-2.0566,-2.0566,-2.0566,-2.0566,-2.0566,-2.0566,-2.0566,-2.0566,-2.0566,-2.0566,-2.0566,-2.0566,-2.0566,-2.0566,-2.0566,-2.0566,-2.0566,-2.0566,-2.0489,-2.042,-2.042,-2.0177,-2.002,-2.002,-1.9872,-1.9636,0.0,-1.9231,-1.9082,-1.8913,-1.8922,-1.8843,-1.8754,-1.8442,-1.8201,-1.8031,-1.7797,-1.7635,-1.7635,-1.7147,-1.6902,-1.6738,-1.6237,-1.5899,-1.5477,-1.5151,-1.481,-1.4482,-1.4328,-1.4166,-1.4088,-1.4088,-1.4088,-1.4088,-1.4088,-1.4088,-1.4088,-1.3913,-1.3828,-1.3822,-1.3568,-1.3392,-1.3307,-1.3307,-1.3222,-1.3052,-2.0566,-2.0566,-2.0566,-2.0566,-2.0741,-2.0906,-2.1051,-2.1282,-2.1359,-2.1359,-2.1512,-2.1578,-2.1578,-2.1578,-2.1578,-2.1578,-2.1578,-2.1578,-2.1578,-2.1512,-2.1359,-2.1359,-2.1205,-2.1061,-2.0906,-2.0819,-2.0731,-2.0566,-2.0566,-2.0566,0.0,0.0,0.0,0.0,0.0,-2.0566,-2.0489,-2.0489,-2.0411,-2.0333,-2.0411,-2.0489,-2.0489,-2.0566,-2.0566,-2.0566,-2.0566,-2.0566,-2.0566,-2.0566,-2.0566,-2.0566,-2.0566,-2.0566,-2.0566,-2.0566,-2.0566,-2.0566,-2.0566,-2.0566,-2.0566,-2.0566,-2.0566,-2.0566,-2.0566,-2.0566,-2.0566,-2.0489,-2.042,-2.0264,-2.0186,-1.9951,-1.9784,-1.9706,-1.9557,-1.932,0.0,-1.8594,-1.8282,-1.804,-1.829,-1.8362,-1.8193,-1.7951,-1.7708,-1.7538,-1.7302,-1.7147,-1.7057,-1.6656,-1.6409,-1.6319,-1.5899,-1.5484,-1.5318,-1.4817,-1.4566,-1.4398,-1.4166,-1.4082,-1.3997,-1.3997,-1.3913,-1.3828,-1.3828,-1.3828,-1.3828,-1.3652,-1.3568,-1.3561,-1.3398,-1.3222,-1.3137,-1.3137,-1.3052,-1.2966,-2.0566,-2.0566,-2.0566,-2.0566,-2.0741,-2.0906,-2.0906,-2.1061,-2.1205,-2.1205,-2.1205,-2.1205,-2.1205,-2.1205,-2.1205,-2.1205,-2.1205,-2.1205,-2.1205,-2.1205,-2.1205,-2.1205,-2.0984,-2.0906,-2.0906,-2.0731,-2.0566,-2.0566,-2.0566,0.0,0.0,0.0,0.0,0.0,-2.0566,-2.0489,-2.0264,-2.0264,-2.0098,-1.9942,-2.0186,-2.0264,-2.0264,-2.0489,-2.0566,-2.0566,-2.0566,-2.0566,-2.0566,-2.0566,-2.0566,-2.0566,-2.0566,-2.0566,-2.0566,-2.0566,-2.0566,-2.0566,-2.0566,-2.0566,-2.0566,-2.0566,-2.0566,-2.0566,-2.0566,-2.0566,-2.0566,-2.0342,-2.0264,-2.0186,-1.9942,-1.9715,-1.9478,-1.9301,-1.9073,-1.8843,-1.8353,-1.7942,-1.7619,-1.7392,-1.7716,-1.787,-1.761,-1.7465,-1.731,-1.7057,-1.6812,-1.6566,-1.6394,-1.6162,-1.5997,-1.5733,-1.5484,-1.5318,-1.5082,-1.465,-1.4391,-1.4398,-1.4159,-1.3913,-1.3652,-1.3652,-1.3568,-1.3398,-1.3398,-1.3398,-1.3398,-1.3392,-1.3392,-1.3392,-1.3137,-1.3052,-1.3052,-1.3052,-1.2881,-1.2705,-2.0566,-2.0566,-2.0566,-2.0566,-2.0644,-2.0654,-2.0654,-2.0819,-2.0984,-2.0984,-2.1138,-2.1205,-2.1205,-2.1205,-2.1205,-2.1205,-2.1205,-2.1205,-2.1205,-2.1061,-2.0984,-2.0984,-2.0809,-2.0654,-2.0654,-2.0644,-2.0566,-2.0566,-2.0566,0.0,-2.0566,0.0,0.0,0.0,0.0,-2.0342,-2.0264,-2.0108,-1.9942,-1.9942,-1.9942,-2.002,-2.002,-2.0098,-2.0177,-2.042,-2.0566,-2.0566,-2.0566,-2.0566,-2.0566,-2.0566,-2.0566,-2.0566,-2.0566,-2.0566,-2.0566,-2.0566,-2.0566,-2.0566,-2.0566,-2.0566,-2.0566,-2.0566,-2.0566,-2.0566,-2.0566,-2.0342,-2.0108,-1.9951,-1.9715,-1.9399,-1.9161,-1.9082,-1.8603,-1.8031,-1.7546,-1.7294,-1.7131,-1.673,-1.6722,-1.6804,-1.6714,-1.6722,-1.6566,-1.6409,-1.6327,-1.6252,-1.617,-1.5914,-1.5741,-1.5733,-1.5325,-1.5082,-1.4824,-1.4566,-1.423,-1.3899,-1.3822,-1.3652,-1.3476,-1.3476,-1.3476,-1.3398,-1.3398,-1.3398,-1.3392,-1.3222,-1.3137,-1.3137,-1.2881,-1.279,-1.279,-1.279,-1.279,-1.2705,-2.0566,-2.0566,-2.0566,-2.0566,-2.0566,-2.0566,-2.0566,-2.0731,-2.0741,-2.0741,-2.0896,-2.0964,-2.0964,-2.0964,-2.0964,-2.0964,-2.0964,-2.0964,-2.0964,-2.0809,-2.0741,-2.0741,-2.0654,-2.0566,-2.0566,-2.0566,-2.0566,-2.0566,-2.0566,-2.0566,-2.0566,0.0,0.0,0.0,0.0,-2.0186,-1.9951,-1.9706,-1.9627,-1.9627,-1.9706,-1.9794,0.0,-1.9863,-2.002,-2.0108,-2.0255,-2.0411,-2.0566,-2.0566,-2.0566,-2.0566,-2.0566,-2.0566,-2.0566,-2.0566,-2.0566,-2.0566,-2.0566,-2.0566,-2.0566,-2.0566,-2.0566,-2.0566,-2.0566,-2.0489,-2.042,-2.0186,-1.9951,-1.9715,-1.9469,-1.9231,-1.8922,-1.8594,-1.7951,-1.7302,-1.6976,-1.673,-1.6484,-1.6147,-1.5982,-1.5899,-1.5824,-1.6072,-1.6154,-1.5914,-1.5914,-1.5914,-1.5756,-1.5665,-1.5499,-1.5409,-1.5075,-1.4824,-1.4566,-1.4405,-1.4075,-1.3737,-1.3737,-1.3568,-1.3307,-1.3307,-1.3222,-1.3052,-1.3052,-1.3052,-1.3052,-1.2966,-1.2966,-1.2881,-1.279,-1.2705,-1.2705,-1.2705,-1.2705,-1.2705,-2.0566,-2.0566,-2.0566,-2.0566,-2.0566,-2.0566,-2.0566,-2.0566,-2.0566,-2.0566,-2.0566,-2.0566,-2.0566,-2.0566,-2.0566,-2.0566,-2.0566,-2.0566,-2.0566,-2.0566,-2.0566,-2.0566,-2.0566,-2.0566,-2.0566,-2.0566,-2.0566,-2.0566,-2.0566,-2.0566,0.0,0.0,0.0,0.0,0.0,-1.9951,-1.9557,-1.939,-1.9301,-1.9301,-1.9478,-1.9557,-1.9557,-1.9784,-1.9863,-1.9863,-1.9863,-2.0177,-2.0566,-2.0566,-2.0566,-2.0566,-2.0566,-2.0566,-2.0566,-2.0566,-2.0566,-2.0566,-2.0566,-2.0566,-2.0566,-2.0566,-2.0566,-2.0566,-2.0566,-2.042,-2.0186,-1.9942,-1.9715,-1.9557,-1.9301,-1.9073,-1.8683,-1.8031,-1.7221,-1.6656,-1.6656,-1.6327,-1.5914,-1.5658,-1.5484,0.0,-1.5082,-1.5582,-1.5831,-1.5567,-1.5567,-1.5492,-1.534,-1.5347,-1.5257,-1.5082,-1.4824,-1.4566,-1.4398,-1.4159,-1.3913,-1.3652,-1.3652,-1.3392,-1.3052,-1.3052,-1.2875,-1.2705,-1.2705,-1.2705,-1.2705,-1.2705,-1.2705,-1.2705,-1.2705,-1.2705,-1.2705,-1.2705,-1.2705,-1.2705,-2.0566,-2.0566,-2.0566,-2.0566,-2.0566,-2.0566,-2.0566,-2.0566,-2.0566,-2.0566,-2.0566,-2.0566,-2.0566,-2.0566,-2.0566,-2.0566,-2.0566,-2.0566,-2.0566,-2.0566,-2.0566,-2.0566,-2.0566,-2.0566,-2.0566,-2.0566,-2.0566,-2.0566,-2.0566,-2.0566,-2.0566,0.0,0.0,0.0,0.0,-1.9557,-1.9381,-1.9301,-1.9301,-1.9301,-1.9301,-1.9381,-1.9381,-1.9381,-1.9548,-1.9636,-1.9636,-1.9951,-2.0342,-2.0342,-2.0489,-2.0566,-2.0566,-2.0566,-2.0566,-2.0566,-2.0566,-2.0566,-2.0566,-2.0566,-2.0566,-2.0566,-2.0566,-2.0566,-2.042,-2.0342,-2.0186,-1.9715,-1.9636,-1.9557,-1.9301,-1.8834,-1.8282,-1.7635,-1.7066,-1.6574,-1.6252,-1.5914,-1.5658,-1.5249,-1.5166,-1.5082,-1.4817,-1.4908,-1.4908,-1.4901,-1.4901,-1.4817,-1.4824,-1.4824,-1.4824,0.0,-1.4566,-1.4482,0.0,0.0,-1.3652,-1.3476,-1.3307,-1.3052,-1.279,-1.279,-1.2705,-1.2705,-1.2705,-1.2705,-1.2705,-1.2705,-1.2705,-1.2705,-1.2705,-1.2705,-1.2705,-1.2705,-1.2705,-1.2705,-2.0566,-2.0566,-2.0566,-2.0566,-2.0566,-2.0566,-2.0566,-2.0566,-2.0566,-2.0566,-2.0566,-2.0566,-2.0566,-2.0566,-2.0566,-2.0566,-2.0566,-2.0566,-2.0566,-2.0566,-2.0566,-2.0566,-2.0566,-2.0566,-2.0566,-2.0566,-2.0566,-2.0566,-2.0489,-2.0411,-2.042,-2.0177,-2.0029,-1.9951,-1.9557,-1.939,-1.9301,-1.9301,-1.9301,-1.9301,-1.9301,-1.9301,-1.9301,-1.9301,-1.9381,-1.9469,-1.9469,-1.9636,-1.9951,-2.0029,-2.0177,-2.0255,-2.0255,-2.0333,-2.0411,-2.0411,-2.0489,-2.0566,-2.0566,-2.0566,-2.0566,-2.0498,-2.0411,-2.0411,-2.0177,-2.0029,-1.9872,-1.9645,-1.9557,-1.9311,-1.9082,-1.8683,-1.8201,-1.7473,-1.6894,-1.6402,-1.617,-1.5756,-1.5499,-1.5257,-1.4999,-1.4824,-1.4734,-1.4489,-1.4489,-1.465,-1.4734,-1.4734,-1.4734,-1.4734,-1.465,0.0,0.0,0.0,-1.4243,0.0,-1.3568,-1.3398,-1.3228,-1.2966,-1.2705,-1.2705,-1.2705,-1.2705,-1.2705,-1.2705,-1.2705,-1.2705,-1.2705,-1.2705,-1.2705,-1.2705,-1.2705,-1.2705,-1.2705,-1.2705,-2.0411,-2.0411,-2.0411,-2.0411,-2.0411,-2.0489,-2.0489,-2.0566,-2.0566,-2.0566,-2.0566,-2.0566,-2.0566,-2.0566,-2.0566,-2.0566,-2.0566,-2.0566,-2.0566,-2.0566,-2.0566,-2.0566,-2.0566,-2.0566,-2.0566,-2.0566,-2.0489,-2.0411,-2.0255,-2.0186,-2.0186,-1.9951,-1.9715,-1.9557,-1.939,-1.9301,-1.9301,-1.9301,-1.9301,-1.9301,-1.9301,-1.9301,-1.9301,-1.9301,-1.9301,-1.9301,-1.9301,-1.939,-1.9557,-1.9706,-1.9863,-1.9863,-1.9863,-2.002,-2.0186,-2.0186,-2.0342,-2.0411,-2.0411,-2.0411,-2.0411,-2.0264,-2.0186,-2.0186,-1.9863,-1.9715,-1.9557,-1.9557,-1.939,-1.9152,-1.8772,-1.8523,-1.8201,-1.7473,-1.6894,-1.6402,-1.617,-1.5756,-1.5423,-1.5347,-1.4999,-1.4741,-1.465,-1.4328,-1.4243,-1.4573,-1.4573,-1.4573,-1.4573,0.0,0.0,0.0,0.0,-1.4237,-1.3997,0.0,-1.3561,-1.3307,-1.3137,-1.2881,-1.2705,-1.2705,-1.2705,-1.2705,-1.2705,-1.2705,-1.2705,-1.2705,-1.2705,-1.2705,-1.2705,-1.2705,-1.2705,-1.2705,-1.2705,-1.2705,-1.9942,-1.9942,-1.9942,-1.9942,-1.9942,-2.002,-2.0264,-2.0342,-2.042,-2.0566,-2.0566,-2.0566,-2.0566,-2.0566,-2.0566,-2.0566,-2.0566,-2.0566,-2.0566,-2.0566,-2.0566,-2.0566,-2.0566,-2.0489,-2.0342,-2.0342,-2.0186,-1.9942,-1.9942,-1.9942,-1.9942,-1.9715,-1.9557,-1.9301,-1.9301,-1.9301,-1.9301,-1.9301,-1.9301,-1.9301,-1.9301,-1.9301,-1.9301,-1.9301,-1.9301,-1.9301,-1.9301,-1.9301,-1.9301,-1.9381,-1.9618,-1.9863,-1.9863,-1.9942,-1.9942,-1.9942,-1.9942,-1.9942,-1.9942,-1.9942,-1.9942,-1.9942,-1.9942,-1.9863,-1.9715,-1.9636,-1.9557,-1.939,-1.9301,-1.9152,-1.8772,-1.8523,-1.8201,-1.7473,-1.6976,-1.6574,-1.617,-1.5831,-1.5575,-1.5173,-1.509,-1.4915,-1.4482,-1.4398,-1.4321,-1.4166,-1.4166,-1.4166,-1.4166,0.0,0.0,-1.4166,-1.4166,-1.3997,-1.3737,-1.3568,-1.3307,-1.3137,-1.2875,-1.2705,-1.2705,-1.2705,-1.2705,-1.2705,-1.2705,-1.2705,-1.2705,-1.2705,-1.2705,-1.2705,-1.2705,-1.2705,-1.2705,-1.2705,-1.2705,-1.2705,-1.9863,-1.9863,-1.9863,-1.9863,-1.9863,-1.9942,-2.002,-2.002,-2.0098,-2.0177,-2.0411,-2.0566,-2.0566,-2.0566,-2.0566,-2.0566,-2.0566,-2.0566,-2.0566,-2.0498,-2.042,-2.042,-2.0255,-2.0177,-2.002,-2.002,-2.0029,-1.9863,-1.9794,-1.9715,-1.9715,-1.9469,-1.9381,-1.9301,-1.9301,-1.9301,-1.9301,-1.9301,-1.9301,-1.9301,-1.9301,-1.9301,-1.9301,-1.9301,-1.9301,-1.9301,-1.9301,-1.9301,-1.9301,-1.9301,-1.9381,-1.9539,-1.9539,-1.9627,-1.9715,-1.9715,-1.9794,-1.9863,-1.9863,-1.9863,-1.9863,-1.9715,-1.9715,-1.9636,-1.9469,-1.939,-1.939,-1.9301,-1.9301,-1.9152,-1.8772,-1.8612,-1.8282,-1.7554,-1.7139,-1.673,-1.617,-1.5914,-1.5575,-1.534,-1.4999,-1.4824,-1.4566,-1.4321,-1.4166,-1.4088,-1.4088,-1.4088,-1.4088,0.0,0.0,-1.4088,0.0,-1.3822,-1.3737,-1.3398,-1.3137,-1.3137,-1.279,-1.2705,-1.2705,-1.2705,-1.2705,-1.2705,-1.2705,-1.2705,-1.2705,-1.2705,-1.2705,-1.2705,-1.2705,-1.2705,-1.2705,-1.2705,-1.2705,-1.2705,-1.9706,-1.9706,-1.9706,-1.9706,-1.9706,-1.9706,-1.9784,-1.9794,-1.9863,-1.9863,-2.0177,-2.0411,-2.0411,-2.0411,-2.0411,-2.0411,-2.0411,-2.0411,-2.0411,-2.0264,-2.0186,-2.0186,-2.002,-1.9863,-1.9794,-1.9794,-1.9784,-1.9706,-1.9548,-1.9478,-1.9478,-1.939,-1.9301,-1.9301,-1.9301,-1.9301,-1.9301,-1.9301,-1.9301,-1.9301,-1.9301,-1.9301,-1.9301,-1.9301,-1.9301,-1.9301,-1.9301,-1.9301,-1.9301,-1.9301,-1.9301,-1.9301,-1.9301,-1.939,-1.9478,-1.9478,-1.9627,-1.9706,-1.9706,-1.9706,-1.9706,-1.9557,-1.9478,-1.9469,-1.9301,-1.9301,-1.9301,-1.9222,-1.9222,-1.9073,-1.8692,-1.8612,-1.8371,-1.7554,-1.731,-1.6894,-1.617,-1.5914,-1.5658,-1.534,-1.4999,-1.4741,-1.465,-1.4328,-1.4166,-1.4088,-1.4088,-1.4088,-1.4088,0.0,0.0,0.0,0.0,0.0,-1.3483,-1.3222,-1.3052,-1.2966,-1.279,-1.2705,-1.2705,-1.2705,-1.2705,-1.2705,-1.2705,-1.2705,-1.2705,-1.2705,-1.2705,-1.2705,-1.2705,-1.2705,-1.2705,-1.2705,-1.2705,-1.2705,-1.9301,-1.9301,-1.9301,-1.9301,-1.9301,-1.9381,-1.9557,-1.9566,-1.9636,-1.9863,-1.9863,-1.9942,-1.9942,-1.9942,-1.9942,-1.9942,-1.9942,-1.9942,-1.9942,-1.9942,-1.9863,-1.9863,-1.9863,-1.9794,-1.9636,-1.9566,-1.9478,-1.9301,-1.9301,-1.9301,-1.9301,-1.9301,-1.9301,-1.9301,-1.9301,-1.9301,-1.9301,-1.9301,-1.9301,-1.9301,-1.9301,-1.9301,-1.9301,-1.9301,-1.9301,-1.9301,-1.9301,-1.9301,-1.9301,-1.9301,-1.9301,-1.9301,-1.9301,-1.9301,-1.9301,-1.9301,-1.9301,-1.9301,-1.9301,-1.9301,-1.9301,-1.9301,-1.9301,-1.9301,-1.9301,-1.9301,-1.9222,-1.9073,-1.9002,-1.8843,-1.8523,-1.8442,-1.8201,-1.7473,-1.7392,-1.7066,-1.6252,-1.6087,-1.5839,-1.5173,-1.509,-1.4915,-1.4482,-1.4398,-1.4321,-1.4088,-1.4088,-1.4088,-1.4088,0.0,0.0,-1.3737,-1.3737,0.0,-1.3143,-1.3137,-1.2966,-1.2705,-1.2705,-1.2705,-1.2705,-1.2705,-1.2705,-1.2705,-1.2705,-1.2705,-1.2705,-1.2705,-1.2705,-1.2705,-1.2705,-1.2705,-1.2705,-1.2705,-1.2705,-1.2705,-1.9301,-1.9301,-1.9301,-1.9301,-1.9301,-1.9301,-1.939,-1.939,-1.939,-1.946,-1.946,-1.946,-1.946,-1.9706,-1.9863,-1.9863,-1.9863,-1.9863,-1.9863,-1.9794,-1.9715,-1.9715,-1.9548,-1.946,-1.939,-1.939,-1.9381,-1.9301,-1.9301,-1.9301,-1.9301,-1.9301,-1.9301,-1.9301,-1.9301,-1.9301,-1.9301,-1.9301,-1.9301,-1.9301,-1.9301,-1.9301,-1.9301,-1.9301,-1.9301,-1.9301,-1.9301,-1.9301,-1.9301,-1.9301,-1.9301,-1.9301,-1.9301,-1.9301,-1.9301,-1.9301,-1.9301,-1.9301,-1.9301,-1.9301,-1.9301,-1.9301,-1.9301,-1.9222,-1.9152,-1.9002,-1.8843,-1.8772,-1.878,-1.8692,-1.8442,-1.8273,-1.7959,-1.7473,-1.7147,-1.6738,-1.617,-1.5914,-1.5665,-1.5173,-1.4915,-1.4734,-1.4398,-1.4237,-1.4166,-1.4088,-1.4088,-1.4088,-1.4088,0.0,0.0,0.0,-1.3398,0.0,-1.3137,-1.2881,-1.279,-1.2705,-1.2705,-1.2705,-1.2705,-1.2705,-1.2705,-1.2705,-1.2705,-1.2705,-1.2705,-1.2705,-1.2705,-1.2705,-1.2705,-1.2705,-1.2705,-1.2705,-1.2705,-1.2705,-1.9301,-1.9301,-1.9301,-1.9301,-1.9301,-1.9301,-1.9301,-1.9301,-1.9301,-1.9301,-1.9301,-1.9301,-1.9301,-1.9539,-1.9696,-1.9696,-1.9696,-1.9696,-1.9696,-1.9548,-1.9478,-1.9478,-1.939,-1.9301,-1.9301,-1.9301,-1.9301,-1.9301,-1.9301,-1.9301,-1.9301,-1.9301,-1.9301,-1.9301,-1.9222,-1.9152,-1.9152,-1.9073,-1.9073,-1.9073,-1.9073,-1.9073,-1.9073,-1.9152,-1.9152,-1.9231,-1.9301,-1.9301,-1.9301,-1.9301,-1.9301,-1.9301,-1.9301,-1.9301,-1.9301,-1.9301,-1.9301,-1.9301,-1.9301,-1.9301,-1.9301,-1.9301,-1.9301,-1.9231,-1.9082,-1.8851,-1.87,-1.8612,-1.8531,-1.8362,-1.8193,-1.7951,-1.7635,-1.731,-1.6984,-1.6574,-1.617,-1.5914,-1.5484,-1.4999,-1.4824,-1.4573,-1.4321,-1.4166,-1.4088,-1.4088,-1.4088,-1.4088,0.0,0.0,-1.3652,-1.3476,-1.3228,-1.3052,-1.2966,-1.279,-1.2705,-1.2705,-1.2705,-1.2705,-1.2705,-1.2705,-1.2705,-1.2705,-1.2705,-1.2705,-1.2705,-1.2705,-1.2705,-1.2705,-1.2705,-1.2705,-1.2705,-1.2705,-1.2705,-1.2705,-1.9301,-1.9301,-1.9301,-1.9301,-1.9301,-1.9301,-1.9301,-1.9301,-1.9301,-1.9301,-1.9301,-1.9301,-1.9301,-1.9301,-1.9301,-1.9301,-1.9301,-1.9301,-1.9301,-1.9301,-1.9301,-1.9301,-1.9301,-1.9301,-1.9301,-1.9301,-1.9301,-1.9301,-1.9301,-1.9301,-1.9301,-1.9222,-1.9222,-1.9222,-1.9073,-1.9002,-1.9002,-1.8772,-1.87,-1.87,-1.87,-1.87,-1.87,-1.8922,-1.9002,-1.9002,-1.9222,-1.9222,-1.9222,-1.9222,-1.9222,-1.9222,-1.9222,-1.9222,-1.9222,-1.9301,-1.9301,-1.9301,-1.9301,-1.9301,-1.9301,-1.9301,-1.9222,-1.9222,-1.8993,-1.8772,-1.8612,-1.8362,-1.8112,-1.7951,-1.77,-1.7465,-1.731,-1.7139,-1.6812,-1.6492,-1.6087,-1.5831,-1.5401,-1.4817,-1.4734,-1.4573,-1.4166,-1.4088,-1.4088,-1.4088,-1.4088,-1.3997,0.0,0.0,-1.3483,-1.3143,-1.3052,-1.2966,-1.2705,-1.2705,-1.2705,-1.2705,-1.2705,-1.2705,-1.2705,-1.2705,-1.2705,-1.2705,-1.2705,-1.2705,-1.2705,-1.2705,-1.2705,-1.2705,-1.2705,-1.2705,-1.2705,-1.2705,-1.2705,-1.2705,-1.9301,-1.9301,-1.9301,-1.9301,-1.9301,-1.9301,-1.9301,-1.9301,-1.9301,-1.9301,-1.9301,-1.9301,-1.9301,-1.9301,-1.9301,-1.9301,-1.9301,-1.9301,-1.9301,-1.9301,-1.9301,-1.9301,-1.9301,-1.9301,-1.9301,-1.9301,-1.9301,-1.9301,-1.9152,-1.9073,-1.9073,-1.8922,-1.8851,-1.8851,-1.8772,-1.8772,-1.8772,-1.87,-1.87,-1.87,-1.87,-1.87,-1.87,-1.8772,-1.8772,-1.8772,-1.8851,-1.8851,-1.8851,-1.8851,-1.8851,-1.8851,-1.8851,-1.8851,-1.8931,-1.9222,-1.9301,-1.9301,-1.9301,-1.9301,-1.9222,-1.9073,-1.8834,-1.8594,-1.8514,-1.8362,-1.8121,-1.7951,-1.7781,-1.77,-1.7546,-1.7139,-1.6812,-1.6812,-1.6312,-1.5899,-1.5824,-1.5582,-1.534,-1.4999,-1.4999,-1.4831,-1.4398,-1.4321,-1.4243,-1.4088,-1.4088,-1.3913,-1.3483,-1.3483,-1.3392,-1.3143,-1.2881,-1.279,-1.2705,-1.2705,-1.2705,-1.2705,-1.2705,-1.2705,-1.2705,-1.2705,-1.2705,-1.2705,-1.2705,-1.2705,-1.2705,-1.2705,-1.2705,-1.2705,-1.2705,-1.2705,-1.2705,-1.2705,-1.2705,-1.2705,-1.9301,-1.9301,-1.9301,-1.9301,-1.9301,-1.9301,-1.9301,-1.9301,-1.9301,-1.9301,-1.9301,-1.9222,-1.9143,-1.9152,-1.9152,-1.9002,-1.9222,-1.9301,-1.9301,-1.9301,-1.9301,-1.9301,-1.9222,-1.9152,-1.9152,-1.9073,-1.9002,-1.9002,-1.8931,-1.8851,-1.8851,-1.878,-1.87,-1.87,-1.8612,-1.8531,-1.8531,-1.8451,-1.8371,-1.8371,-1.8371,-1.8371,-1.8371,-1.8531,-1.8531,-1.8612,-1.87,-1.87,-1.87,-1.87,-1.87,-1.87,-1.87,-1.87,-1.8772,-1.8922,-1.9002,-1.9002,-1.9002,-1.9002,-1.9002,-1.8922,-1.8603,-1.8362,-1.8282,-1.8031,-1.7789,-1.7627,-1.7465,-1.7375,-1.7139,-1.6812,-1.6566,-1.6409,-1.5989,-1.5733,-1.5733,-1.5499,-1.534,-1.509,-1.509,-1.4915,-1.4482,-1.4398,-1.4321,-1.4088,-1.4088,0.0,-1.3398,-1.3398,-1.3222,-1.2966,-1.279,-1.2705,-1.2705,-1.2705,-1.2705,-1.2705,-1.2705,-1.2705,-1.2705,-1.2705,-1.2705,-1.2705,-1.2705,-1.2705,-1.2705,-1.2705,-1.2705,-1.2705,-1.2705,-1.2705,-1.2705,-1.2705,-1.2705,-1.2705,-1.9301,-1.9301,-1.9301,-1.9301,-1.9301,-1.9301,-1.9301,-1.9301,-1.9301,-1.9222,-1.9222,-1.9152,-1.9002,-1.8922,-1.8851,-1.87,-1.9002,-1.9222,-1.9222,-1.9222,-1.9222,-1.9222,-1.9082,-1.8922,-1.8922,-1.8772,-1.87,-1.87,-1.87,-1.862,-1.862,-1.862,-1.862,-1.862,-1.8362,-1.8273,-1.8273,-1.804,-1.7878,-1.7878,-1.7878,-1.7878,-1.7951,-1.8201,-1.8282,-1.8282,-1.8451,-1.8531,-1.854,-1.8531,-1.8531,-1.8531,-1.8612,-1.862,-1.862,-1.8531,-1.8531,-1.8531,-1.87,-1.862,-1.862,-1.862,-1.8442,-1.8201,-1.7959,-1.7789,-1.7627,-1.7392,-1.7229,-1.6976,-1.673,-1.6484,-1.6229,-1.6087,-1.5831,-1.5658,-1.5658,-1.5506,-1.5347,-1.5173,-1.5173,-1.4999,-1.4566,-1.4482,-1.4321,-1.4166,-1.4088,-1.3913,-1.3398,-1.3398,-1.3222,-1.2705,-1.2705,-1.2705,-1.2705,-1.2705,-1.2705,-1.2705,-1.2705,-1.2705,-1.2705,-1.2705,-1.2705,-1.2705,-1.2705,-1.2705,-1.2705,-1.2705,-1.2705,-1.2705,-1.2705,-1.2705,-1.2705,-1.2705,-1.2705,-1.2705,-1.9301,-1.9301,-1.9301,-1.9301,-1.9301,-1.9301,-1.9301,-1.9301,-1.9222,-1.9073,-1.9082,-1.9002,-1.8772,-1.878,-1.87,-1.87,-1.8772,-1.8772,-1.8772,-1.8772,-1.8772,-1.8772,-1.8772,-1.878,-1.878,-1.87,-1.87,-1.87,-1.8531,-1.8442,-1.8442,-1.8201,-1.8121,-1.8121,-1.7861,-1.7781,-1.7781,-1.7554,-1.7473,-1.7473,-1.7473,-1.7473,-1.7473,-1.7554,-1.7554,-1.7554,-1.7554,-1.7644,-1.7635,-1.7789,-1.7861,-1.7861,-1.804,-1.8121,-1.8121,-1.7951,-1.7861,-1.7951,-1.8531,-1.8451,-1.8121,-1.8121,-1.7797,-1.7554,-1.7473,-1.7473,-1.7392,-1.7221,-1.6976,-1.673,-1.6476,-1.6064,-1.5816,-1.5741,-1.5582,-1.5423,-1.5423,-1.5431,-1.5431,-1.5347,-1.5347,-1.5264,-1.4999,-1.4824,-1.4566,-1.4398,-1.4166,-1.3913,-1.3398,-1.3398,-1.3222,-1.2705,-1.2705,-1.2705,-1.2705,-1.2705,-1.2705,-1.2705,-1.2705,-1.2705,-1.2705,-1.2705,-1.2705,-1.2705,-1.2705,-1.2705,-1.2705,-1.2705,-1.2705,-1.2705,-1.2705,-1.2705,-1.2705,-1.2705,-1.2705,-1.2705,-1.9301,-1.9301,-1.9301,-1.9301,-1.9222,-1.9152,-1.9152,-1.9082,-1.8922,-1.8851,-1.8851,-1.8772,-1.8523,-1.8523,-1.8442,-1.8201,-1.8201,-1.8121,-1.8049,-1.8451,-1.87,-1.87,-1.8612,-1.8442,-1.8193,-1.8201,-1.8121,-1.7968,-1.7878,-1.7878,-1.7878,-1.7716,-1.7716,-1.7635,-1.7546,-1.7546,-1.7546,-1.7473,-1.7392,-1.7392,-1.7392,-1.7392,-1.7392,-1.7392,-1.7392,-1.7392,-1.7392,-1.7392,-1.7392,-1.7546,-1.7546,-1.7546,-1.7635,-1.7716,-1.7635,-1.7546,-1.7546,-1.7627,-1.7887,-1.7797,-1.7716,-1.7716,-1.7554,-1.731,-1.7066,-1.6984,-1.6902,-1.6656,-1.6492,-1.6327,-1.6064,-1.5816,-1.565,-1.5582,-1.5423,-1.5431,-1.5431,-1.5431,-1.5431,-1.5431,-1.5431,-1.5257,-1.4908,-1.4741,-1.4573,-1.4243,-1.4166,-1.3913,-1.3398,-1.3398,-1.3222,-1.2705,-1.2705,-1.2705,-1.2705,-1.2705,-1.2705,-1.2705,-1.2705,-1.2705,-1.2705,-1.2705,-1.2705,-1.2705,-1.2705,-1.2705,-1.2705,-1.2705,-1.2705,-1.2705,-1.2705,-1.2705,-1.2705,-1.2705,-1.2705,-1.2705,-1.9231,-1.9222,-1.9152,-1.9152,-1.9002,-1.8922,-1.8922,-1.8772,-1.87,-1.8612,-1.8612,-1.8451,-1.8273,-1.8201,-1.8031,-1.7619,-1.7619,-1.7546,-1.7392,-1.8049,-1.8371,-1.8371,-1.8282,-1.8031,-1.7619,-1.7619,-1.7546,-1.7392,-1.7392,-1.7392,-1.7392,-1.7392,-1.7392,-1.7392,-1.731,-1.731,-1.731,-1.7229,-1.7229,-1.7229,-1.7229,-1.7229,-1.7229,-1.7229,-1.7229,-1.7229,-1.7229,-1.7229,-1.7229,-1.731,-1.731,-1.731,-1.7392,-1.7392,-1.7392,-1.731,-1.7229,-1.7229,-1.7392,-1.731,-1.7229,-1.7229,-1.7147,-1.6984,-1.6656,-1.6574,-1.6492,-1.617,-1.6087,-1.5914,-1.565,-1.5567,-1.5492,-1.5257,0.0,-1.5257,-1.5257,-1.5257,-1.5257,-1.5257,-1.5257,-1.5082,-1.4734,-1.465,-1.4489,-1.4166,-1.4166,-1.3913,-1.3398,-1.3398,-1.3222,-1.2705,-1.2705,-1.2705,-1.2705,-1.2705,-1.2705,-1.2705,-1.2705,-1.2705,-1.2705,-1.2705,-1.2705,-1.2705,-1.2705,-1.2705,-1.2705,-1.2705,-1.2705,-1.2705,-1.2705,-1.2705,-1.2705,-1.2705,-1.2705,-1.2705,-1.9002,-1.8851,-1.8772,-1.8772,-1.87,-1.87,-1.87,-1.87,-1.8612,-1.8442,-1.8201,-1.7951,-1.7781,-1.7627,-1.7473,-1.7392,-1.7392,-1.7392,-1.7392,-1.7473,-1.7481,-1.7481,-1.7473,-1.7473,-1.7392,-1.7392,-1.7392,-1.7392,-1.7392,-1.7392,-1.7392,-1.7392,-1.7392,-1.7392,-1.7221,-1.7139,-1.7139,-1.6902,-1.6738,-1.6738,-1.6738,-1.6738,-1.6738,-1.6738,-1.6738,-1.6738,-1.6738,-1.6738,-1.6812,-1.7057,-1.7139,-1.7139,-1.731,-1.7392,-1.7392,-1.7221,-1.6804,-1.6648,-1.7229,-1.7066,-1.6738,-1.6738,-1.6492,-1.617,-1.617,-1.617,-1.617,-1.6095,-1.5914,-1.565,-1.5477,-1.5242,-1.5082,-1.4817,0.0,0.0,-1.4741,-1.4741,-1.4741,-1.4741,-1.4741,-1.4734,-1.4734,-1.4566,-1.4398,-1.4398,-1.4243,-1.3913,-1.3398,-1.3398,-1.3222,-1.2705,-1.2705,-1.2705,-1.2705,-1.2705,-1.2705,-1.2705,-1.2705,-1.2705,-1.2705,-1.2705,-1.2705,-1.2705,-1.2705,-1.2705,-1.2705,-1.2705,-1.2705,-1.2705,-1.2705,-1.2705,-1.2705,-1.2705,-1.2705,-1.2705,-1.8772,-1.878,-1.87,-1.87,-1.8612,-1.8523,-1.8523,-1.8282,-1.8031,-1.7942,-1.7789,-1.7635,-1.7546,-1.7473,-1.731,-1.7221,-1.7221,-1.7139,-1.6984,-1.6984,-1.7066,-1.74,-1.7392,-1.731,-1.7221,-1.7221,-1.7139,-1.6984,-1.6984,-1.6984,-1.6984,-1.6984,-1.6984,-1.6984,-1.6894,-1.6812,-1.6812,-1.673,-1.673,-1.673,-1.673,-1.673,-1.673,-1.673,-1.673,-1.673,-1.673,-1.673,-1.673,-1.6812,-1.6812,-1.6894,-1.6976,-1.6894,-1.673,-1.6574,-1.6327,-1.6245,-1.6492,-1.65,-1.6335,-1.6335,-1.6079,-1.5824,-1.565,-1.5582,-1.5416,-1.5242,-1.5151,-1.5068,-1.4985,-1.4908,-1.4824,-1.4741,0.0,-1.4734,-1.4734,-1.4734,-1.4734,-1.4734,-1.4734,-1.465,-1.4566,-1.4482,-1.4314,-1.4243,-1.399,-1.3737,-1.3398,-1.3137,-1.2875,-1.2705,-1.2705,-1.2705,-1.2705,-1.2705,-1.2705,-1.2705,-1.2705,-1.2705,-1.2705,-1.2705,-1.2705,-1.2705,-1.2705,-1.2705,-1.2705,-1.2705,-1.2705,-1.2705,-1.2705,-1.2705,-1.2705,-1.2705,-1.2705,-1.2705,-1.8612,-1.8531,-1.8371,-1.8371,-1.8201,-1.8121,-1.8121,-1.7789,-1.7619,-1.7619,-1.7465,-1.731,-1.731,-1.7229,-1.7139,-1.6976,-1.6976,-1.6894,-1.673,-1.673,-1.682,-1.7147,-1.7147,-1.7147,-1.6976,-1.6976,-1.6894,-1.673,-1.673,-1.673,-1.673,-1.673,-1.673,-1.673,-1.673,-1.673,-1.673,-1.673,-1.673,-1.673,-1.673,-1.673,-1.673,-1.673,-1.673,-1.673,-1.673,-1.673,-1.673,-1.673,-1.673,-1.6648,-1.6648,-1.6484,-1.6237,-1.617,-1.6004,-1.5997,-1.5997,-1.5922,-1.5839,-1.5914,-1.5658,-1.5484,-1.5235,-1.5075,-1.4908,-1.4734,-1.4734,-1.465,-1.465,-1.465,-1.4573,-1.4489,-1.4489,-1.4489,-1.4489,-1.4489,-1.4489,-1.4489,-1.4489,-1.4489,-1.4321,-1.423,-1.4153,-1.3997,-1.3737,-1.3483,-1.3313,-1.2875,-1.2705,-1.2705,-1.2705,-1.2705,-1.2705,-1.2705,-1.2705,-1.2705,-1.2705,-1.2705,-1.2705,-1.2705,-1.2705,-1.2705,-1.2705,-1.2705,-1.2705,-1.2705,-1.2705,-1.2705,-1.2705,-1.2705,-1.2705,-1.2705,-1.2705,-1.2705,-1.8353,-1.8023,-1.77,-1.77,-1.7546,-1.7392,-1.7392,-1.7392,-1.7392,-1.7392,-1.7221,-1.7139,-1.7139,-1.6894,-1.673,-1.673,-1.673,-1.673,-1.673,-1.673,-1.673,-1.673,-1.673,-1.673,-1.673,-1.673,-1.673,-1.673,-1.673,-1.673,-1.673,-1.673,-1.673,-1.673,-1.673,-1.673,-1.673,-1.673,-1.673,-1.673,-1.673,-1.673,-1.673,-1.673,-1.673,-1.673,-1.673,-1.673,-1.673,-1.673,-1.673,-1.6648,-1.6476,-1.6237,-1.6087,-1.6087,-1.5914,-1.5733,-1.5733,-1.5582,-1.5423,-1.5401,-1.5242,-1.5006,-1.4741,-1.4734,-1.4734,-1.4734,-1.4734,-1.465,-1.4398,-1.4398,-1.4321,-1.4166,-1.4088,-1.4088,-1.4088,-1.4088,-1.4088,-1.4088,-1.4088,-1.4088,-1.4088,-1.3822,-1.3737,-1.3737,-1.3476,-1.3307,-1.3143,-1.2875,-1.2705,-1.2705,-1.2705,-1.2705,-1.2705,-1.2705,-1.2705,-1.2705,-1.2705,-1.2705,-1.2705,-1.2705,-1.2705,-1.2705,-1.2705,-1.2705,-1.2705,-1.2705,-1.2705,-1.2705,-1.2705,-1.2705,-1.2705,-1.2705,-1.2705,-1.2705,-1.7942,-1.7708,-1.7473,-1.7473,-1.7473,-1.7392,-1.7392,-1.731,-1.7221,-1.7221,-1.6976,-1.6812,-1.6812,-1.6738,-1.673,-1.673,-1.673,-1.673,-1.673,-1.673,-1.673,-1.673,-1.673,-1.673,-1.673,-1.673,-1.673,-1.673,-1.673,-1.673,-1.673,-1.673,-1.673,-1.673,-1.673,-1.673,-1.673,-1.673,-1.673,-1.673,-1.673,-1.673,-1.673,-1.673,-1.673,-1.673,-1.673,-1.673,-1.673,-1.673,-1.673,-1.6656,-1.6327,-1.5997,-1.5824,-1.5673,-1.559,-1.5506,-1.5506,-1.5423,-1.5347,-1.5249,-1.4992,-1.4741,-1.4566,-1.4405,-1.425,-1.425,-1.425,-1.425,-1.4166,-1.4166,-1.4166,-1.4088,-1.4088,-1.4088,-1.4088,-1.3913,-1.3822,-1.3822,-1.3652,-1.3568,-1.3568,-1.3568,-1.3483,-1.3483,-1.3307,-1.3052,-1.279,-1.2705,-1.2705,-1.2705,-1.2705,-1.2705,-1.2705,-1.2705,-1.2705,-1.2705,-1.2705,-1.2705,-1.2705,-1.2705,-1.2705,-1.2705,-1.2705,-1.2705,-1.2705,-1.2705,-1.2705,-1.2705,-1.2705,-1.2705,-1.2705,-1.2705,-1.2705,-1.2705,-1.7627,-1.7383,-1.731,-1.731,-1.7229,-1.7147,-1.7147,-1.7057,-1.6976,-1.6976,-1.6812,-1.673,-1.673,-1.673,-1.673,-1.673,-1.673,-1.673,-1.673,-1.673,-1.673,-1.673,-1.673,-1.673,-1.673,-1.673,-1.673,-1.673,-1.673,-1.673,-1.673,-1.673,-1.673,-1.673,-1.673,-1.673,-1.673,-1.673,-1.673,-1.673,-1.673,-1.673,-1.673,-1.673,-1.673,-1.673,-1.673,-1.673,-1.673,-1.673,-1.6574,-1.6409,-1.617,-1.5831,-1.5582,-1.5431,-1.5431,-1.5431,-1.5431,-1.5431,-1.534,-1.4999,-1.4824,-1.465,-1.4321,-1.4166,-1.4088,-1.4088,-1.4088,-1.4088,-1.4088,-1.3997,-1.3913,-1.3913,-1.3913,-1.3828,-1.3828,-1.3652,-1.3568,-1.3568,-1.3483,-1.3398,-1.3398,-1.3307,-1.3222,-1.3137,-1.3052,-1.2881,-1.2705,-1.2705,-1.2705,-1.2705,-1.2705,-1.2705,-1.2705,-1.2705,-1.2705,-1.2705,-1.2705,-1.2705,-1.2705,-1.2705,-1.2705,-1.2705,-1.2705,-1.2705,-1.2705,-1.2705,-1.2705,-1.2705,-1.2705,-1.2705,-1.2705,-1.2705,-1.2705,-1.2705,-1.7392,-1.7221,-1.7057,-1.7057,-1.6894,-1.673,-1.673,-1.673,-1.673,-1.673,-1.6738,-1.6738,-1.673,-1.673,-1.6738,-1.673,-1.673,-1.673,-1.673,-1.673,-1.673,-1.673,-1.673,-1.673,-1.673,-1.673,-1.673,-1.673,-1.673,-1.673,-1.673,-1.673,-1.673,-1.673,-1.673,-1.673,-1.673,-1.673,-1.673,-1.673,-1.673,-1.673,-1.673,-1.673,-1.673,-1.673,-1.673,-1.673,-1.673,-1.673,-1.6409,-1.6087,-1.6087,-1.5763,-1.5431,-1.5431,-1.5431,-1.5431,-1.5431,-1.5431,-1.5257,-1.4824,-1.465,-1.4573,-1.4173,-1.4088,-1.4088,-1.4088,-1.4088,-1.4088,-1.4088,-1.3822,-1.3652,-1.3652,-1.3483,-1.3398,-1.3398,-1.3398,-1.3398,-1.3398,-1.3307,-1.3313,-1.3313,-1.3137,-1.2966,-1.2705,-1.2705,-1.2705,-1.2705,-1.2705,-1.2705,-1.2705,-1.2705,-1.2705,-1.2705,-1.2705,-1.2705,-1.2705,-1.2705,-1.2705,-1.2705,-1.2705,-1.2705,-1.2705,-1.2705,-1.2705,-1.2705,-1.2705,-1.2705,-1.2705,-1.2705,-1.2705,-1.2705,-1.2705,-1.2705,-1.2705,-1.7139,-1.6976,-1.6812,-1.6812,-1.673,-1.673,-1.673,-1.6894,-1.6968,-1.6968,-1.7147,-1.7229,-1.7057,-1.6968,-1.6894,-1.673,-1.673,-1.673,-1.673,-1.673,-1.673,-1.673,-1.673,-1.673,-1.673,-1.673,-1.673,-1.673,-1.673,-1.673,-1.673,-1.673,-1.673,-1.673,-1.673,-1.673,-1.673,-1.673,-1.673,-1.673,-1.673,-1.673,-1.673,-1.673,-1.673,-1.673,-1.673,-1.673,-1.673,-1.673,-1.6409,-1.6087,-1.6087,-1.5763,-1.5431,-1.5431,-1.5431,-1.5431,-1.5431,-1.5264,-1.509,-1.4741,-1.4566,-1.4405,-1.4166,-1.4088,-1.4088,-1.4088,-1.3913,-1.3822,-1.3822,-1.3652,-1.3483,-1.3483,-1.3398,-1.3398,-1.3398,-1.3228,-1.3143,-1.3143,-1.296,-1.2875,-1.2875,-1.279,-1.279,-1.2705,-1.2705,-1.2705,-1.2705,-1.2705,-1.2705,-1.2705,-1.2705,-1.2705,-1.2705,-1.2705,-1.2705,-1.2705,-1.2705,-1.2705,-1.2705,-1.2705,-1.2705,-1.2705,-1.2705,-1.2705,-1.2705,-1.2705,-1.2705,-1.2705,-1.2705,-1.2705,-1.2705,-1.2705,-1.2705,-1.2705,-1.6894,-1.6812,-1.673,-1.673,-1.6812,-1.6894,-1.6894,-1.7057,-1.7221,-1.7221,-1.731,-1.7392,-1.7221,-1.7221,-1.7229,-1.7066,-1.6984,-1.6894,-1.6894,-1.673,-1.673,-1.673,-1.673,-1.673,-1.673,-1.673,-1.673,-1.673,-1.673,-1.673,-1.673,-1.673,-1.673,-1.673,-1.673,-1.673,-1.673,-1.673,-1.673,-1.673,-1.673,-1.673,-1.673,-1.673,-1.673,-1.673,-1.673,-1.673,-1.673,-1.673,-1.6409,-1.6087,-1.6087,-1.5763,-1.5431,-1.5431,-1.5431,-1.5347,-1.5257,-1.5173,-1.4999,-1.465,-1.4482,-1.4321,-1.4166,-1.4088,-1.4088,-1.4088,-1.3913,-1.3737,-1.3737,-1.3483,-1.3228,-1.3228,-1.3137,-1.3052,-1.3052,-1.2966,-1.2881,-1.2881,-1.279,-1.2705,-1.2705,-1.2705,-1.2705,-1.2705,-1.2705,-1.2705,-1.2705,-1.2705,-1.2705,-1.2705,-1.2705,-1.2705,-1.2705,-1.2705,-1.2705,-1.2705,-1.2705,-1.2705,-1.2705,-1.2705,-1.2705,-1.2705,-1.2705,-1.2705,-1.2705,-1.2705,-1.2705,-1.2705,-1.2705,-1.2705,-1.2705,-1.2705,-1.2705,-1.2705,-1.673,-1.673,-1.673,-1.673,-1.6976,-1.7139,-1.7139,-1.7392,-1.7473,-1.7473,-1.7554,-1.7554,-1.7473,-1.7473,-1.7392,-1.7392,-1.7221,-1.7139,-1.7139,-1.6894,-1.6738,-1.673,-1.673,-1.673,-1.673,-1.673,-1.673,-1.673,-1.673,-1.673,-1.673,-1.673,-1.673,-1.673,-1.673,-1.673,-1.673,-1.673,-1.673,-1.673,-1.673,-1.673,-1.673,-1.673,-1.673,-1.673,-1.673,-1.673,-1.6648,-1.6648,-1.6409,-1.6087,-1.6087,-1.5756,-1.5431,-1.5431,-1.5431,-1.5347,-1.5173,-1.509,-1.4915,-1.4482,-1.4398,-1.4321,-1.4166,-1.4088,-1.4088,-1.3997,-1.3828,-1.3652,-1.3568,-1.3307,-1.3052,-1.3052,-1.2875,-1.2705,-1.2705,-1.2705,-1.2705,-1.2705,-1.2705,-1.2705,-1.2705,-1.2705,-1.2705,-1.2705,-1.2705,-1.2705,-1.2705,-1.2705,-1.2705,-1.2705,-1.2705,-1.2705,-1.2705,-1.2705,-1.2705,-1.2705,-1.2705,-1.2705,-1.2705,-1.2705,-1.2705,-1.2705,-1.2705,-1.2705,-1.2705,-1.2705,-1.2705,-1.2705,-1.2705,-1.2705,-1.2705,-1.2705,-1.2705,-1.2705,-1.6738,-1.673,-1.673,-1.6976,-1.7057,-1.7139,-1.731,-1.7716,-1.7959,-1.7959,-1.829,-1.8371,-1.7959,-1.7635,-1.7392,-1.7392,-1.7392,-1.731,-1.7139,-1.7057,-1.6976,-1.673,-1.673,-1.673,-1.673,-1.673,-1.673,-1.673,-1.673,-1.673,-1.673,-1.673,-1.673,-1.673,-1.673,-1.673,-1.673,-1.673,-1.673,-1.673,-1.673,-1.673,-1.673,-1.673,-1.673,-1.673,-1.673,-1.673,-1.6648,-1.6484,-1.6319,-1.6087,-1.5824,-1.5582,-1.5431,-1.5431,-1.5431,-1.5347,-1.5173,-1.4915,-1.4734,-1.4482,-1.4243,-1.4166,-1.4088,-1.4088,-1.4004,-1.3822,-1.3568,-1.3392,-1.3222,-1.2966,-1.279,-1.279,-1.2705,-1.2705,-1.2705,-1.2705,-1.2705,-1.2705,-1.2705,-1.2705,-1.2705,-1.2705,-1.2705,-1.2705,-1.2705,-1.2705,-1.2705,-1.2705,-1.2705,-1.2705,-1.2705,-1.2705,-1.2705,-1.2705,-1.2705,-1.2705,-1.2705,-1.2705,-1.2705,-1.2705,-1.2705,-1.2705,-1.2705,-1.2705,-1.2705,-1.2705,-1.2705,-1.2705,-1.2705,-1.2705,-1.2705,-1.2705,-1.2705,-1.2705,-1.7066,-1.7066,-1.7147,-1.7221,-1.7383,-1.7538,-1.7708,-1.8031,-1.8282,-1.8371,-1.854,-1.8612,-1.8451,-1.8121,-1.7959,-1.7959,-1.7708,-1.7465,-1.731,-1.7139,-1.6976,-1.673,-1.673,-1.673,-1.673,-1.673,-1.673,-1.673,-1.673,-1.673,-1.673,-1.673,-1.673,-1.673,-1.673,-1.673,-1.673,-1.673,-1.673,-1.673,-1.673,-1.673,-1.673,-1.673,-1.673,-1.673,-1.673,-1.673,-1.6648,-1.6566,-1.6327,-1.6087,-1.5997,-1.5673,-1.5431,-1.5431,-1.5431,-1.534,-1.4999,-1.4824,-1.465,-1.4328,-1.4166,-1.4088,-1.4088,-1.4088,-1.4088,-1.3913,-1.3652,-1.3398,-1.3307,-1.2966,-1.2705,-1.2705,-1.2705,-1.2705,-1.2705,-1.2705,-1.2705,-1.2705,-1.2705,-1.2705,-1.2705,-1.2705,-1.2705,-1.2705,-1.2705,-1.2705,-1.2705,-1.2705,-1.2705,-1.2705,-1.2705,-1.2705,-1.2705,-1.2705,-1.2705,-1.2705,-1.2705,-1.2705,-1.2705,-1.2705,-1.2705,-1.2705,-1.2705,-1.2705,-1.2705,-1.2705,-1.2705,-1.2705,-1.2705,-1.2705,-1.2705,-1.2705,-1.2705,-1.2705]},{"header":{"parameterUnit":"m.s-1","parameterCategory":1,"la1":30.6,"la2":28.766,"lo1":-90.7593,"lo2":-88.6598,"dy":0.0162,"dx":0.0183,"nx":116,"ny":114,"refTime":"2023-07-04T12:00:00:Z","depth":0,"parameterNumber":3,"parameterNumberName":"V-component_of_WINDS"},"data":[0.0,0.0,0.0,0.0,0.0,0.0,0.0,0.0,0.0,0.0,0.0,0.0,0.0,0.0,0.0,0.0,0.0,0.0,0.0,0.0,0.0,0.0,0.0,0.0,0.0,0.0,0.0,0.0,0.0,0.0,0.0,0.0,0.0,0.0,0.0,0.0,0.0,0.0,0.0,0.0,0.0,0.0,0.0,0.0,0.0,0.0,0.0,0.0,0.0,0.0,0.0,0.0,0.0,0.0,0.0,0.0,0.0,0.0,0.0,0.0,0.0,0.0,0.0,0.0,0.0,0.0,0.0,0.0,0.0,0.0,0.0,0.0,0.0,0.0,0.0,0.0,0.0,0.0,0.0,0.0,0.0,0.0,0.0,0.0,0.0,0.0,0.0,0.0,0.0,0.0,0.0,0.0,0.0,0.0,0.0,0.0,0.0,0.0,0.0,0.0,0.0,0.0,0.0,0.0,0.0,0.0,0.0,0.0,0.0,0.0,0.0,0.0,0.0,0.0,0.0,0.0,0.0,0.0,0.0,0.0,0.0,0.0,0.0,0.0,0.0,0.0,0.0,0.0,0.0,0.0,0.0,0.0,0.0,0.0,0.0,0.0,0.0,0.0,0.0,0.0,0.0,0.0,0.0,0.0,0.0,0.0,0.0,0.0,0.0,0.0,0.0,0.0,0.0,0.0,0.0,0.0,0.0,0.0,0.0,0.0,0.0,0.0,0.0,0.0,0.0,0.0,0.0,0.0,0.0,0.0,0.0,0.0,0.0,0.0,0.0,0.0,0.0,0.0,0.0,0.0,0.0,0.0,0.0,0.0,0.0,0.0,0.0,0.0,0.0,0.0,0.0,0.0,0.0,0.0,0.0,0.0,0.0,0.0,0.0,0.0,0.0,0.0,0.0,0.0,0.0,0.0,0.0,0.0,0.0,0.0,0.0,0.0,0.0,0.0,0.0,0.0,0.0,0.0,0.0,0.0,0.0,0.0,0.0,0.0,0.0,0.0,0.0,0.0,0.0,0.0,0.0,0.0,0.0,0.0,0.0,0.0,0.0,0.0,0.0,0.0,0.0,0.0,0.0,0.0,0.0,0.0,0.0,0.0,0.0,0.0,0.0,0.0,0.0,0.0,0.0,0.0,0.0,0.0,0.0,0.0,0.0,0.0,0.0,0.0,0.0,0.0,0.0,0.0,0.0,0.0,0.0,0.0,0.0,0.0,0.0,0.0,0.0,0.0,0.0,0.0,0.0,0.0,0.0,0.0,0.0,0.0,0.0,0.0,0.0,0.0,0.0,0.0,0.0,0.0,0.0,0.0,0.0,0.0,0.0,0.0,0.0,0.0,0.0,0.0,0.0,0.0,0.0,0.0,0.0,0.0,0.0,0.0,0.0,0.0,0.0,0.0,0.0,0.0,0.0,0.0,0.0,0.0,0.0,0.0,0.0,0.0,0.0,0.0,0.0,0.0,0.0,0.0,0.0,0.0,0.0,0.0,0.0,0.0,0.0,0.0,0.0,0.0,0.0,0.0,0.0,0.0,0.0,0.0,0.0,0.0,0.0,0.0,0.0,0.0,0.0,0.0,0.0,0.0,0.0,0.0,0.0,0.0,0.0,0.0,0.0,0.0,0.0,0.0,0.0,0.0,0.0,0.0,0.0,0.0,0.0,0.0,0.0,0.0,0.0,0.0,0.0,0.0,0.0,0.0,0.0,0.0,0.0,0.0,0.0,0.0,0.0,0.0,0.0,0.0,0.0,0.0,0.0,0.0,0.0,0.0,0.0,0.0,0.0,0.0,0.0,0.0,0.0,0.0,0.0,0.0,0.0,0.0,0.0,0.0,0.0,0.0,0.0,0.0,0.0,0.0,0.0,0.0,0.0,0.0,0.0,0.0,0.0,0.0,0.0,0.0,0.0,0.0,0.0,0.0,0.0,0.0,0.0,0.0,0.0,0.0,0.0,0.0,0.0,0.0,0.0,0.0,0.0,0.0,0.0,0.0,0.0,0.0,0.0,0.0,0.0,0.0,0.0,0.0,0.0,0.0,0.0,0.0,0.0,0.0,0.0,0.0,0.0,0.0,0.0,0.0,0.0,0.0,0.0,0.0,0.0,0.0,0.0,0.0,0.0,0.0,0.0,0.0,0.0,0.0,0.0,0.0,0.0,0.0,0.0,0.0,0.0,0.0,0.0,0.0,0.0,0.0,0.0,0.0,0.0,0.0,0.0,0.0,0.0,0.0,0.0,0.0,0.0,0.0,0.0,0.0,0.0,0.0,0.0,0.0,0.0,0.0,0.0,0.0,0.0,0.0,0.0,0.0,0.0,0.0,0.0,0.0,0.0,0.0,0.0,0.0,0.0,0.0,0.0,0.0,0.0,0.0,0.0,0.0,0.0,0.0,0.0,0.0,0.0,0.0,0.0,0.0,0.0,0.0,0.0,0.0,0.0,0.0,0.0,0.0,0.0,0.0,0.0,0.0,0.0,0.0,0.0,0.0,0.0,0.0,0.0,0.0,0.0,0.0,0.0,0.0,0.0,0.0,0.0,0.0,0.0,0.0,0.0,0.0,0.0,0.0,0.0,0.0,0.0,0.0,0.0,0.0,0.0,0.0,0.0,0.0,0.0,0.0,0.0,0.0,0.0,0.0,0.0,0.0,0.0,0.0,0.0,0.0,0.0,0.0,0.0,0.0,0.0,0.0,0.0,0.0,0.0,0.0,0.0,0.0,0.0,0.0,0.0,0.0,0.0,0.0,0.0,0.0,0.0,0.0,0.0,0.0,0.0,0.0,0.0,0.0,0.0,0.0,0.0,0.0,0.0,0.0,0.0,0.0,0.0,0.0,0.0,0.0,0.0,0.0,0.0,0.0,0.0,0.0,0.0,0.0,0.0,0.0,0.0,0.0,0.0,0.0,0.0,0.0,0.0,0.0,0.0,0.0,0.0,0.0,0.0,0.0,0.0,0.0,0.0,0.0,0.0,0.0,0.0,0.0,0.0,0.0,0.0,0.0,0.0,0.0,0.0,0.0,0.0,0.0,0.0,0.0,0.0,0.0,0.0,0.0,0.0,0.0,0.0,0.0,0.0,0.0,0.0,0.0,0.0,0.0,0.0,0.0,0.0,0.0,0.0,0.0,0.0,0.0,0.0,0.0,0.0,0.0,0.0,0.0,0.0,0.0,0.0,0.0,0.0,0.0,0.0,0.0,0.0,0.0,0.0,0.0,0.0,0.0,0.0,0.0,0.0,0.0,0.0,0.0,0.0,0.0,0.0,0.0,0.0,0.0,0.0,0.0,0.0,0.0,0.0,0.0,0.0,0.0,0.0,0.0,0.0,0.0,0.0,0.0,0.0,0.0,0.0,0.0,0.0,0.0,0.0,0.0,0.0,0.0,0.0,0.0,0.0,0.0,0.0,0.0,0.0,0.0,0.0,0.0,0.0,0.0,0.0,0.0,0.0,0.0,0.0,0.0,0.0,0.0,0.0,0.0,0.0,0.0,0.0,0.0,0.0,0.0,0.0,0.0,0.0,0.0,0.0,0.0,0.0,0.0,0.0,0.0,0.0,0.0,0.0,0.0,0.0,0.0,0.0,0.0,0.0,0.0,0.0,0.0,0.0,0.0,0.0,0.0,0.0,0.0,0.0,0.0,0.0,0.0,0.0,0.0,0.0,0.0,0.0,0.0,0.0,0.0,0.0,0.0,0.0,0.0,0.0,0.0,0.0,0.0,0.0,0.0,0.0,0.0,0.0,0.0,0.0,0.0,0.0,0.0,0.0,0.0,0.0,0.0,0.0,0.0,0.0,0.0,0.0,0.0,0.0,0.0,0.0,0.0,0.0,0.0,0.0,0.0,0.0,0.0,0.0,0.0,0.0,0.0,0.0,0.0,0.0,0.0,0.0,0.0,0.0,0.0,0.0,0.0,0.0,0.0,0.0,0.0,0.0,0.0,0.0,0.0,0.0,0.0,0.0,0.0,0.0,0.0,0.0,0.0,0.0,0.0,0.0,0.0,0.0,0.0,0.0,0.0,0.0,0.0,0.0,0.0,0.0,0.0,0.0,0.0,0.0,0.0,0.0,0.0,0.0,0.0,0.0,0.0,0.0,0.0,0.0,0.0,0.0,0.0,0.0,0.0,0.0,0.0,0.0,0.0,0.0,0.0,0.0,0.0,0.0,0.0,0.0,0.0,0.0,0.0,0.0,0.0,0.0,0.0,0.0,0.0,0.0,0.0,0.0,0.0,0.0,0.0,0.0,0.0,0.0,0.0,0.0,0.0,0.0,0.0,0.0,0.0,0.0,0.0,0.0,0.0,0.0,0.0,0.0,0.0,0.0,0.0,0.0,0.0,0.0,0.0,0.0,0.0,0.0,0.0,0.0,0.0,0.0,0.0,0.0,0.0,0.0,0.0,0.0,0.0,0.0,0.0,0.0,0.0,0.0,0.0,0.0,0.0,0.0,0.0,0.0,0.0,0.0,0.0,0.0,0.0,0.0,0.0,0.0,0.0,0.0,0.0,0.0,0.0,0.0,0.0,0.0,0.0,0.0,0.0,0.0,0.0,0.0,0.0,0.0,0.0,0.0,0.0,0.0,0.0,0.0,0.0,0.0,0.0,0.0,0.0,0.0,0.0,0.0,0.0,0.0,0.0,0.0,0.0,0.0,0.0,0.0,0.0,0.0,0.0,0.0,0.0,0.0,0.0,0.0,0.0,0.0,0.0,0.0,0.0,0.0,0.0,0.0,0.0,0.0,0.0,0.0,0.0,0.0,0.0,0.0,0.0,0.0,0.0,0.0,0.0,0.0,0.0,0.0,0.0,0.0,0.0,0.0,0.0,0.0,0.0,0.0,0.0,0.0,0.0,0.0,0.0,0.0,0.0,0.0,0.0,0.0,0.0,0.0,0.0,0.0,0.0,0.0,0.0,0.0,0.0,0.0,0.0,0.0,0.0,0.0,0.0,0.0,0.0,0.0,0.0,0.0,0.0,0.0,0.0,0.0,0.0,0.0,0.0,0.0,0.0,0.0,0.0,0.0,0.0,0.0,0.0,0.0,0.0,0.0,0.0,0.0,0.0,0.0,0.0,0.0,0.0,0.0,0.0,0.0,0.0,0.0,0.0,0.0,0.0,0.0,0.0,0.0,0.0,0.0,0.0,0.0,0.0,0.0,0.0,0.0,0.0,0.0,0.0,0.0,0.0,0.0,0.0,0.0,0.0,0.0,0.0,0.0,0.0,0.0,0.0,0.0,0.0,0.0,0.0,0.0,0.0,0.0,0.0,0.0,0.0,0.0,0.0,0.0,0.0,0.0,0.0,0.0,0.0,0.0,0.0,0.0,0.0,0.0,0.0,0.0,0.0,0.0,0.0,0.0,0.0,0.0,0.0,0.0,0.0,0.0,0.0,0.0,0.0,0.0,0.0,0.0,0.0,0.0,0.0,0.0,0.0,0.0,0.0,0.0,0.0,0.0,0.0,0.0,0.0,0.0,0.0,0.0,0.0,0.0,0.0,0.0,0.0,0.0,0.0,0.0,0.0,0.0,0.0,0.0,0.0,0.0,0.0,0.0,0.0,0.0,0.0,0.0,0.0,0.0,0.0,0.0,0.0,0.0,0.0,0.0,0.0,0.0,0.0,0.0,0.0,0.0,0.0,0.0,0.0,0.0,0.0,0.0,0.0,0.0,0.0,0.0,0.0,0.0,0.0,0.0,0.0,0.0,0.0,0.0,0.0,0.0,0.0,0.0,0.0,0.0,0.0,0.0,0.0,0.0,0.0,0.0,0.0,0.0,0.0,0.0,0.0,0.0,0.0,0.0,0.0,0.0,0.0,0.0,0.0,0.0,0.0,0.0,0.0,0.0,0.0,0.0,0.0,0.0,0.0,0.0,0.0,0.0,0.0,0.0,0.0,0.0,0.0,0.0,0.0,0.0,0.0,0.0,0.0,0.0,0.0,0.0,0.0,0.0,0.0,0.0,0.0,0.0,0.0,0.0,0.0,0.0,0.0,0.0,0.0,0.0,0.0,0.0,0.0,0.0,0.0,0.0,0.0,0.0,0.0,0.0,0.0,0.0,0.0,0.0,0.0,0.0,0.0,0.0,0.0,0.0,0.0,0.0,0.0,-4.074,-4.078,0.0,0.0,0.0,0.0,0.0,0.0,0.0,0.0,0.0,0.0,0.0,0.0,0.0,0.0,0.0,0.0,0.0,0.0,0.0,0.0,0.0,0.0,0.0,0.0,0.0,0.0,0.0,0.0,0.0,0.0,0.0,0.0,0.0,0.0,0.0,0.0,0.0,0.0,0.0,0.0,0.0,0.0,0.0,0.0,0.0,0.0,0.0,0.0,0.0,0.0,0.0,0.0,0.0,0.0,0.0,0.0,0.0,0.0,0.0,0.0,0.0,0.0,0.0,0.0,0.0,0.0,0.0,0.0,0.0,0.0,0.0,0.0,0.0,0.0,0.0,0.0,0.0,0.0,0.0,0.0,0.0,0.0,0.0,0.0,0.0,0.0,0.0,0.0,0.0,0.0,0.0,0.0,0.0,0.0,0.0,0.0,0.0,0.0,0.0,0.0,0.0,0.0,0.0,0.0,0.0,0.0,0.0,0.0,0.0,0.0,0.0,0.0,0.0,0.0,-4.0888,-4.103,0.0,0.0,0.0,0.0,0.0,0.0,0.0,0.0,0.0,0.0,0.0,0.0,0.0,0.0,0.0,0.0,0.0,0.0,0.0,0.0,0.0,0.0,0.0,0.0,0.0,0.0,0.0,0.0,0.0,0.0,0.0,0.0,0.0,0.0,0.0,0.0,0.0,0.0,0.0,0.0,0.0,0.0,0.0,0.0,0.0,0.0,0.0,0.0,0.0,0.0,0.0,0.0,0.0,0.0,0.0,0.0,0.0,0.0,0.0,0.0,0.0,0.0,0.0,0.0,0.0,0.0,0.0,0.0,0.0,0.0,0.0,0.0,0.0,0.0,0.0,0.0,0.0,0.0,0.0,0.0,0.0,0.0,0.0,0.0,0.0,0.0,0.0,0.0,0.0,0.0,0.0,0.0,0.0,0.0,0.0,0.0,0.0,0.0,0.0,0.0,0.0,0.0,0.0,0.0,0.0,0.0,0.0,0.0,-4.0935,-4.0888,-4.0888,-4.1009,-4.1078,-4.1078,-4.1216,-4.1543,-4.196,-4.185,0.0,0.0,0.0,0.0,0.0,0.0,0.0,0.0,0.0,0.0,0.0,0.0,0.0,0.0,0.0,0.0,0.0,0.0,0.0,0.0,0.0,0.0,0.0,0.0,0.0,0.0,0.0,0.0,0.0,0.0,0.0,0.0,0.0,0.0,0.0,0.0,0.0,0.0,0.0,0.0,0.0,0.0,0.0,0.0,0.0,0.0,0.0,0.0,0.0,0.0,0.0,0.0,0.0,0.0,0.0,0.0,0.0,0.0,0.0,0.0,0.0,0.0,0.0,0.0,0.0,0.0,0.0,0.0,0.0,0.0,0.0,0.0,0.0,0.0,0.0,0.0,0.0,0.0,0.0,0.0,0.0,0.0,0.0,0.0,0.0,0.0,-3.8168,-3.8052,0.0,0.0,0.0,0.0,0.0,0.0,0.0,0.0,0.0,0.0,0.0,0.0,0.0,-3.9708,-3.9915,-4.0498,-4.0832,-4.0935,-4.0935,-4.0888,-4.0905,-4.1543,-4.1836,-4.1871,-4.2561,0.0,-4.1847,-4.2533,0.0,0.0,0.0,0.0,0.0,0.0,0.0,0.0,0.0,0.0,0.0,0.0,0.0,0.0,0.0,0.0,0.0,0.0,0.0,0.0,0.0,0.0,0.0,0.0,0.0,0.0,0.0,0.0,0.0,0.0,0.0,0.0,0.0,0.0,0.0,0.0,0.0,0.0,0.0,0.0,0.0,0.0,0.0,0.0,0.0,0.0,0.0,0.0,0.0,0.0,0.0,0.0,0.0,0.0,0.0,0.0,0.0,0.0,0.0,0.0,0.0,0.0,0.0,0.0,0.0,0.0,0.0,0.0,0.0,0.0,0.0,0.0,0.0,0.0,0.0,0.0,0.0,0.0,0.0,0.0,0.0,0.0,0.0,0.0,0.0,-3.8186,-3.7984,-3.7792,-3.7595,-3.7392,0.0,0.0,0.0,0.0,0.0,0.0,0.0,0.0,0.0,-3.8832,-3.9461,-4.0014,-4.0464,-4.0763,-4.0888,-4.0888,-4.0888,-4.1095,-4.1509,-4.1836,-4.2233,-4.2699,-4.3508,-4.3595,-4.3201,-4.3494,-4.3974,-4.45,0.0,0.0,0.0,0.0,-4.5211,-4.5528,0.0,0.0,0.0,0.0,0.0,0.0,0.0,0.0,0.0,0.0,0.0,0.0,0.0,0.0,0.0,0.0,0.0,0.0,0.0,0.0,0.0,0.0,0.0,0.0,0.0,0.0,0.0,0.0,0.0,0.0,0.0,0.0,0.0,0.0,0.0,0.0,0.0,0.0,0.0,0.0,0.0,0.0,0.0,0.0,0.0,0.0,0.0,0.0,0.0,0.0,0.0,0.0,0.0,0.0,0.0,0.0,0.0,0.0,0.0,0.0,0.0,0.0,0.0,0.0,0.0,0.0,0.0,0.0,0.0,0.0,0.0,0.0,0.0,0.0,0.0,0.0,0.0,-3.7984,-3.781,-3.7577,-3.7392,-3.7203,0.0,0.0,0.0,0.0,0.0,0.0,-3.7551,-3.7862,-3.856,-3.9664,-3.9888,-4.0284,-4.0871,-4.0888,-4.0888,-4.0888,-4.1078,-4.1457,-4.1992,-4.2388,-4.2906,-4.3492,-4.4251,-4.4578,-4.4561,-4.4475,-4.4749,-4.5177,-4.4978,-4.5032,-4.5177,-4.5086,-4.5194,-4.5423,0.0,0.0,0.0,0.0,0.0,0.0,0.0,0.0,0.0,0.0,0.0,0.0,0.0,0.0,0.0,0.0,0.0,0.0,0.0,0.0,0.0,0.0,0.0,0.0,0.0,0.0,0.0,0.0,0.0,0.0,0.0,0.0,0.0,0.0,0.0,0.0,0.0,0.0,0.0,0.0,0.0,0.0,0.0,0.0,0.0,0.0,0.0,0.0,0.0,0.0,0.0,0.0,0.0,0.0,0.0,0.0,0.0,0.0,0.0,0.0,0.0,0.0,0.0,0.0,0.0,0.0,0.0,0.0,0.0,0.0,0.0,0.0,0.0,0.0,0.0,0.0,0.0,0.0,0.0,-3.7429,-3.7164,0.0,0.0,0.0,0.0,-3.6502,-3.7093,-3.7482,-3.7517,-3.8819,-3.9612,-3.9698,-4.0422,-4.0836,-4.0888,-4.0888,-4.0888,-4.0888,-4.1595,-4.194,-4.2043,-4.3492,-4.4182,-4.4268,-4.5027,-4.5354,-4.5372,-4.5319,-4.5266,-4.5177,-4.5194,-4.5177,-4.5177,-4.5177,-4.53,-4.5423,0.0,0.0,0.0,0.0,0.0,0.0,0.0,0.0,0.0,0.0,0.0,0.0,0.0,0.0,0.0,0.0,0.0,0.0,0.0,0.0,0.0,0.0,0.0,0.0,0.0,0.0,0.0,0.0,0.0,0.0,0.0,0.0,0.0,0.0,0.0,0.0,0.0,0.0,0.0,0.0,0.0,0.0,0.0,0.0,0.0,0.0,0.0,0.0,0.0,0.0,0.0,0.0,0.0,0.0,0.0,0.0,0.0,0.0,0.0,0.0,0.0,0.0,0.0,0.0,0.0,0.0,0.0,0.0,0.0,0.0,0.0,0.0,0.0,0.0,0.0,0.0,0.0,0.0,0.0,-3.7223,-3.7009,0.0,-3.6725,-3.6585,-3.6669,-3.7128,-3.7361,-3.7905,-3.8853,-3.9405,-3.9939,-4.044,-4.0733,-4.0888,-4.0888,-4.0888,-4.1129,-4.1595,-4.1854,-4.2509,-4.3475,-4.4027,-4.4544,-4.5027,-4.5303,-4.5423,-4.5423,-4.5423,-4.5371,-4.53,-4.523,-4.5247,-4.53,-4.523,-4.53,-4.5423,0.0,0.0,0.0,0.0,0.0,0.0,0.0,0.0,0.0,0.0,0.0,0.0,0.0,0.0,0.0,0.0,0.0,0.0,0.0,0.0,0.0,0.0,0.0,0.0,0.0,0.0,0.0,0.0,0.0,0.0,0.0,0.0,0.0,0.0,0.0,0.0,0.0,0.0,0.0,0.0,0.0,0.0,-3.895,0.0,0.0,0.0,0.0,0.0,0.0,0.0,0.0,0.0,0.0,0.0,0.0,0.0,0.0,0.0,0.0,0.0,0.0,0.0,0.0,0.0,0.0,0.0,0.0,0.0,0.0,0.0,0.0,0.0,0.0,0.0,0.0,0.0,0.0,-3.7466,-3.7317,-3.7108,-3.6891,-3.6766,-3.6702,-3.6787,-3.7024,-3.75,-3.7939,-3.8663,-3.9646,-3.9957,-4.0336,-4.0853,-4.0888,-4.0888,-4.0888,-4.1129,-4.1509,-4.1992,-4.2509,-4.3285,-4.4285,-4.4544,-4.4941,-4.5423,-4.5423,-4.5423,-4.5423,-4.5423,-4.5423,-4.5371,-4.53,-4.53,-4.5371,-4.53,-4.53,-4.5423,0.0,0.0,0.0,0.0,0.0,0.0,0.0,0.0,0.0,0.0,0.0,0.0,0.0,0.0,0.0,0.0,0.0,0.0,0.0,0.0,0.0,0.0,0.0,0.0,0.0,0.0,0.0,0.0,0.0,0.0,0.0,0.0,0.0,0.0,0.0,0.0,0.0,0.0,0.0,0.0,0.0,0.0,-3.891,0.0,0.0,0.0,0.0,0.0,0.0,0.0,0.0,0.0,0.0,0.0,0.0,0.0,0.0,0.0,0.0,0.0,0.0,0.0,0.0,0.0,0.0,0.0,0.0,0.0,0.0,0.0,0.0,0.0,0.0,0.0,0.0,0.0,-3.7613,-3.741,-3.7259,-3.7108,-3.6869,-3.6702,-3.6737,-3.7188,-3.7508,-3.756,-3.8888,-3.9715,-3.9733,-4.0474,-4.0888,-4.0888,-4.0888,-4.0888,-4.0888,-4.1612,-4.1992,-4.2043,-4.3561,-4.4285,-4.4337,-4.5079,-4.5423,-4.5423,-4.5423,-4.5423,-4.5423,-4.5423,-4.5423,-4.5423,-4.5423,-4.5423,-4.5423,-4.5423,-4.5423,-4.5423,0.0,0.0,0.0,0.0,0.0,0.0,0.0,0.0,0.0,0.0,0.0,0.0,0.0,0.0,0.0,0.0,0.0,0.0,0.0,0.0,0.0,0.0,0.0,0.0,0.0,0.0,0.0,0.0,0.0,0.0,0.0,0.0,0.0,0.0,0.0,0.0,0.0,0.0,0.0,0.0,0.0,0.0,-3.8822,0.0,0.0,0.0,0.0,0.0,0.0,0.0,0.0,0.0,0.0,0.0,0.0,0.0,0.0,0.0,0.0,0.0,0.0,0.0,0.0,0.0,0.0,0.0,0.0,0.0,0.0,0.0,0.0,0.0,0.0,0.0,-3.7703,-3.7649,-3.741,-3.7334,-3.722,-3.7048,-3.6869,-3.6975,-3.745,-3.755,-3.7992,-3.9008,-3.9457,-3.9939,-4.0526,-4.0767,-4.0888,-4.0888,-4.0888,-4.0888,-4.0888,-4.1612,-4.2268,-4.2854,-4.382,-4.4578,-4.5113,-4.5337,-4.5423,-4.5423,-4.5423,-4.5423,-4.5423,-4.5423,-4.5423,-4.5423,-4.5423,-4.5423,-4.5423,-4.5423,-4.5423,-4.5423,0.0,0.0,0.0,0.0,0.0,0.0,0.0,0.0,0.0,0.0,0.0,0.0,0.0,0.0,0.0,0.0,0.0,0.0,0.0,0.0,0.0,0.0,0.0,0.0,0.0,0.0,0.0,0.0,0.0,0.0,0.0,0.0,0.0,0.0,0.0,0.0,0.0,0.0,0.0,0.0,0.0,0.0,-3.8683,-3.8541,-3.8478,-3.8401,-3.8368,-3.8336,-3.8322,-3.8274,0.0,0.0,0.0,0.0,0.0,0.0,0.0,0.0,0.0,0.0,0.0,0.0,0.0,0.0,0.0,0.0,0.0,0.0,0.0,0.0,0.0,0.0,0.0,0.0,-3.7667,-3.7577,-3.7354,-3.7334,-3.722,-3.7048,-3.7189,-3.7452,-3.7864,-3.8304,-3.8901,-3.9738,-4.0055,-4.0388,-4.0853,-4.0888,-4.0888,-4.0888,-4.0888,-4.1026,-4.1336,-4.2095,-4.2871,-4.3647,-4.4406,-4.4992,-4.5423,-4.5423,-4.5423,-4.5423,-4.5423,-4.5423,-4.5423,-4.5423,-4.5423,-4.5423,0.0,0.0,0.0,0.0,-4.5423,-4.5423,0.0,0.0,0.0,0.0,0.0,0.0,0.0,0.0,0.0,0.0,0.0,0.0,0.0,0.0,0.0,0.0,0.0,0.0,0.0,0.0,0.0,0.0,0.0,0.0,0.0,0.0,0.0,0.0,0.0,0.0,0.0,0.0,0.0,0.0,0.0,0.0,0.0,0.0,0.0,0.0,0.0,0.0,-3.851,-3.8478,-3.8401,-3.8307,-3.8307,-3.8241,-3.8192,-3.8192,0.0,0.0,0.0,0.0,0.0,0.0,0.0,0.0,0.0,0.0,0.0,0.0,0.0,0.0,0.0,0.0,0.0,0.0,0.0,0.0,0.0,0.0,0.0,0.0,-3.7649,-3.754,-3.7429,-3.7354,-3.7259,-3.7108,-3.7654,-3.8058,-3.8105,-3.9242,-3.9995,-4.0037,-4.0585,-4.0935,-4.0935,-4.0935,0.0,0.0,0.0,-4.1319,-4.1974,-4.2854,-4.363,-4.4285,-4.5061,-4.5423,-4.5423,-4.5423,-4.5423,-4.5423,-4.5423,-4.5423,-4.5423,-4.5423,-4.5423,-4.5423,-4.5423,-4.5423,-4.5423,-4.5423,-4.5423,-4.5423,0.0,0.0,0.0,0.0,0.0,0.0,0.0,0.0,0.0,0.0,0.0,0.0,0.0,0.0,0.0,0.0,0.0,0.0,0.0,0.0,0.0,0.0,0.0,0.0,0.0,0.0,0.0,0.0,0.0,0.0,0.0,0.0,0.0,0.0,0.0,0.0,0.0,0.0,0.0,0.0,0.0,0.0,-3.8478,-3.8368,-3.8322,-3.8307,-3.8241,-3.8225,-3.8192,-3.8192,-3.8192,-3.8192,-3.8192,0.0,0.0,0.0,0.0,0.0,0.0,0.0,0.0,0.0,0.0,0.0,0.0,0.0,0.0,0.0,0.0,0.0,0.0,0.0,0.0,-3.7613,-3.7613,-3.7577,-3.7577,-3.7466,-3.7299,-3.7108,-3.7774,-3.8433,-3.8839,-3.9704,-4.0401,-4.0902,-4.1036,-4.1047,-4.1047,-4.0935,-4.0888,-4.0888,-4.1457,-4.1836,-4.1992,-4.3371,-4.413,-4.4285,-4.5061,0.0,-4.5423,-4.5423,-4.5423,-4.5423,-4.5423,-4.5423,-4.5423,-4.5423,-4.5423,-4.5423,-4.5423,-4.5423,-4.5423,-4.5423,-4.5423,-4.5423,0.0,0.0,0.0,0.0,0.0,0.0,0.0,0.0,0.0,0.0,0.0,0.0,0.0,0.0,0.0,0.0,0.0,0.0,0.0,0.0,0.0,0.0,0.0,0.0,0.0,0.0,0.0,0.0,0.0,0.0,0.0,0.0,0.0,0.0,0.0,0.0,0.0,0.0,0.0,0.0,0.0,0.0,-3.8446,-3.8322,-3.8274,-3.8241,-3.8122,-3.8088,-3.8088,-3.8088,-3.8088,-3.8122,-3.8174,-3.8192,-3.8192,0.0,0.0,0.0,0.0,0.0,0.0,0.0,0.0,0.0,0.0,0.0,0.0,0.0,0.0,-3.8002,-3.7899,0.0,-3.7667,-3.7613,-3.7577,-3.7577,-3.7577,-3.7897,-3.8033,-3.7845,-3.8514,-3.9188,-3.9779,-4.0525,-4.1068,-4.1283,-4.1198,-4.1123,-4.1093,-4.1047,-4.0982,-4.0888,-4.1595,-4.2181,-4.2578,-4.3716,-4.4475,-4.4854,-4.5234,-4.5423,-4.5423,-4.5423,-4.5423,-4.5423,-4.5423,-4.5423,-4.5423,-4.5423,-4.5423,-4.5423,-4.5423,-4.5423,-4.5423,-4.5423,-4.5423,-4.5423,0.0,0.0,0.0,0.0,0.0,0.0,0.0,0.0,0.0,0.0,0.0,0.0,0.0,0.0,0.0,0.0,0.0,0.0,0.0,0.0,0.0,0.0,0.0,0.0,0.0,0.0,0.0,0.0,0.0,0.0,0.0,0.0,0.0,0.0,0.0,0.0,0.0,0.0,0.0,0.0,0.0,0.0,-3.8368,-3.8289,-3.8207,-3.814,-3.8036,-3.7984,-3.8002,-3.8002,-3.8002,-3.8002,-3.8122,-3.8174,-3.8174,-3.8192,-3.8192,0.0,0.0,0.0,0.0,0.0,0.0,0.0,0.0,-3.8192,-3.8192,-3.8192,-3.8088,-3.7967,-3.7899,-3.7775,-3.7667,-3.7613,-3.7577,-3.7577,-3.7577,-3.829,-3.8806,-3.8854,-3.9447,-4.0053,-4.0605,-4.1235,-4.1604,-4.1471,-4.1318,-4.118,-4.1123,-4.1093,-4.1116,-4.1095,-4.1819,-4.2595,-4.3439,-4.413,-4.482,-4.5423,-4.5423,-4.5423,-4.5423,-4.5423,-4.5423,-4.5423,-4.5423,-4.5423,-4.5423,-4.5423,-4.5423,-4.5423,-4.5423,-4.5423,-4.5423,-4.5423,-4.5423,-4.5423,0.0,0.0,0.0,0.0,0.0,0.0,0.0,0.0,0.0,0.0,0.0,0.0,0.0,0.0,0.0,0.0,0.0,0.0,0.0,0.0,0.0,0.0,0.0,0.0,0.0,0.0,0.0,0.0,0.0,0.0,0.0,0.0,0.0,0.0,0.0,0.0,0.0,0.0,0.0,0.0,0.0,0.0,-3.8289,-3.8104,-3.8036,-3.8018,-3.8018,-3.7967,-3.7899,-3.7899,-3.7899,-3.7916,-3.8002,-3.8018,-3.8036,-3.8174,0.0,-3.8192,-3.8192,-3.8192,-3.8192,-3.8192,-3.8192,-3.8192,0.0,-3.8192,-3.8192,-3.8192,-3.8038,-3.7899,-3.7899,-3.7739,-3.7613,-3.7577,-3.7577,-3.7577,-3.7577,-3.829,-3.9058,-3.9661,-4.0402,-4.0813,-4.0784,-4.1364,-4.178,-4.1736,-4.1515,-4.1318,-4.1209,-4.1123,-4.1358,-4.1836,-4.263,-4.3388,-4.4147,-4.4906,-4.5337,-4.5423,-4.5423,-4.5423,-4.5423,-4.5423,-4.5423,-4.5423,-4.5423,-4.5423,-4.5423,-4.5423,-4.5423,-4.5423,-4.5423,-4.5423,-4.5423,-4.5423,-4.5423,-4.5423,0.0,0.0,0.0,0.0,0.0,0.0,0.0,0.0,0.0,0.0,0.0,0.0,0.0,0.0,0.0,0.0,0.0,0.0,0.0,0.0,0.0,0.0,0.0,0.0,0.0,0.0,0.0,0.0,0.0,0.0,0.0,0.0,0.0,0.0,0.0,0.0,0.0,0.0,0.0,0.0,0.0,0.0,-3.8171,-3.8052,-3.7915,-3.7792,-3.781,-3.7828,0.0,0.0,-3.7792,-3.7792,-3.7949,-3.7984,-3.8036,-3.8174,-3.8192,0.0,-3.8192,-3.8192,-3.8192,-3.8192,-3.8192,-3.8192,-3.8192,-3.8192,-3.8192,-3.8192,-3.8038,-3.7899,-3.7899,-3.7739,-3.7577,-3.7577,-3.7577,-3.7755,-3.8237,-3.8968,-3.9736,-4.0521,-4.1283,-4.1683,-4.1582,-4.18,-4.1909,-4.1823,-4.1692,-4.156,-4.1318,-4.1679,-4.1938,-4.2089,-4.3232,-4.3958,-4.4285,-4.5044,-4.5423,-4.5423,-4.5423,-4.5423,-4.5423,-4.5423,-4.5423,-4.5423,-4.5423,-4.5423,-4.5423,-4.5423,-4.5423,-4.5423,-4.5423,-4.5423,-4.5423,-4.5423,-4.5423,-4.5423,0.0,0.0,0.0,0.0,0.0,0.0,0.0,0.0,0.0,0.0,0.0,0.0,0.0,0.0,0.0,0.0,0.0,0.0,0.0,0.0,0.0,0.0,0.0,0.0,0.0,0.0,0.0,0.0,0.0,0.0,0.0,0.0,0.0,0.0,0.0,0.0,0.0,0.0,0.0,0.0,0.0,0.0,-3.8018,-3.7915,-3.7757,-3.7631,-3.7631,-3.7649,0.0,0.0,-3.7631,-3.7667,-3.7898,-3.7967,-3.8002,-3.814,-3.8192,-3.8192,-3.8192,-3.8192,-3.8192,-3.8192,-3.8192,-3.8192,-3.8192,-3.8192,-3.8192,-3.8192,-3.8038,-3.7899,-3.7899,-3.7739,-3.7577,-3.7577,-3.7577,-3.7862,-3.8701,-3.945,-4.0199,-4.1002,-4.1805,-4.2246,-4.2145,-4.2103,-4.2019,-4.1884,-4.1841,-4.178,-4.1723,-4.2143,-4.2536,-4.2826,-4.38,-4.4371,-4.4596,-4.5147,-4.5423,-4.5423,-4.5423,-4.5423,-4.5423,-4.5423,-4.5423,-4.5423,-4.5423,-4.5423,-4.5423,-4.5423,-4.5423,-4.5423,-4.5423,-4.5423,-4.5423,-4.5423,-4.5423,-4.5423,0.0,0.0,0.0,0.0,0.0,0.0,0.0,0.0,0.0,0.0,0.0,0.0,0.0,0.0,0.0,0.0,0.0,0.0,0.0,0.0,0.0,0.0,0.0,0.0,0.0,0.0,0.0,0.0,0.0,0.0,0.0,0.0,0.0,0.0,0.0,0.0,0.0,0.0,0.0,0.0,0.0,0.0,-3.7899,-3.7703,-3.7631,-3.7577,-3.7613,0.0,0.0,0.0,-3.7429,-3.7466,-3.7793,-3.7899,0.0,-3.8158,-3.8192,-3.8192,-3.8192,-3.8192,-3.8192,-3.8192,-3.8192,-3.8192,-3.8192,-3.8192,-3.8192,-3.8192,-3.8038,-3.7899,-3.7899,-3.7739,-3.7577,-3.7577,-3.7577,-3.7862,-3.8701,-3.945,-4.0199,-4.1002,-4.1805,-4.2287,-4.2287,-4.2205,-4.2079,-4.2005,-4.1884,-4.2027,-4.2555,-4.2486,-4.3023,-4.4418,-4.4353,-4.463,-4.5389,-4.5406,-4.5423,-4.5423,-4.5423,-4.5423,-4.5423,-4.5423,-4.5423,-4.5423,-4.5423,-4.5423,-4.5423,-4.5423,-4.5423,-4.5423,-4.5423,-4.5423,-4.5423,-4.5423,-4.5423,-4.5423,0.0,0.0,0.0,0.0,0.0,0.0,0.0,0.0,0.0,0.0,0.0,0.0,0.0,0.0,0.0,0.0,0.0,0.0,0.0,0.0,0.0,0.0,0.0,0.0,0.0,0.0,0.0,0.0,0.0,0.0,0.0,0.0,0.0,0.0,0.0,0.0,0.0,0.0,0.0,0.0,0.0,0.0,-3.7667,-3.7484,-3.7334,-3.7164,0.0,0.0,0.0,0.0,-3.7392,-3.7466,-3.7775,-3.7899,-3.7934,-3.8158,-3.8192,-3.8192,-3.8192,-3.8192,-3.8192,-3.8192,-3.8192,-3.8192,-3.8192,-3.8192,-3.8192,-3.8192,-3.8038,-3.7899,-3.7899,-3.7739,-3.7577,-3.7577,-3.8041,-3.8665,-3.9432,-4.0199,-4.1002,-4.1787,-4.2126,-4.2287,-4.2287,-4.2246,-4.2181,-4.2005,-4.2404,-4.2661,-4.2735,-4.348,-4.4167,-4.464,-4.4872,-4.5165,-4.5423,-4.5423,-4.5423,-4.5423,-4.5423,-4.5423,-4.5423,-4.5423,-4.5423,-4.5423,-4.5423,-4.5423,-4.5423,-4.5423,-4.5423,-4.5423,-4.5423,-4.5423,-4.5423,-4.5423,-4.5423,-4.5423,0.0,0.0,0.0,0.0,0.0,0.0,0.0,0.0,0.0,0.0,0.0,0.0,0.0,0.0,0.0,0.0,0.0,0.0,0.0,0.0,0.0,0.0,0.0,0.0,0.0,0.0,0.0,0.0,0.0,0.0,0.0,0.0,0.0,0.0,0.0,0.0,0.0,0.0,0.0,0.0,0.0,0.0,-3.7392,-3.722,-3.7027,0.0,0.0,0.0,0.0,0.0,-3.7299,-3.7447,-3.7793,-3.7934,-3.8038,-3.8158,-3.8192,-3.8192,-3.8192,-3.8192,-3.8192,-3.8192,-3.8192,-3.8192,-3.8192,-3.8192,-3.8192,-3.814,-3.8003,-3.7899,-3.7846,-3.7703,-3.7577,-3.7577,-3.8272,-3.9075,-3.9807,-4.0592,-4.1395,-4.2198,-4.2287,-4.2287,-4.2287,-4.2555,-4.265,-4.2395,-4.2837,-4.3262,-4.3588,-4.4331,-4.4829,-4.509,-4.5269,-4.5423,-4.5423,-4.5423,-4.5423,-4.5423,-4.5423,-4.5423,-4.5423,-4.5423,-4.5423,-4.5423,-4.5423,-4.5423,-4.5423,-4.5423,-4.5423,-4.5423,-4.5423,-4.5423,-4.5423,-4.5423,-4.5423,-4.5423,0.0,0.0,0.0,0.0,0.0,0.0,0.0,0.0,0.0,0.0,0.0,0.0,0.0,0.0,0.0,0.0,0.0,0.0,0.0,0.0,0.0,0.0,0.0,0.0,0.0,0.0,0.0,0.0,0.0,0.0,0.0,0.0,0.0,0.0,0.0,0.0,0.0,0.0,0.0,0.0,0.0,0.0,-3.7069,-3.6851,0.0,0.0,0.0,0.0,0.0,0.0,-3.7203,-3.7372,-3.7793,-3.8056,-3.8192,-3.8192,-3.8192,-3.8192,-3.8192,-3.8192,-3.8192,-3.8192,-3.8192,-3.8192,-3.8192,-3.8192,-3.8174,-3.8036,-3.7951,-3.7864,-3.7703,-3.7649,-3.7577,-3.7577,-3.8308,-3.9111,-3.9807,-4.0628,-4.1431,-4.2198,-4.2287,-4.2305,-4.2341,-4.3054,-4.339,-4.3209,-4.3227,-4.3792,-4.501,-4.489,-4.509,-4.5752,-4.5528,-4.5423,-4.5423,-4.5423,-4.5423,-4.5423,-4.5423,-4.5423,-4.5423,-4.5423,-4.5423,-4.5423,-4.5423,-4.5423,-4.5423,-4.5423,-4.5423,-4.5423,-4.5423,-4.5423,-4.5423,-4.5423,-4.5423,-4.5423,0.0,0.0,0.0,0.0,0.0,0.0,0.0,0.0,0.0,0.0,0.0,0.0,0.0,0.0,0.0,0.0,0.0,0.0,0.0,0.0,0.0,0.0,0.0,0.0,0.0,0.0,0.0,0.0,0.0,0.0,0.0,0.0,0.0,0.0,0.0,0.0,0.0,0.0,0.0,0.0,0.0,0.0,-3.6713,0.0,0.0,0.0,0.0,0.0,0.0,0.0,-3.7279,-3.7649,-3.7828,-3.8056,-3.8192,-3.8192,-3.8192,-3.8192,-3.8192,-3.8192,-3.8192,-3.8192,-3.8192,-3.8192,-3.8192,-3.8192,-3.8174,-3.8036,-3.7951,-3.7864,-3.7703,-3.7649,-3.7577,-3.7577,-3.8736,-3.97,-3.9878,-4.1109,-4.2055,-4.2269,-4.2287,-4.2537,-4.3144,-4.3291,-4.3748,-4.4731,-4.482,-4.4876,-4.508,-4.5396,-4.5629,-4.577,-4.5528,-4.5423,-4.5423,-4.5423,-4.5423,-4.5423,-4.5423,-4.5423,-4.5423,-4.5423,-4.5423,-4.5423,-4.5423,-4.5423,-4.5423,-4.5423,-4.5423,-4.5423,-4.5423,-4.5423,-4.5423,-4.5423,-4.5423,-4.5423,0.0,0.0,0.0,0.0,0.0,0.0,0.0,0.0,0.0,0.0,0.0,0.0,0.0,0.0,0.0,0.0,0.0,0.0,0.0,0.0,0.0,0.0,0.0,0.0,0.0,0.0,0.0,0.0,0.0,0.0,0.0,0.0,0.0,0.0,0.0,0.0,0.0,0.0,0.0,0.0,0.0,0.0,0.0,0.0,0.0,0.0,0.0,0.0,0.0,0.0,0.0,-3.7703,-3.7864,-3.8056,-3.8192,-3.8192,-3.8192,-3.8192,-3.8192,-3.8192,-3.8192,-3.8192,-3.8192,-3.8192,-3.8192,-3.814,-3.8088,-3.7985,-3.7881,-3.7757,-3.7685,-3.7613,-3.7577,-3.7577,-3.8897,-3.9914,-3.9914,-4.1288,-4.2287,-4.2287,-4.2608,-4.3001,-4.3465,-4.3978,-4.4591,-4.5351,-4.5375,-4.5411,-4.5474,-4.5695,-4.577,-4.5718,-4.5528,-4.5423,-4.5423,-4.5423,-4.5423,-4.5423,-4.5423,-4.5423,-4.5423,-4.5423,-4.5423,-4.5423,-4.5423,-4.5423,-4.5423,-4.5423,-4.5423,-4.5423,-4.5423,-4.5423,-4.5423,-4.5423,-4.5423,-4.5423,0.0,0.0,0.0,0.0,0.0,0.0,0.0,0.0,0.0,0.0,0.0,0.0,0.0,0.0,0.0,0.0,0.0,0.0,0.0,0.0,0.0,0.0,0.0,0.0,0.0,0.0,0.0,0.0,0.0,0.0,0.0,0.0,0.0,0.0,0.0,0.0,0.0,0.0,0.0,0.0,0.0,0.0,0.0,0.0,0.0,0.0,0.0,0.0,0.0,0.0,-3.7356,-3.7685,-3.7864,-3.8038,-3.8174,-3.8192,-3.8192,-3.8192,-3.8192,-3.8192,-3.8192,-3.8192,-3.8192,-3.8174,-3.8174,-3.8088,-3.7967,-3.7899,-3.7792,-3.7667,-3.7613,-3.7577,-3.7577,-3.7577,-3.8897,-3.9914,-3.9914,-4.1288,-4.2287,-4.2287,-4.3019,-4.3554,-4.3618,-4.4814,-4.5549,-4.5517,-4.5476,-4.5585,-4.5988,-4.5871,-4.5718,-4.5581,-4.5476,-4.5423,-4.5423,-4.5423,-4.5423,-4.5423,-4.5423,-4.5423,-4.5423,-4.5423,-4.5423,-4.5423,-4.5423,-4.5423,-4.5423,-4.5423,-4.5423,-4.5423,-4.5423,-4.5423,-4.5423,-4.5423,-4.5423,-4.5423,0.0,0.0,0.0,0.0,0.0,0.0,0.0,0.0,0.0,0.0,-3.3549,0.0,0.0,0.0,0.0,0.0,0.0,0.0,0.0,0.0,0.0,0.0,0.0,0.0,0.0,0.0,0.0,0.0,0.0,0.0,0.0,0.0,0.0,0.0,0.0,0.0,0.0,0.0,0.0,0.0,0.0,0.0,0.0,0.0,0.0,0.0,0.0,0.0,0.0,0.0,-3.7261,-3.7503,-3.7828,-3.7951,-3.8036,-3.8174,-3.8192,-3.8192,-3.8192,-3.8192,-3.8192,-3.8192,-3.8122,-3.8036,-3.8036,-3.7985,-3.7881,-3.7757,-3.7703,-3.7667,-3.7613,-3.7577,-3.7577,-3.7577,-3.8897,-3.9914,-3.9914,-4.1288,-4.2287,-4.2287,-4.3019,-4.3725,-4.428,-4.4999,-4.5623,-4.6182,-4.601,-4.5883,-4.6023,-4.5871,-4.5667,-4.5423,-4.5423,-4.5423,-4.5423,-4.5423,-4.5423,-4.5423,-4.5423,-4.5423,-4.5423,-4.5423,-4.5423,-4.5423,-4.5423,-4.5423,-4.5423,-4.5423,-4.5423,-4.5423,-4.5423,-4.5423,-4.5423,-4.5423,-4.5423,-4.5423,0.0,0.0,0.0,0.0,0.0,0.0,0.0,0.0,0.0,0.0,-3.3399,-3.3298,0.0,0.0,0.0,0.0,0.0,0.0,0.0,0.0,0.0,0.0,0.0,0.0,0.0,0.0,0.0,0.0,0.0,0.0,0.0,0.0,0.0,0.0,0.0,0.0,0.0,0.0,0.0,0.0,0.0,0.0,0.0,0.0,0.0,0.0,0.0,0.0,0.0,0.0,-3.7126,-3.7392,-3.7685,-3.7881,-3.7951,-3.8038,-3.8072,-3.8088,-3.8038,-3.8072,-3.8088,-3.8038,-3.8003,-3.7951,-3.7951,-3.7881,-3.7792,-3.7703,-3.7667,-3.7649,-3.7631,-3.7577,-3.7577,-3.7577,-3.8897,-3.9914,-3.9914,-4.1288,-4.2287,-4.2287,-4.3333,-4.4138,-4.4467,-4.5351,-4.6023,-4.6363,-4.6154,-4.5972,-4.5871,-4.5718,-4.5528,-4.5423,-4.5423,-4.5423,-4.5423,-4.5423,-4.5423,-4.5423,-4.5423,-4.5423,-4.5423,-4.5423,-4.5423,-4.5423,-4.5423,-4.5423,-4.5423,-4.5423,-4.5423,-4.5423,-4.5423,-4.5423,-4.5423,-4.5423,-4.5423,-4.5423,0.0,0.0,0.0,0.0,0.0,0.0,0.0,-3.5398,-3.4508,-3.4211,-3.3517,-3.3134,-3.3386,-3.3194,-3.3024,0.0,0.0,0.0,0.0,0.0,0.0,0.0,0.0,0.0,0.0,0.0,0.0,-3.6131,-3.6131,0.0,0.0,0.0,0.0,0.0,-3.5622,0.0,0.0,0.0,0.0,0.0,0.0,0.0,0.0,0.0,0.0,0.0,0.0,0.0,0.0,0.0,-3.697,-3.7297,-3.7522,-3.7739,-3.7864,-3.7899,-3.7951,-3.7967,-3.7934,-3.7951,-3.7967,-3.7899,-3.7864,-3.7864,-3.7864,-3.7757,-3.7667,-3.7667,-3.7649,-3.7577,-3.7577,-3.7594,-3.754,-3.754,-3.8859,-3.9836,-3.9836,-4.1207,-4.2264,-4.2264,-4.3543,-4.4458,-4.4414,-4.5594,-4.6398,-4.6301,-4.6073,-4.5871,-4.577,-4.5528,-4.5423,-4.5423,-4.5423,-4.5423,-4.5423,-4.5423,-4.5423,-4.5423,-4.5423,-4.5423,-4.5423,-4.5423,-4.5423,-4.5423,-4.5423,-4.5423,-4.5423,-4.5423,-4.5423,-4.5423,-4.5423,-4.5423,-4.5423,-4.5423,-4.5423,-4.5423,0.0,0.0,0.0,0.0,0.0,0.0,0.0,-3.6004,-3.5632,-3.4816,-3.4023,-3.353,-3.3477,-3.3148,-3.2834,0.0,0.0,0.0,0.0,0.0,0.0,0.0,0.0,0.0,0.0,0.0,0.0,-3.565,-3.565,0.0,0.0,0.0,0.0,0.0,0.0,-3.5337,-3.5337,0.0,0.0,0.0,0.0,0.0,0.0,0.0,0.0,0.0,0.0,0.0,0.0,0.0,0.0,-3.7066,-3.7259,-3.7503,-3.7757,-3.7846,-3.7899,-3.7899,-3.7899,-3.7899,-3.7899,-3.7899,-3.781,-3.7703,-3.7703,-3.7649,-3.7613,-3.7613,-3.7613,-3.7577,-3.7577,-3.7503,-3.7429,-3.7429,-3.8667,-3.9615,-3.9615,-4.0996,-4.2048,-4.2048,-4.3368,-4.4261,-4.4124,-4.5499,-4.6301,-4.6073,-4.577,-4.5632,-4.5632,-4.5476,-4.5423,-4.5423,-4.5423,-4.5423,-4.5423,-4.5423,-4.5423,-4.5423,-4.5423,-4.5423,-4.5423,-4.5423,-4.5423,-4.5423,-4.5423,-4.5423,-4.5423,-4.5423,-4.5423,-4.5423,-4.5423,-4.5423,-4.5423,-4.5423,-4.5423,-4.5423,0.0,0.0,0.0,0.0,0.0,0.0,0.0,-3.6262,-3.5799,-3.5387,-3.4611,-3.4084,-3.4065,-3.3841,-3.3336,0.0,0.0,0.0,0.0,0.0,0.0,0.0,0.0,0.0,0.0,0.0,-3.5412,-3.5165,-3.5165,0.0,0.0,0.0,0.0,0.0,0.0,-3.4804,-3.4804,0.0,0.0,0.0,0.0,0.0,0.0,0.0,0.0,0.0,0.0,0.0,-3.6208,-3.6385,0.0,0.0,-3.7105,-3.7297,0.0,0.0,-3.7685,-3.7757,-3.7739,-3.7739,-3.7757,-3.7739,-3.7685,-3.7649,-3.7649,-3.7577,-3.7466,-3.7466,-3.7447,-3.741,-3.741,-3.7372,-3.7334,-3.7334,-3.8589,-3.9615,-3.9615,-4.0996,-4.2005,-4.2005,-4.3279,-4.417,-4.4124,-4.5374,-4.6073,-4.577,-4.5667,-4.5563,-4.5476,-4.5423,-4.5423,-4.5423,-4.5423,-4.5423,-4.5423,-4.5423,-4.5423,-4.5423,-4.5423,-4.5423,-4.5423,-4.5423,-4.5423,-4.5423,-4.5423,-4.5423,-4.5423,-4.5423,-4.5423,-4.5423,-4.5423,-4.5423,-4.5423,-4.5423,-4.5476,-4.5528,0.0,0.0,0.0,0.0,0.0,0.0,-3.7031,-3.6496,-3.6046,-3.5946,-3.5223,-3.4675,-3.4579,-3.4293,-3.3706,-3.2674,0.0,0.0,0.0,0.0,0.0,0.0,0.0,0.0,0.0,0.0,-3.4947,-3.4691,-3.4691,-3.4643,0.0,0.0,-3.4497,-3.4497,0.0,0.0,0.0,0.0,0.0,0.0,0.0,0.0,0.0,0.0,0.0,0.0,0.0,0.0,0.0,0.0,0.0,0.0,0.0,0.0,0.0,0.0,-3.7466,-3.7577,-3.7503,-3.754,-3.7577,-3.7503,-3.7521,-3.7521,-3.7521,-3.7429,-3.7354,-3.7354,-3.7334,-3.7297,-3.7297,-3.7259,-3.7259,-3.7259,-3.8316,-3.9229,-3.9458,-4.07,-4.1654,-4.1884,-4.2934,-4.3722,-4.395,-4.5114,-4.5821,-4.5615,-4.5563,-4.5528,-4.5423,-4.5423,-4.5423,-4.5423,-4.5423,-4.5423,-4.5423,-4.5423,-4.5423,-4.5423,-4.5423,-4.5423,-4.5423,-4.5423,-4.5423,-4.5423,-4.5423,-4.5423,-4.5423,-4.5423,-4.5423,-4.5423,-4.5423,-4.5423,-4.5423,-4.5423,-4.5528,-4.5632,0.0,0.0,0.0,0.0,0.0,0.0,0.0,-3.6811,-3.6731,-3.6527,-3.5844,-3.5278,-3.5022,-3.4329,-3.3802,-3.3505,0.0,0.0,0.0,0.0,0.0,0.0,0.0,0.0,0.0,0.0,0.0,-3.43,-3.4151,-3.4101,-3.4101,-3.4101,-3.4101,-3.4101,0.0,0.0,0.0,0.0,0.0,0.0,0.0,0.0,0.0,0.0,0.0,0.0,0.0,0.0,0.0,0.0,0.0,0.0,0.0,0.0,0.0,0.0,-3.7297,-3.7297,-3.7297,-3.7297,-3.7297,-3.7297,-3.7297,-3.7297,-3.7297,-3.7297,-3.7297,-3.7297,-3.7297,-3.7297,-3.7297,-3.7203,-3.7108,-3.7108,-3.7681,-3.8392,-3.9199,-3.9989,-4.0779,-4.1516,-4.2216,-4.2894,-4.3628,-4.4866,-4.5615,-4.5632,-4.5476,-4.5423,-4.5423,-4.5423,-4.5423,-4.5423,-4.5423,-4.5423,-4.5423,-4.5423,-4.5423,-4.5423,-4.5423,-4.5423,-4.5423,-4.5423,-4.5423,-4.5423,-4.5423,-4.5423,-4.5423,-4.5423,-4.5423,-4.5423,-4.5423,-4.5423,-4.5423,-4.5581,-4.5632,-4.5667,0.0,0.0,0.0,0.0,0.0,0.0,0.0,-3.6667,-3.6585,-3.6502,-3.617,-3.5907,-3.5847,-3.5455,-3.5146,-3.4939,0.0,0.0,0.0,0.0,0.0,0.0,0.0,0.0,0.0,0.0,0.0,0.0,-3.3797,-3.3797,-3.3694,-3.3797,-3.3848,-3.3848,-3.3848,-3.3899,0.0,0.0,0.0,0.0,0.0,0.0,0.0,0.0,0.0,0.0,0.0,0.0,0.0,0.0,0.0,0.0,0.0,0.0,0.0,0.0,0.0,0.0,-3.7297,-3.7297,-3.7297,-3.7297,-3.7297,-3.7297,-3.7297,-3.7203,-3.7147,-3.7147,-3.7048,-3.6948,-3.6948,-3.6869,-3.6829,-3.6829,-3.7417,-3.8185,-3.8988,-3.9757,-4.0507,-4.1258,-4.2451,-4.3471,-4.4188,-4.5077,-4.5581,-4.5476,-4.5423,-4.5423,-4.5423,-4.5423,-4.5423,-4.5423,-4.5423,-4.5423,-4.5423,-4.5423,-4.5423,-4.5423,-4.5423,-4.5371,-4.5247,-4.5247,-4.5194,-4.5157,-4.5157,-4.5157,-4.5157,-4.5157,-4.5194,-4.5247,-4.5247,-4.5353,-4.5528,-4.5563,-4.5752,-4.6055,0.0,0.0,0.0,0.0,0.0,0.0,0.0,-3.6544,-3.6461,-3.6377,-3.6293,-3.6182,-3.6036,-3.5861,-3.5639,-3.5441,0.0,0.0,0.0,0.0,0.0,0.0,0.0,0.0,0.0,0.0,0.0,0.0,0.0,-3.3361,-3.3256,-3.3346,-3.345,-3.345,-3.3555,-3.3607,0.0,0.0,0.0,0.0,0.0,0.0,-3.4151,0.0,0.0,0.0,0.0,0.0,0.0,0.0,0.0,0.0,0.0,0.0,0.0,0.0,-3.6846,-3.7066,0.0,-3.7066,-3.7066,-3.7066,-3.7066,-3.7066,-3.7066,0.0,-3.693,-3.693,-3.6869,-3.6748,-3.6748,-3.6725,-3.6702,-3.6702,-3.7085,-3.7746,-3.8868,-3.9425,-4.006,-4.1059,-4.2489,-4.3568,-4.3954,-4.4906,-4.5476,-4.5423,-4.5423,-4.5423,-4.5423,-4.5371,-4.53,-4.53,-4.5371,-4.5423,-4.5423,-4.5371,-4.53,-4.53,-4.5264,-4.5211,-4.5123,-4.5123,-4.5086,-4.4978,-4.4978,-4.4978,0.0,-4.5032,-4.5123,-4.5194,-4.5247,-4.5406,-4.5615,-4.5701,-4.5763,-4.5796,0.0,0.0,0.0,0.0,0.0,0.0,0.0,0.0,0.0,0.0,-3.6182,-3.6079,-3.5817,-3.5667,-3.5441,0.0,0.0,0.0,0.0,0.0,0.0,0.0,0.0,0.0,0.0,0.0,0.0,-3.3043,-3.2951,-3.2897,-3.2897,0.0,-3.2951,-3.3096,-3.3203,0.0,0.0,0.0,0.0,0.0,0.0,0.0,0.0,0.0,0.0,0.0,0.0,0.0,0.0,0.0,0.0,0.0,0.0,0.0,0.0,0.0,0.0,0.0,0.0,-3.6702,-3.6702,-3.6702,-3.6702,-3.6702,0.0,0.0,0.0,0.0,0.0,-3.6702,-3.6702,-3.6702,-3.6643,-3.6643,-3.6643,-3.7206,-3.8686,-3.8981,-3.9564,-4.092,-4.2327,-4.3227,-4.3214,-4.4492,-4.5354,-4.5423,-4.5371,-4.5371,-4.5371,-4.5247,-4.5194,-4.5194,-4.5318,-4.5371,-4.5371,-4.5247,-4.5194,-4.5177,-4.5086,-4.4978,-4.4978,-4.4978,-4.4978,-4.4978,-4.4978,-4.4978,-4.4978,-4.514,-4.5194,-4.5194,-4.5353,-4.5441,-4.558,-4.5817,-4.5509,-4.5035,0.0,0.0,0.0,0.0,0.0,0.0,0.0,0.0,0.0,0.0,-3.6036,-3.5817,-3.5667,-3.5549,0.0,0.0,0.0,0.0,0.0,0.0,0.0,0.0,0.0,0.0,0.0,0.0,0.0,-3.2703,-3.2843,-3.2843,-3.2648,-3.2843,0.0,0.0,0.0,0.0,0.0,0.0,0.0,0.0,0.0,0.0,0.0,0.0,0.0,0.0,-3.425,-3.4546,0.0,0.0,0.0,0.0,0.0,0.0,0.0,0.0,-3.631,-3.6335,-3.636,0.0,-3.6702,-3.6702,-3.6702,-3.6702,0.0,0.0,0.0,0.0,0.0,0.0,0.0,-3.6444,-3.6402,-3.6402,-3.6402,-3.6748,-3.7698,-3.8822,-3.9893,-4.0814,-4.1747,-4.2541,-4.3162,-4.4009,-4.4785,-4.5389,-4.53,-4.5247,-4.5247,-4.514,-4.5032,-4.5032,-4.5086,-4.5086,-4.5086,-4.5086,-4.5032,-4.5032,-4.5032,-4.494,-4.4831,-4.4831,-4.4776,-4.4682,-4.4682,-4.4682,-4.4682,-4.4831,-4.4923,-4.5086,-4.5283,-4.5234,-4.5015,-4.5145,-4.5006,-4.4698,0.0,0.0,0.0,0.0,0.0,0.0,0.0,0.0,0.0,0.0,0.0,0.0,0.0,0.0,0.0,0.0,0.0,0.0,0.0,0.0,0.0,0.0,0.0,0.0,0.0,0.0,0.0,0.0,0.0,-3.2594,0.0,0.0,0.0,0.0,0.0,0.0,0.0,0.0,0.0,0.0,-3.3293,0.0,0.0,0.0,0.0,0.0,-3.405,-3.43,0.0,-3.4804,-3.5071,-3.5304,0.0,0.0,0.0,0.0,-3.6165,-3.6225,-3.6233,-3.636,-3.6502,-3.6502,-3.6502,-3.6502,-3.6502,0.0,0.0,0.0,0.0,0.0,0.0,-3.636,-3.6301,-3.6301,-3.6301,-3.6697,-3.7836,-3.8974,-3.9991,-4.0784,-4.1543,-4.2164,-4.2595,-4.3579,-4.4354,-4.4767,-4.5005,-4.514,-4.514,-4.4978,-4.494,-4.494,-4.4473,-4.4511,-4.4978,-4.4599,-4.4374,-4.4374,-4.3946,-4.3722,-4.363,-4.363,-4.363,-4.3521,-4.3521,-4.3593,-4.3647,-4.3793,-4.3953,-4.4164,-4.4354,-4.4399,-4.4423,-4.4595,-4.4377,-4.4071,0.0,0.0,0.0,0.0,0.0,0.0,0.0,0.0,0.0,0.0,0.0,0.0,0.0,0.0,0.0,0.0,0.0,0.0,0.0,0.0,0.0,0.0,0.0,0.0,0.0,0.0,0.0,0.0,0.0,0.0,0.0,0.0,-3.2453,0.0,0.0,0.0,0.0,0.0,0.0,0.0,-3.2897,0.0,0.0,0.0,0.0,0.0,0.0,0.0,0.0,-3.4594,-3.4804,-3.4947,-3.535,0.0,0.0,0.0,0.0,0.0,-3.6182,-3.6251,-3.6301,-3.6301,-3.6301,-3.6301,-3.6301,0.0,0.0,0.0,0.0,0.0,0.0,-3.6301,-3.6301,-3.6301,-3.6301,-3.6835,-3.837,-3.9129,-3.9871,-4.0767,-4.144,-4.1822,-4.1926,-4.3013,-4.3786,-4.3906,-4.4451,-4.4807,-4.4807,-4.4644,-4.4606,-4.4606,-4.3694,-4.3664,-4.4565,-4.3861,-4.3501,-4.3501,-4.2661,-4.2286,-4.2286,-4.2286,-4.2286,-4.2286,-4.2286,0.0,-4.2515,-4.2654,-4.2877,-4.313,-4.3279,-4.3502,-4.3792,-4.3986,-4.3738,-4.3334,0.0,0.0,0.0,0.0,0.0,0.0,0.0,0.0,0.0,0.0,0.0,0.0,0.0,0.0,0.0,0.0,0.0,0.0,0.0,0.0,0.0,0.0,0.0,0.0,0.0,0.0,0.0,0.0,0.0,0.0,-3.2247,-3.2342,-3.2453,-3.2594,0.0,0.0,-3.2897,-3.2897,-3.2897,-3.2897,-3.2897,0.0,0.0,0.0,0.0,0.0,0.0,0.0,0.0,-3.4151,-3.4349,-3.4594,-3.493,0.0,0.0,0.0,0.0,0.0,-3.5975,-3.6122,-3.6251,-3.6301,-3.6301,-3.6301,-3.6301,0.0,0.0,0.0,0.0,0.0,0.0,-3.6301,-3.6301,-3.6301,-3.6301,-3.6835,-3.837,-3.8681,-3.9239,-4.0573,-4.0848,-4.1109,-4.161,-4.1834,-4.2261,-4.2963,-4.3539,-4.3912,-4.3912,-4.3715,-4.3589,-4.3589,-4.2861,-4.2577,-4.2678,-4.2577,-4.2526,-4.2526,-4.2354,-4.2286,-4.2286,-4.2286,-4.2286,-4.2286,0.0,-4.2356,-4.2515,-4.2654,-4.2877,-4.313,-4.3506,-4.3407,-4.3102,-4.3393,-4.3191,-4.2789,0.0,0.0,0.0,0.0,0.0,0.0,0.0,0.0,0.0,0.0,0.0,0.0,0.0,0.0,0.0,0.0,0.0,0.0,0.0,0.0,0.0,0.0,0.0,0.0,0.0,0.0,0.0,0.0,0.0,-3.215,-3.2191,-3.2342,-3.2453,-3.2523,0.0,0.0,-3.2648,-3.2718,-3.2703,-3.2648,0.0,0.0,0.0,0.0,0.0,0.0,0.0,0.0,0.0,0.0,-3.4,-3.425,-3.4594,0.0,0.0,0.0,0.0,0.0,-3.5756,-3.5932,-3.6122,-3.6233,-3.6259,-3.6301,-3.6301,0.0,0.0,0.0,0.0,0.0,0.0,-3.6131,-3.6131,-3.6131,-3.6131,-3.6663,-3.8191,-3.8397,-3.8917,-4.0412,-4.0583,-4.072,-4.0996,-4.1289,-4.1648,-4.2023,-4.2617,-4.2935,-4.2935,-4.2864,-4.2811,-4.2811,-4.2083,-4.1711,-4.1711,-4.1288,-4.1288,-4.1694,-4.1288,-4.1102,-4.1102,-4.1102,-4.1102,-4.1102,0.0,-4.1257,-4.1409,-4.156,-4.1808,-4.2129,-4.2428,-4.2519,-4.2508,-4.2946,-4.3012,-4.2899,0.0,0.0,0.0,0.0,0.0,0.0,0.0,0.0,0.0,0.0,0.0,0.0,0.0,0.0,0.0,0.0,0.0,0.0,0.0,0.0,0.0,0.0,0.0,0.0,0.0,0.0,-3.1727,-3.1727,-3.1898,-3.2038,-3.2191,-3.2302,-3.2342,0.0,0.0,0.0,-3.2398,-3.2523,-3.2523,-3.2398,0.0,0.0,0.0,0.0,0.0,0.0,0.0,0.0,0.0,0.0,0.0,0.0,0.0,0.0,0.0,-3.4899,-3.5182,-3.5441,-3.5487,-3.5711,-3.5932,-3.6079,0.0,-3.6276,-3.6276,0.0,0.0,0.0,0.0,0.0,0.0,-3.6019,-3.6019,-3.6019,-3.6019,-3.6505,-3.7991,-3.8213,-3.8777,-4.0248,-4.0436,-4.0436,-4.0436,-4.0848,-4.1087,-4.1087,-4.1662,-4.2033,-4.2033,-4.2033,-4.2033,-4.2033,-4.1322,-4.0933,-4.0933,-4.0358,-4.0358,-4.0933,-4.0358,-4.007,-4.007,-4.007,-4.007,-4.007,-4.0121,-4.0288,-4.0534,-4.0697,-4.0965,-4.1255,-4.1542,-4.1892,-4.2269,-4.2667,-4.2917,-4.3104,0.0,0.0,0.0,0.0,0.0,0.0,0.0,0.0,0.0,0.0,0.0,0.0,0.0,0.0,0.0,0.0,0.0,0.0,0.0,0.0,0.0,0.0,0.0,0.0,0.0,-3.1539,-3.1539,-3.1539,-3.1727,-3.194,-3.2191,-3.2191,-3.2302,-3.2398,0.0,0.0,-3.2398,-3.2398,-3.2398,-3.2398,-3.2398,0.0,0.0,0.0,0.0,0.0,0.0,0.0,0.0,0.0,0.0,0.0,0.0,0.0,-3.4201,-3.4448,-3.4739,-3.4994,-3.5245,-3.5458,-3.5667,-3.5817,0.0,0.0,-3.6225,-3.6225,0.0,-3.6019,0.0,0.0,0.0,-3.6019,-3.6019,-3.6019,-3.6019,-3.6505,-3.7991,-3.8213,-3.873,-4.0167,-4.0288,-4.0288,-4.0121,-4.0172,-4.0206,-4.0206,-4.0865,-4.1288,-4.1288,-4.1288,-4.1288,-4.1288,-4.0544,-4.0155,-4.0155,-4.0104,-4.0104,-4.0155,-4.0104,-4.007,-4.007,-4.007,-4.007,-4.0138,-4.0238,-4.0387,-4.0534,-4.0776,-4.1059,-4.1426,-4.1692,-4.2103,-4.257,-4.2745,-4.2917,-4.3104,0.0,0.0,0.0,0.0,0.0,0.0,0.0,0.0,0.0,0.0,0.0,0.0,0.0,0.0,0.0,0.0,0.0,0.0,0.0,0.0,0.0,0.0,0.0,-3.1482,-3.1482,-3.1482,-3.1482,-3.1482,-3.1727,-3.1898,-3.2094,-3.2135,0.0,0.0,0.0,0.0,-3.2398,-3.2398,-3.2398,-3.2398,-3.2398,-3.2398,0.0,0.0,0.0,0.0,0.0,0.0,0.0,0.0,-3.2935,-3.3112,0.0,-3.3607,-3.3813,-3.4151,-3.4497,-3.4804,-3.4994,-3.5291,-3.5566,-3.5639,0.0,0.0,0.0,-3.6079,-3.6036,-3.5905,-3.5861,0.0,0.0,-3.5756,-3.5756,-3.5756,-3.5756,-3.6112,-3.7165,-3.7725,-3.8404,-3.9391,-3.9917,-4.0138,-4.0121,-4.007,-4.007,-4.007,-4.0341,-4.051,-4.051,-4.051,-4.051,-4.051,-4.0223,-4.007,-4.007,-4.007,-4.007,-4.007,-4.007,-4.007,-4.007,-4.007,-4.007,-4.0138,-4.0238,-4.0387,-4.0534,-4.0888,-4.1169,-4.1471,-4.1977,-4.2409,-4.2745,-4.2899,-4.3049,-4.3196,0.0,0.0,0.0,0.0,0.0,0.0,0.0,0.0,0.0,0.0,0.0,0.0,0.0,0.0,0.0,0.0,0.0,0.0,0.0,0.0,0.0,0.0,0.0,-3.1482,-3.1482,-3.1482,-3.1482,-3.1482,-3.167,-3.1841,-3.1996,0.0,0.0,0.0,0.0,0.0,-3.2398,-3.2398,-3.2398,-3.2398,-3.2398,-3.2398,0.0,0.0,0.0,0.0,0.0,0.0,0.0,0.0,-3.2703,0.0,0.0,0.0,0.0,0.0,-3.425,-3.4594,-3.4804,-3.5135,-3.5446,0.0,0.0,0.0,-3.5844,-3.5888,-3.5905,-3.5756,-3.5728,-3.5728,-3.5622,-3.5622,-3.5622,-3.5622,-3.5622,-3.5893,-3.6671,-3.7229,-3.7905,-3.887,-3.9428,-3.9817,-4.0054,-4.007,-4.007,-4.007,-4.007,-4.007,-4.007,-4.007,-4.007,-4.007,-4.007,-4.007,-4.007,-4.007,-4.007,-4.007,-4.007,-4.007,-4.007,-4.007,-4.007,-4.0121,-4.0288,-4.0436,-4.0583,-4.0965,-4.1335,-4.1675,-4.2251,-4.2609,-4.2822,-4.303,-4.316,-4.3214,0.0,0.0,0.0,0.0,0.0,0.0,0.0,0.0,0.0,0.0,0.0,0.0,0.0,0.0,0.0,0.0,0.0,0.0,0.0,0.0,0.0,0.0,0.0,-3.1482,-3.1482,-3.1482,-3.1482,-3.1482,-3.1482,-3.164,-3.1996,-3.1996,0.0,0.0,0.0,0.0,0.0,0.0,-3.2398,-3.2398,-3.2398,-3.2398,-3.2398,0.0,0.0,0.0,0.0,0.0,0.0,0.0,-3.2594,0.0,0.0,0.0,0.0,0.0,-3.4,-3.4349,-3.4643,-3.4994,-3.5337,0.0,0.0,0.0,-3.5622,-3.5711,-3.5773,-3.5622,-3.5622,-3.5622,-3.5622,-3.5622,-3.5622,-3.5622,-3.5622,-3.5893,-3.6671,-3.6772,-3.733,-3.8802,-3.8988,-3.9276,-3.9986,-4.007,-4.007,-4.007,-4.007,-4.007,-4.007,-4.007,-4.007,-4.007,-4.007,-4.007,-4.007,-4.007,-4.007,-4.007,-4.007,-4.007,-4.007,-4.007,-4.007,-4.0138,-4.037,-4.0583,-4.0745,-4.1088,-4.1569,-4.2145,-4.249,-4.2688,-4.284,-4.303,-4.316,-4.3214,0.0,0.0,0.0,0.0,0.0,0.0,0.0,0.0,0.0,0.0,0.0,0.0,0.0,0.0,0.0,0.0,0.0,0.0,0.0,0.0,0.0,0.0,0.0,0.0,0.0,0.0,-3.1482,-3.1482,-3.1482,-3.164,0.0,0.0,0.0,-3.2398,0.0,0.0,0.0,0.0,-3.2398,-3.2398,-3.2398,-3.2398,-3.2398,0.0,0.0,0.0,0.0,0.0,0.0,0.0,0.0,0.0,0.0,0.0,0.0,-3.345,-3.3797,-3.4101,-3.4448,-3.4851,0.0,-3.5354,0.0,0.0,0.0,-3.5622,0.0,0.0,-3.5622,-3.5622,-3.5622,-3.5622,-3.5622,-3.5622,-3.5622,-3.569,-3.5926,-3.6434,-3.6941,-3.7381,-3.7905,-3.8311,-3.8531,-3.9005,-3.9326,-3.9326,-3.9783,-4.007,-4.007,-4.007,-4.007,-4.007,-4.007,-4.007,-4.007,-4.007,-4.007,-4.007,-4.007,-4.007,-4.007,-4.007,-4.0138,-4.0238,-4.0436,-4.0631,-4.0888,-4.1426,-4.1892,-4.2351,-4.2512,-4.2709,-4.29,-4.3105,-4.3178,-4.3251,0.0,0.0,0.0,0.0,0.0,0.0,0.0,0.0,0.0,0.0,0.0,0.0,0.0,0.0,0.0,0.0,0.0,0.0,0.0,0.0,0.0,0.0,0.0,0.0,0.0,-3.1482,-3.1482,0.0,0.0,0.0,0.0,0.0,0.0,-3.2398,0.0,-3.2398,0.0,0.0,-3.2398,-3.2398,-3.2398,-3.2398,-3.2398,0.0,0.0,0.0,0.0,0.0,0.0,0.0,0.0,0.0,0.0,0.0,0.0,-3.3398,-3.3761,-3.405,-3.4399,-3.4851,0.0,-3.5291,-3.5458,-3.5622,-3.5622,0.0,0.0,0.0,-3.5622,-3.5622,-3.5622,-3.5622,-3.5622,-3.5622,-3.5622,-3.5622,-3.5622,-3.6028,-3.6434,-3.6738,-3.7178,-3.7584,-3.7872,-3.8311,-3.8565,-3.8565,-3.8971,-3.9343,-3.9631,-3.9648,-3.9783,-4.007,-4.007,-4.007,-4.007,-4.007,-4.007,-4.007,-4.007,-4.007,-4.007,-4.007,-4.0188,-4.0305,-4.0583,-4.0935,-4.1198,-4.1719,-4.2103,-4.2432,-4.2609,-4.2804,-4.2994,-4.3142,-4.3251,-4.3286,0.0,0.0,0.0,0.0,0.0,0.0,0.0,0.0,0.0,0.0,0.0,0.0,0.0,0.0,0.0,0.0,0.0,0.0,0.0,0.0,0.0,0.0,0.0,0.0,0.0,0.0,0.0,0.0,0.0,0.0,0.0,0.0,-3.2135,-3.2398,0.0,-3.2398,0.0,0.0,-3.2453,-3.2453,-3.2453,-3.2398,-3.2398,-3.2398,0.0,0.0,0.0,0.0,0.0,0.0,0.0,0.0,0.0,0.0,-3.3005,-3.3398,-3.3761,-3.4151,-3.4448,-3.4899,-3.5291,-3.5291,-3.5458,0.0,-3.5622,-3.5622,-3.5622,-3.5622,-3.5622,-3.5622,-3.5622,-3.5622,-3.5622,-3.5622,-3.5622,-3.5622,-3.5622,-3.5622,-3.5876,-3.6586,-3.6671,-3.6941,-3.7635,-3.777,-3.7804,-3.7804,-3.7872,-3.8193,-3.8853,-3.8903,-3.9225,-3.9952,-3.9986,-4.0003,-4.007,-4.007,-4.007,-4.007,-4.007,-4.007,-4.007,-4.0121,-4.0188,-4.0387,-4.0888,-4.1307,-4.1648,-4.1977,-4.2228,-4.2432,-4.2706,-4.2899,-4.3104,-4.3178,-4.3286,-4.3429,0.0,0.0,0.0,0.0,0.0,0.0,0.0,0.0,0.0,0.0,0.0,0.0,0.0,0.0,0.0,0.0,0.0,0.0,0.0,0.0,0.0,0.0,0.0,0.0,0.0,0.0,0.0,0.0,0.0,0.0,0.0,0.0,0.0,-3.2398,0.0,-3.2578,0.0,-3.2718,-3.2773,-3.2773,-3.2648,-3.2578,-3.2523,-3.2453,-3.2398,0.0,0.0,0.0,0.0,0.0,0.0,0.0,-3.2578,-3.2718,-3.3005,-3.3398,-3.3694,-3.4,-3.4399,-3.4787,0.0,-3.5291,-3.5458,-3.5622,-3.5622,-3.5622,-3.5622,-3.5622,-3.5622,-3.5622,-3.5622,-3.5622,-3.5622,-3.5622,-3.5622,-3.5622,-3.5622,-3.5622,-3.5673,-3.5859,-3.5876,-3.5926,-3.6096,-3.6671,-3.7026,-3.7026,-3.7567,-3.7973,-3.8125,-3.8142,-3.8464,-3.9208,-3.9225,-3.9495,-4.007,-4.007,-4.007,-4.007,-4.007,-4.007,-4.0121,-4.0188,-4.0453,-4.0776,-4.1152,-4.1515,-4.178,-4.2121,-4.2369,-4.2552,-4.2745,-4.2899,-4.3104,-4.3178,-4.3286,-4.3429,0.0,0.0,0.0,0.0,0.0,0.0,0.0,0.0,0.0,0.0,0.0,0.0,0.0,0.0,0.0,0.0,0.0,0.0,0.0,0.0,0.0,0.0,0.0,0.0,0.0,0.0,0.0,0.0,0.0,0.0,0.0,0.0,0.0,-3.2523,0.0,-3.2648,0.0,0.0,-3.2897,-3.2897,-3.2773,-3.2718,-3.2718,-3.2648,-3.2648,-3.2648,-3.2523,0.0,0.0,0.0,0.0,0.0,0.0,0.0,-3.3005,-3.3398,-3.3761,-3.405,-3.4399,0.0,0.0,-3.5412,0.0,-3.5622,-3.5622,-3.5622,-3.5622,-3.5622,-3.5622,-3.5622,-3.5622,-3.5622,-3.5622,-3.5622,-3.5622,-3.5622,-3.5622,-3.5622,-3.5622,-3.5622,-3.5622,-3.5622,-3.5622,-3.5994,-3.6231,-3.6231,-3.6586,-3.6975,-3.7347,-3.7364,-3.7702,-3.8447,-3.8464,-3.865,-3.9039,-3.9039,-3.9039,-3.9039,-3.9039,-3.9323,-3.9761,-4.0217,-4.0648,-4.0982,-4.129,-4.1604,-4.1934,-4.2246,-4.249,-4.2706,-4.2804,-4.2956,-4.316,-4.3178,-4.3322,-4.3446,0.0,0.0,0.0,0.0,0.0,0.0,0.0,0.0,0.0,0.0,0.0,0.0,0.0,0.0,0.0,0.0,0.0,0.0,0.0,0.0,0.0,0.0,0.0,0.0,0.0,0.0,0.0,0.0,0.0,0.0,0.0,0.0,0.0,-3.2648,0.0,0.0,0.0,0.0,-3.3058,-3.3058,-3.3005,-3.3005,-3.3005,-3.2951,-3.2951,-3.2897,-3.2718,-3.2648,-3.2648,-3.2523,0.0,0.0,0.0,0.0,-3.3043,-3.3398,-3.3797,-3.4201,-3.4448,0.0,-3.5337,-3.5532,-3.5622,0.0,-3.5622,-3.5622,-3.5622,-3.5622,-3.5622,-3.5622,-3.5622,-3.5622,-3.5622,-3.5622,-3.5622,-3.5622,-3.5622,-3.5622,-3.5622,-3.5622,-3.5622,-3.5622,-3.5622,-3.5622,-3.5622,-3.5622,-3.5622,-3.591,-3.6552,-3.6586,-3.6924,-3.7686,-3.7719,-3.777,-3.7905,-3.7905,-3.7905,-3.7905,-3.7889,-3.8353,-3.9251,-4.0035,-4.0655,-4.1186,-4.1398,-4.1719,-4.2145,-4.2351,-4.257,-4.2822,-4.2918,-4.305,-4.3196,-4.3214,-4.3358,-4.3497,0.0,0.0,0.0,0.0,0.0,0.0,0.0,0.0,0.0,0.0,0.0,0.0,0.0,0.0,0.0,0.0,0.0,0.0,-3.1539,0.0,0.0,-3.1482,-3.1482,0.0,0.0,0.0,0.0,0.0,0.0,0.0,0.0,0.0,0.0,-3.2897,0.0,0.0,0.0,0.0,0.0,-3.3607,-3.345,-3.3398,-3.3398,-3.315,-3.3043,-3.3058,-3.2897,-3.2843,-3.2843,-3.2843,-3.2843,0.0,0.0,0.0,-3.3309,-3.3607,-3.3949,-3.43,-3.4448,0.0,-3.5337,0.0,-3.5622,-3.5622,0.0,0.0,-3.5622,-3.5622,-3.5622,-3.5622,-3.5622,-3.5622,-3.5622,-3.5622,-3.5622,-3.5622,-3.5622,-3.5622,-3.5622,-3.5622,-3.5622,-3.5622,-3.5622,-3.5622,-3.5622,-3.5622,-3.5622,-3.5673,-3.5774,-3.5774,-3.6129,-3.6907,-3.6924,-3.7246,-3.7905,-3.7905,-3.7905,-3.7905,-3.795,-3.8172,-3.8557,-3.9434,-4.0354,-4.138,-4.1648,-4.1952,-4.2287,-4.249,-4.2649,-4.284,-4.2974,-4.3123,-4.3196,-4.334,-4.3446,-4.3497,0.0,0.0,0.0,0.0,0.0,0.0,0.0,0.0,0.0,0.0,0.0,0.0,0.0,0.0,0.0,-3.2654,-3.2163,-3.1769,-3.1539,-3.1482,-3.1482,-3.1482,-3.1597,-3.1727,0.0,0.0,0.0,0.0,0.0,0.0,0.0,-3.2973,-3.3043,0.0,0.0,0.0,0.0,0.0,0.0,-3.3694,-3.3658,-3.3607,-3.3607,-3.3503,-3.345,-3.3398,-3.3293,-3.3256,-3.3203,-3.3058,-3.3058,-3.315,-3.3203,0.0,0.0,0.0,-3.4101,-3.4399,-3.4851,-3.5198,-3.5429,0.0,-3.5622,-3.5622,-3.5622,-3.5622,-3.5622,-3.5622,-3.5622,-3.5622,-3.5622,-3.5622,-3.5622,-3.5622,-3.5622,-3.5622,-3.5622,-3.5622,-3.5622,-3.5622,-3.5622,-3.5622,-3.5622,-3.5622,-3.5622,-3.5622,-3.5622,-3.5622,-3.5622,-3.5622,-3.5774,-3.6129,-3.6129,-3.6282,-3.662,-3.662,-3.6637,-3.6729,-3.7257,-3.7644,-3.792,-3.8911,-3.9878,-4.0867,-4.1568,-4.2061,-4.2351,-4.2609,-4.2822,-4.2992,-4.3067,-4.3215,-4.3305,-4.3394,-4.3446,-4.3497,0.0,0.0,0.0,0.0,0.0,0.0,0.0,0.0,0.0,0.0,0.0,0.0,0.0,0.0,0.0,0.0,-3.215,-3.194,-3.1597,-3.1597,-3.1597,-3.1597,-3.1784,-3.1898,-3.194,0.0,0.0,0.0,0.0,0.0,-3.3309,-3.3398,-3.345,0.0,-3.3503,-3.3607,0.0,0.0,0.0,0.0,0.0,-3.3899,-3.3899,-3.3848,-3.3848,-3.3848,-3.3658,-3.3607,-3.3555,-3.3346,-3.3309,-3.3398,-3.345,-3.3555,0.0,0.0,0.0,-3.4594,-3.5198,0.0,-3.5537,-3.5577,-3.5622,-3.5622,0.0,-3.5622,-3.5622,-3.5622,-3.5622,-3.5622,-3.5622,-3.5622,-3.5622,-3.5622,-3.5622,-3.5622,-3.5622,-3.5622,-3.5622,-3.5622,-3.5622,-3.5622,-3.5622,-3.5622,-3.5622,-3.5622,-3.5622,-3.5622,-3.5622,-3.5622,-3.5622,-3.5622,-3.5622,-3.5622,-3.5622,-3.5622,-3.5711,-3.5834,-3.6556,-3.705,-3.7301,-3.837,-3.9287,-4.0052,-4.1209,-4.1884,-4.2185,-4.2637,-4.2936,-4.3104,-4.3141,-4.3287,-4.3394,-4.3411,-4.3481,-4.3497,0.0,0.0,0.0,0.0,0.0,0.0,0.0,0.0,0.0,0.0,0.0,0.0,-3.5458,-3.4469,-3.3488,-3.2459,-3.2247,-3.2094,-3.1784,-3.1784,-3.1784,-3.1784,-3.194,0.0,-3.2342,0.0,0.0,0.0,0.0,0.0,-3.3309,-3.3694,-3.3949,-3.405,-3.405,-3.405,-3.4101,0.0,0.0,0.0,0.0,-3.4448,-3.4448,-3.43,-3.425,-3.425,-3.3949,-3.3899,-3.3848,-3.371,-3.3642,-3.3694,-3.3848,-3.3949,-3.4101,0.0,0.0,0.0,-3.54,-3.5492,0.0,-3.5577,-3.5622,-3.5622,-3.5622,-3.5622,-3.5622,-3.5622,-3.5622,-3.5622,-3.5622,-3.5622,-3.5622,-3.5622,-3.5622,-3.5622,-3.5622,-3.5622,-3.5622,-3.5622,-3.5622,-3.5622,-3.5622,-3.5622,-3.5622,-3.5622,-3.5622,-3.5622,-3.5622,-3.5622,-3.5622,-3.5622,-3.5622,-3.5622,-3.5622,-3.5728,-3.5773,-3.5817,-3.6182,-3.6437,-3.6661,-3.7691,-3.8417,-3.8966,-4.0463,-4.1282,-4.153,-4.2517,-4.2994,-4.3104,-4.3323,-4.3394,-4.3429,-4.3463,-4.3497,-4.3497,0.0,0.0,0.0,0.0,0.0,0.0,0.0,0.0,0.0,0.0,0.0,0.0,0.0,-3.392,-3.3131,-3.2594,-3.2302,-3.215,-3.194,-3.1955,-3.1955,-3.1955,-3.215,-3.2287,-3.2398,0.0,0.0,0.0,0.0,-3.345,-3.3813,-3.3949,-3.4151,-3.4349,-3.425,-3.43,-3.4349,-3.4448,0.0,0.0,-3.4594,-3.4643,-3.4594,-3.4594,-3.4546,-3.4546,-3.4349,-3.43,-3.425,-3.4151,-3.4151,-3.4201,-3.4151,-3.425,-3.4399,-3.4594,-3.4947,-3.5308,-3.5446,0.0,0.0,-3.5577,-3.5622,-3.5622,-3.5622,-3.5622,-3.5622,-3.5622,-3.5622,-3.5622,-3.5622,-3.5622,-3.5622,-3.5622,-3.5622,-3.5622,-3.5622,-3.5622,-3.5622,-3.5622,-3.5622,-3.5622,-3.5622,-3.5622,-3.5622,-3.5622,-3.5622,-3.5622,-3.5622,-3.5622,-3.5622,-3.5622,-3.5622,-3.5622,-3.5728,-3.5773,-3.5905,-3.6148,-3.6259,-3.6509,-3.6851,-3.7369,-3.7742,-3.8113,-3.939,-4.0275,-4.089,-4.185,-4.2359,-4.2575,-4.3158,-4.3411,-4.3463,-4.3497,-4.3497,-4.3497,0.0,0.0,0.0,0.0,0.0,0.0,0.0,0.0,0.0,0.0,0.0,0.0,0.0,0.0,-3.3043,-3.2648,-3.2413,-3.2191,-3.2094,-3.2094,-3.215,-3.215,-3.2413,-3.2633,-3.2672,0.0,0.0,0.0,0.0,0.0,0.0,-3.425,-3.4399,-3.4643,-3.4594,-3.4594,0.0,0.0,-3.4756,-3.4804,-3.4851,-3.4899,-3.4899,-3.4899,-3.4899,-3.4899,-3.4756,-3.4691,-3.4691,-3.4546,-3.4546,-3.4643,-3.4594,-3.4643,-3.4787,-3.5058,-3.5291,-3.5492,-3.552,0.0,0.0,0.0,-3.5622,-3.5622,-3.5622,-3.5622,-3.5622,-3.5622,-3.5622,-3.5622,-3.5622,-3.5622,-3.5622,-3.5622,-3.5622,-3.5622,-3.5622,-3.5622,-3.5622,-3.5622,-3.5622,-3.5622,-3.5622,-3.5622,-3.5622,-3.5622,-3.5622,-3.5622,-3.5622,-3.5622,-3.5622,-3.5667,-3.5667,-3.5711,-3.5861,-3.5932,-3.6105,-3.6301,-3.6468,-3.6713,-3.7105,-3.7297,-3.7558,-3.781,-3.8578,-3.9351,-4.0166,-4.1159,-4.1645,-4.1857,-4.2697,-4.3078,-4.313,-4.3387,-4.3497,-4.3497,0.0,0.0,0.0,0.0,0.0,0.0,0.0,0.0,0.0,0.0,0.0,0.0,0.0,0.0,0.0,-3.2633,-3.2523,-3.2342,-3.2247,-3.2342,-3.2398,-3.2398,-3.2718,-3.3058,-3.3309,0.0,0.0,0.0,0.0,0.0,0.0,0.0,-3.4804,-3.4899,-3.5041,-3.5058,-3.4947,0.0,-3.5198,-3.5291,-3.5291,-3.5291,-3.5291,-3.5291,-3.5291,-3.5291,-3.5152,-3.5105,-3.5105,-3.4947,-3.4899,-3.4947,-3.5041,-3.5198,-3.5337,-3.5446,-3.5492,-3.5537,0.0,0.0,0.0,-3.5622,-3.5622,-3.5622,-3.5622,-3.5622,-3.5622,-3.5622,-3.5622,-3.5622,-3.5622,-3.5622,-3.5622,-3.5622,-3.5622,-3.5622,-3.5622,-3.5622,-3.5622,-3.5622,-3.5622,-3.5622,-3.5622,-3.5622,-3.5622,-3.5622,-3.5622,-3.5622,-3.5622,-3.5622,-3.5667,-3.5773,-3.5817,-3.5861,-3.6019,-3.6216,-3.6301,-3.6343,-3.6771,-3.7105,-3.7297,-3.7521,-3.7774,-3.8101,-3.8101,-3.8536,-3.9367,-4.044,-4.087,-4.0943,-4.1904,-4.2268,-4.2359,-4.3167,-4.3442,-4.3461,0.0,0.0,0.0,0.0,0.0,0.0,0.0,0.0,0.0,0.0,0.0,0.0,-3.4062,-3.3525,-3.3096,-3.2989,-3.2827,-3.2773,-3.2734,-3.2718,-3.2827,-3.292,-3.3096,-3.3256,-3.345,0.0,0.0,0.0,0.0,0.0,0.0,0.0,0.0,0.0,-3.5182,-3.5291,-3.5337,-3.5291,-3.5245,-3.5291,-3.54,-3.5446,-3.5446,-3.5446,-3.5446,-3.5446,-3.5291,-3.5245,-3.5245,-3.5198,-3.5198,-3.5198,-3.5245,-3.5337,-3.5446,-3.5492,-3.552,-3.5594,-3.5577,0.0,0.0,0.0,0.0,0.0,-3.5622,-3.5622,-3.5622,-3.5622,-3.5622,-3.5622,-3.5622,-3.5622,-3.5622,-3.5622,-3.5622,-3.5622,-3.5622,-3.5622,-3.5622,-3.5622,-3.5622,-3.5622,-3.5622,-3.5622,-3.5622,-3.5622,-3.5622,-3.5622,-3.5622,-3.5667,-3.5773,-3.5817,-3.5888,-3.6019,-3.6216,-3.6259,-3.6468,-3.6811,-3.7009,-3.7241,-3.7521,-3.7792,-3.7984,-3.8101,-3.83,-3.8542,-3.8798,-3.9721,-4.0134,-4.0253,-4.1079,-4.1442,-4.1534,-4.2341,-4.2635,-4.2708,0.0,0.0,0.0,0.0,0.0,0.0,0.0,0.0,0.0,0.0,0.0,0.0,-3.3845,-3.3503,-3.3309,-3.3203,-3.3096,-3.3058,-3.3005,-3.3058,-3.3096,-3.3256,-3.3414,-3.3555,-3.3761,0.0,0.0,0.0,0.0,0.0,0.0,0.0,0.0,0.0,0.0,0.0,0.0,-3.5458,-3.5412,-3.5412,-3.552,-3.5566,-3.5566,-3.5566,-3.5566,-3.552,-3.5458,-3.5412,-3.5412,-3.5412,-3.5412,-3.5412,-3.5412,-3.5475,-3.5566,-3.5566,-3.5594,-3.5622,-3.5622,-3.5622,-3.5622,-3.5622,0.0,0.0,-3.5622,-3.5622,-3.5622,-3.5622,-3.5622,-3.5622,-3.5622,-3.5622,-3.5622,-3.5622,-3.5622,-3.5622,-3.5622,-3.5622,-3.5622,-3.5622,-3.5622,-3.5622,-3.5622,-3.5622,-3.5622,-3.5622,-3.5622,-3.5622,-3.5667,-3.5817,-3.5932,-3.6019,-3.6088,-3.6276,-3.6527,-3.655,-3.6771,-3.7143,-3.7241,-3.7449,-3.7792,-3.7949,-3.8101,-3.8267,-3.8428,-3.8541,-3.8627,-3.9108,-3.9373,-3.9478,-4.0286,-4.0598,-4.0708,-4.1497,-4.2011,-4.2378,0.0,0.0,0.0,0.0,0.0,0.0,0.0,0.0,0.0,0.0,0.0,0.0,-3.3899,-3.3797,-3.3591,-3.3361,-3.3346,-3.3309,-3.315,-3.3309,-3.3398,-3.3555,-3.371,-3.3848,-3.4151,-3.4151,0.0,0.0,0.0,0.0,0.0,0.0,0.0,0.0,0.0,0.0,0.0,-3.5622,-3.5622,-3.5622,-3.5622,-3.5622,-3.5622,-3.5622,-3.5622,-3.5622,-3.5622,-3.5622,-3.5622,-3.5622,-3.5622,-3.5622,-3.5622,-3.5622,-3.5622,-3.5622,-3.5622,-3.5622,-3.5622,-3.5622,0.0,-3.5622,-3.5622,0.0,-3.5622,-3.5622,-3.5622,-3.5622,-3.5622,-3.5622,-3.5622,-3.5622,-3.5622,-3.5622,-3.5622,-3.5622,-3.5622,-3.5622,-3.5622,-3.5622,-3.5622,-3.5622,-3.5622,-3.5622,-3.5622,-3.5622,-3.5622,-3.5667,-3.5817,-3.5949,-3.6105,-3.6301,-3.6343,-3.6527,-3.6829,-3.697,-3.7143,-3.7334,-3.754,-3.7792,-3.8018,-3.8101,-3.8267,-3.851,-3.851,-3.8609,-3.8707,-3.8707,-3.8707,-3.8781,-3.9478,-3.9772,-3.9863,-4.0671,-4.1423,-4.2066,-4.007,0.0,0.0,0.0,0.0,0.0,0.0,0.0,0.0,0.0,0.0,0.0,-3.3899,-3.3797,-3.371,-3.3658,-3.3607,-3.3607,-3.3591,-3.3607,-3.3761,-3.3949,-3.4,-3.4151,-3.4399,-3.4399,-3.4546,0.0,0.0,0.0,0.0,0.0,0.0,0.0,0.0,0.0,0.0,-3.5622,-3.5622,-3.5622,-3.5622,-3.5622,-3.5622,-3.5622,-3.5622,-3.5622,-3.5622,-3.5622,-3.5622,-3.5622,-3.5622,-3.5622,-3.5622,-3.5622,-3.5622,-3.5622,-3.5622,-3.5622,-3.5622,-3.5622,-3.5622,-3.5622,-3.5622,0.0,-3.5622,-3.5622,-3.5622,-3.5622,-3.5622,-3.5622,-3.5622,-3.5622,-3.5622,-3.5622,-3.5622,-3.5622,-3.5622,-3.5622,-3.5622,-3.5622,-3.5622,-3.5622,-3.5622,-3.5622,-3.5622,-3.5622,-3.5711,-3.5817,-3.5932,-3.6131,-3.6259,-3.6301,-3.6568,-3.6788,-3.6948,-3.7143,-3.7334,-3.754,-3.7792,-3.7984,-3.8068,-3.83,-3.8428,-3.851,-3.8609,-3.8676,-3.8707,-3.8707,-3.8707,-3.8726,-3.8872,-3.8927,-3.9038,-3.9845,-4.023,-4.0543,-3.9529,0.0,0.0,0.0,0.0,0.0,0.0,0.0,0.0,0.0,-3.4151,-3.4,-3.4,-3.3949,-3.3848,-3.3797,-3.3797,-3.3797,-3.3797,-3.3848,-3.4,-3.4201,-3.425,-3.4399,-3.4594,-3.4643,-3.4804,0.0,0.0,0.0,0.0,0.0,0.0,0.0,0.0,0.0,0.0,-3.5622,-3.5622,-3.5622,-3.5622,-3.5622,-3.5622,-3.5622,-3.5622,-3.5622,-3.5622,-3.5622,-3.5622,-3.5622,-3.5622,-3.5622,-3.5622,-3.5622,-3.5622,-3.5622,-3.5622,-3.5622,-3.5622,-3.5622,-3.5622,-3.5622,-3.5622,0.0,0.0,-3.5622,-3.5622,-3.5622,-3.5622,-3.5622,-3.5622,-3.5622,-3.5622,-3.5622,-3.5622,-3.5622,-3.5622,-3.5622,-3.5622,-3.5622,-3.5622,-3.5622,-3.5622,-3.5667,-3.5711,-3.58,-3.5932,-3.6036,-3.6079,-3.6276,-3.6444,-3.6502,-3.6748,-3.7009,-3.7203,-3.7372,-3.7577,-3.7845,-3.7984,-3.8135,-3.83,-3.8428,-3.8559,-3.8609,-3.8658,-3.8707,-3.8707,-3.8707,-3.8707,-3.8707,-3.8707,-3.8707,-3.8762,-3.9148,-3.9551,-4.001,-3.8751,0.0,0.0,0.0,0.0,0.0,0.0,0.0,0.0,-3.4349,-3.425,-3.4201,-3.4201,-3.4201,-3.4151,-3.4,-3.4,-3.4,-3.4,-3.4101,-3.425,-3.4349,-3.4497,-3.4594,-3.4756,-3.4851,-3.4994,-3.5152,0.0,0.0,0.0,0.0,0.0,0.0,0.0,0.0,0.0,-3.5622,-3.5622,-3.5622,-3.5622,-3.5622,-3.5622,-3.5622,-3.5622,-3.5622,-3.5622,-3.5622,-3.5622,-3.5622,-3.5622,-3.5622,-3.5622,-3.5622,-3.5622,-3.5622,-3.5622,-3.5622,-3.5622,-3.5622,-3.5622,-3.5622,-3.5622,-3.5622,0.0,0.0,0.0,-3.5622,-3.5622,-3.5622,-3.5622,-3.5622,-3.5622,-3.5622,-3.5622,-3.5622,-3.5622,-3.5622,-3.5622,-3.5622,-3.5622,-3.5622,-3.5622,-3.5773,-3.5905,-3.6019,-3.6165,-3.6208,-3.6268,-3.6461,-3.6626,-3.6766,-3.6948,-3.7164,-3.7429,-3.7577,-3.7828,-3.8101,-3.8135,-3.8267,-3.851,-3.851,-3.8609,-3.8707,-3.8707,-3.8707,-3.8707,-3.8707,-3.8707,-3.8707,-3.8707,-3.8707,-3.8707,-3.8707,-3.9111,-3.9711,-3.7905,-3.786,0.0,0.0,0.0,0.0,0.0,0.0,0.0,-3.4497,-3.4448,-3.4448,-3.4448,-3.4448,-3.4448,-3.4448,-3.4448,-3.4448,-3.4448,-3.4448,-3.4497,-3.4643,-3.4643,-3.4739,-3.4899,-3.4994,-3.5152,-3.5291,0.0,0.0,0.0,0.0,0.0,0.0,-3.5622,-3.5622,-3.5622,-3.5622,-3.5622,-3.5622,-3.5622,-3.5622,-3.5622,-3.5622,-3.5622,-3.5622,-3.5622,-3.5622,-3.5622,-3.5622,-3.5622,-3.5622,-3.5622,-3.5622,-3.5622,-3.5622,-3.5622,-3.5622,-3.5622,-3.5622,-3.5622,-3.5622,-3.5622,-3.5622,-3.5622,0.0,-3.5622,-3.5622,0.0,-3.5622,-3.5622,0.0,0.0,-3.5622,-3.5622,-3.5622,-3.5622,-3.5622,-3.5622,-3.5622,-3.5622,-3.5667,-3.5773,-3.5905,-3.6019,-3.6182,-3.6233,-3.636,-3.6461,-3.6667,-3.6829,-3.6948,-3.7143,-3.7372,-3.7594,-3.7775,-3.7933,-3.8101,-3.8285,-3.8415,-3.8491,-3.8609,-3.8707,-3.8707,-3.8707,-3.8707,-3.8707,-3.8707,-3.8707,-3.8707,-3.8707,-3.8707,-3.8707,-3.8707,-3.8805,-3.9031,-3.711,-3.6814,0.0,0.0,0.0,0.0,0.0,0.0,0.0,-3.4497,-3.4497,-3.4497,-3.4497,-3.4497,-3.4497,-3.4497,-3.4497,-3.4497,-3.4497,-3.4546,-3.4643,-3.4691,-3.4787,-3.4899,-3.4994,-3.5152,-3.5291,-3.54,-3.552,0.0,0.0,0.0,0.0,0.0,-3.5622,-3.5622,-3.5622,-3.5622,-3.5622,-3.5622,-3.5622,-3.5622,-3.5622,-3.5622,-3.5622,-3.5622,-3.5622,-3.5622,-3.5622,-3.5622,-3.5622,-3.5622,-3.5622,-3.5622,-3.5622,-3.5622,-3.5622,-3.5622,-3.5622,-3.5622,-3.5622,-3.5622,-3.5622,-3.5622,-3.5622,-3.5622,-3.5622,-3.5622,0.0,0.0,0.0,0.0,0.0,0.0,-3.5622,-3.5622,-3.5728,-3.5728,-3.5728,-3.5728,-3.5728,-3.5817,-3.5993,-3.6105,-3.6233,-3.6377,-3.6461,-3.6544,-3.6602,-3.6788,-3.6948,-3.6987,-3.7297,-3.754,-3.7649,-3.7898,-3.8086,-3.8285,-3.8415,-3.851,-3.8609,-3.8658,-3.8707,-3.8707,-3.8707,-3.8707,-3.8707,-3.8707,-3.8707,-3.8707,-3.8707,-3.8707,-3.8707,-3.875,-3.878,-3.8859,-3.6349,0.0,0.0,0.0,0.0,0.0,0.0,-3.4899,-3.4691,-3.4594,-3.4594,-3.4594,-3.4594,-3.4594,-3.4594,-3.4594,-3.4594,-3.4594,-3.4594,-3.4691,-3.4739,-3.4739,-3.4899,-3.4994,-3.5088,-3.5245,-3.54,-3.5492,-3.5549,0.0,0.0,0.0,0.0,0.0,-3.5622,-3.5622,-3.5622,-3.5622,-3.5622,-3.5622,-3.5622,-3.5622,-3.5622,-3.5622,-3.5622,-3.5622,-3.5622,-3.5622,-3.5622,-3.5622,-3.5622,-3.5622,-3.5622,-3.5622,-3.5622,-3.5622,-3.5622,-3.5622,-3.5622,-3.5622,-3.5622,-3.5622,-3.5622,-3.5622,-3.5622,-3.5622,-3.5622,-3.5622,-3.5622,0.0,0.0,0.0,-3.5667,-3.5667,0.0,-3.5756,-3.5861,-3.5861,-3.5861,-3.5861,-3.5888,-3.6019,-3.6208,-3.6318,-3.6444,-3.6544,-3.6684,-3.6766,-3.6766,-3.6987,-3.7105,-3.7164,-3.7429,-3.7649,-3.7774,-3.8,-3.8201,-3.8382,-3.8478,-3.8559,-3.8707,-3.8707,-3.8707,-3.8707,-3.8707,-3.8707,-3.8707,-3.8707,-3.8707,-3.8707,-3.8719,-3.8719,-3.8719,-3.8792,-3.8822,-3.8881,-3.5656,-3.5639,-3.5594,-3.5492,-3.5492,-3.54,-3.5152,-3.4994,-3.4899,-3.4899,-3.4899,-3.4899,-3.4899,-3.4899,-3.4899,-3.4899,-3.4899,-3.4899,-3.4899,-3.4899,-3.4899,-3.4899,-3.4994,-3.5105,-3.5088,-3.5354,-3.5492,-3.5492,-3.5549,0.0,0.0,0.0,0.0,0.0,-3.5622,-3.5622,-3.5622,-3.5622,-3.5622,-3.5622,-3.5622,-3.5622,-3.5622,-3.5622,-3.5622,-3.5622,-3.5622,-3.5622,-3.5622,-3.5622,-3.5622,-3.5622,-3.5622,-3.5622,-3.5622,-3.5622,-3.5622,-3.5622,-3.5622,-3.5622,-3.5622,-3.5622,-3.5622,-3.5622,-3.5622,-3.5622,-3.5622,-3.5622,-3.5622,-3.5622,-3.5622,-3.5728,-3.5773,-3.5773,-3.5888,0.0,0.0,-3.5975,-3.5975,-3.5975,-3.6191,-3.6301,-3.6301,-3.6544,-3.6702,-3.6702,-3.6869,-3.6987,-3.6987,-3.7182,-3.7372,-3.7577,-3.7577,-3.7721,-3.7984,-3.8068,-3.8201,-3.8382,-3.8478,-3.8559,-3.8707,-3.8707,-3.8707,-3.8707,-3.8707,-3.8707,-3.8707,-3.8707,-3.8707,-3.8707,-3.8762,-3.8792,-3.8792,-3.8792,-3.8862,-3.8979,-3.5622,0.0,-3.5577,-3.5594,-3.552,-3.5446,-3.5245,-3.5105,-3.5041,-3.5041,-3.4947,-3.4899,-3.4899,-3.4899,-3.4899,-3.4899,-3.4899,-3.4899,-3.4899,-3.4994,-3.5041,-3.5041,-3.5152,-3.5291,-3.5354,-3.5446,-3.552,-3.5549,-3.5577,0.0,0.0,0.0,0.0,0.0,0.0,-3.5622,-3.5622,-3.5622,-3.5622,-3.5622,-3.5622,-3.5622,-3.5622,-3.5622,-3.5622,-3.5622,-3.5622,-3.5622,-3.5622,-3.5622,-3.5622,-3.5622,-3.5622,-3.5622,-3.5622,-3.5622,-3.5622,-3.5622,-3.5622,-3.5622,-3.5622,-3.5622,-3.5622,-3.5622,-3.5622,-3.5622,-3.5622,-3.5622,-3.5667,-3.5728,-3.5728,-3.5844,-3.5932,-3.5932,-3.6036,-3.6165,0.0,-3.636,-3.6461,-3.6527,-3.6544,-3.6585,-3.6609,-3.6788,-3.6908,-3.697,-3.7105,-3.7182,-3.7182,-3.741,-3.7521,-3.7594,-3.7792,-3.7915,-3.8068,-3.8219,-3.8332,-3.8478,-3.8578,-3.8658,-3.8707,-3.8707,-3.8707,-3.8707,-3.8707,-3.8707,-3.8707,-3.875,-3.878,-3.8762,-3.8851,-3.8892,-3.8921,-3.8921,-3.895,-3.9007,-3.5622,-3.5622,-3.5622,-3.5622,-3.5566,-3.5492,-3.5383,-3.5245,-3.5198,-3.5198,-3.5105,-3.5041,-3.5041,-3.5041,-3.5041,-3.5041,-3.5041,-3.5041,-3.5041,-3.5105,-3.5198,-3.5198,-3.5291,-3.54,-3.5492,-3.552,-3.5549,-3.5622,-3.5622,-3.5622,0.0,0.0,0.0,0.0,0.0,-3.5622,-3.5667,-3.5667,-3.5711,-3.5756,-3.5711,-3.5667,-3.5667,-3.5622,-3.5622,-3.5622,-3.5622,-3.5622,-3.5622,-3.5622,-3.5622,-3.5622,-3.5622,-3.5622,-3.5622,-3.5622,-3.5622,-3.5622,-3.5622,-3.5622,-3.5622,-3.5622,-3.5622,-3.5622,-3.5622,-3.5622,-3.5622,-3.5667,-3.5728,-3.5817,-3.5861,-3.5993,-3.6062,-3.6105,-3.6208,-3.6335,0.0,-3.669,-3.6869,-3.6987,-3.6886,-3.6829,-3.6891,-3.7009,-3.7126,-3.7185,-3.7317,-3.741,-3.7429,-3.7631,-3.7739,-3.7757,-3.7915,-3.8086,-3.8153,-3.835,-3.8446,-3.851,-3.8658,-3.8689,-3.8719,-3.8719,-3.875,-3.878,-3.878,-3.878,-3.878,-3.8822,-3.8851,-3.8833,-3.891,-3.895,-3.8979,-3.8979,-3.9007,-3.9036,-3.5622,-3.5622,-3.5622,-3.5622,-3.5566,-3.5492,-3.5492,-3.54,-3.5291,-3.5291,-3.5291,-3.5291,-3.5291,-3.5291,-3.5291,-3.5291,-3.5291,-3.5291,-3.5291,-3.5291,-3.5291,-3.5291,-3.5446,-3.5492,-3.5492,-3.5549,-3.5622,-3.5622,-3.5622,0.0,0.0,0.0,0.0,0.0,-3.5622,-3.5667,-3.5817,-3.5817,-3.5888,-3.5975,-3.5861,-3.5817,-3.5817,-3.5667,-3.5622,-3.5622,-3.5622,-3.5622,-3.5622,-3.5622,-3.5622,-3.5622,-3.5622,-3.5622,-3.5622,-3.5622,-3.5622,-3.5622,-3.5622,-3.5622,-3.5622,-3.5622,-3.5622,-3.5622,-3.5622,-3.5622,-3.5622,-3.5773,-3.5817,-3.5861,-3.5975,-3.6122,-3.6251,-3.6301,-3.6444,-3.6585,-3.6811,-3.6992,-3.7147,-3.7297,-3.7143,-3.7048,-3.7129,-3.7241,-3.7334,-3.7429,-3.754,-3.7649,-3.7703,-3.7846,-3.7916,-3.7984,-3.8086,-3.8153,-3.8289,-3.8415,-3.8491,-3.851,-3.864,-3.875,-3.8822,-3.8822,-3.8851,-3.891,-3.891,-3.891,-3.891,-3.8892,-3.8892,-3.8892,-3.8979,-3.9007,-3.9007,-3.9007,-3.9064,-3.9101,-3.5622,-3.5622,-3.5622,-3.5622,-3.5577,-3.5594,-3.5594,-3.552,-3.5446,-3.5446,-3.5354,-3.5291,-3.5291,-3.5291,-3.5291,-3.5291,-3.5291,-3.5291,-3.5291,-3.54,-3.5446,-3.5446,-3.5503,-3.5594,-3.5594,-3.5577,-3.5622,-3.5622,-3.5622,0.0,-3.5622,0.0,0.0,0.0,0.0,-3.5773,-3.5817,-3.5905,-3.5975,-3.5975,-3.5975,-3.5932,-3.5932,-3.5888,-3.5844,-3.5728,-3.5622,-3.5622,-3.5622,-3.5622,-3.5622,-3.5622,-3.5622,-3.5622,-3.5622,-3.5622,-3.5622,-3.5622,-3.5622,-3.5622,-3.5622,-3.5622,-3.5622,-3.5622,-3.5622,-3.5622,-3.5622,-3.5773,-3.5905,-3.5993,-3.6122,-3.6293,-3.6419,-3.6461,-3.6708,-3.697,-3.7203,-3.7299,-3.7374,-3.7577,-3.7559,-3.7522,-3.7541,-3.7559,-3.7649,-3.7739,-3.7775,-3.7828,-3.7864,-3.7951,-3.8002,-3.7984,-3.8171,-3.8289,-3.8368,-3.8446,-3.8572,-3.8713,-3.8762,-3.8822,-3.8862,-3.8862,-3.8862,-3.891,-3.891,-3.891,-3.8892,-3.895,-3.8979,-3.8979,-3.9064,-3.9073,-3.9073,-3.9073,-3.9073,-3.9101,-3.5622,-3.5622,-3.5622,-3.5622,-3.5622,-3.5622,-3.5622,-3.5549,-3.5566,-3.5566,-3.5475,-3.5412,-3.5412,-3.5412,-3.5412,-3.5412,-3.5412,-3.5412,-3.5412,-3.5503,-3.5566,-3.5566,-3.5594,-3.5622,-3.5622,-3.5622,-3.5622,-3.5622,-3.5622,-3.5622,-3.5622,0.0,0.0,0.0,0.0,-3.5861,-3.5993,-3.6105,-3.6148,-3.6148,-3.6105,-3.6079,0.0,-3.6019,-3.5932,-3.5905,-3.58,-3.5711,-3.5622,-3.5622,-3.5622,-3.5622,-3.5622,-3.5622,-3.5622,-3.5622,-3.5622,-3.5622,-3.5622,-3.5622,-3.5622,-3.5622,-3.5622,-3.5622,-3.5622,-3.5667,-3.5728,-3.5861,-3.5993,-3.6122,-3.6233,-3.636,-3.6544,-3.669,-3.7009,-3.7317,-3.7466,-3.7577,-3.7685,-3.781,-3.788,-3.7915,-3.7967,-3.7863,-3.7828,-3.7951,-3.7951,-3.7951,-3.8038,-3.8054,-3.8122,-3.8138,-3.8271,-3.8368,-3.8446,-3.8528,-3.867,-3.8792,-3.8792,-3.8851,-3.8921,-3.8921,-3.895,-3.9007,-3.9007,-3.9007,-3.9007,-3.9036,-3.9036,-3.9064,-3.9073,-3.9101,-3.9101,-3.9101,-3.9101,-3.9101,-3.5622,-3.5622,-3.5622,-3.5622,-3.5622,-3.5622,-3.5622,-3.5622,-3.5622,-3.5622,-3.5622,-3.5622,-3.5622,-3.5622,-3.5622,-3.5622,-3.5622,-3.5622,-3.5622,-3.5622,-3.5622,-3.5622,-3.5622,-3.5622,-3.5622,-3.5622,-3.5622,-3.5622,-3.5622,-3.5622,0.0,0.0,0.0,0.0,0.0,-3.5993,-3.6208,-3.6276,-3.6301,-3.6301,-3.6251,-3.6208,-3.6208,-3.6062,-3.6019,-3.6019,-3.6019,-3.5844,-3.5622,-3.5622,-3.5622,-3.5622,-3.5622,-3.5622,-3.5622,-3.5622,-3.5622,-3.5622,-3.5622,-3.5622,-3.5622,-3.5622,-3.5622,-3.5622,-3.5622,-3.5728,-3.5861,-3.5975,-3.6122,-3.6208,-3.6301,-3.6444,-3.6667,-3.697,-3.7354,-3.7631,-3.7631,-3.7775,-3.7951,-3.8036,-3.8086,0.0,-3.8289,-3.8088,-3.7985,-3.8052,-3.8052,-3.8104,-3.8207,-3.8225,-3.8241,-3.8289,-3.8368,-3.8446,-3.851,-3.864,-3.875,-3.8822,-3.8822,-3.8892,-3.9007,-3.9007,-3.9045,-3.9101,-3.9101,-3.9101,-3.9101,-3.9101,-3.9101,-3.9101,-3.9101,-3.9101,-3.9101,-3.9101,-3.9101,-3.9101,-3.5622,-3.5622,-3.5622,-3.5622,-3.5622,-3.5622,-3.5622,-3.5622,-3.5622,-3.5622,-3.5622,-3.5622,-3.5622,-3.5622,-3.5622,-3.5622,-3.5622,-3.5622,-3.5622,-3.5622,-3.5622,-3.5622,-3.5622,-3.5622,-3.5622,-3.5622,-3.5622,-3.5622,-3.5622,-3.5622,-3.5622,0.0,0.0,0.0,0.0,-3.6208,-3.6259,-3.6301,-3.6301,-3.6301,-3.6301,-3.6259,-3.6259,-3.6259,-3.6191,-3.6165,-3.6165,-3.5993,-3.5773,-3.5773,-3.5667,-3.5622,-3.5622,-3.5622,-3.5622,-3.5622,-3.5622,-3.5622,-3.5622,-3.5622,-3.5622,-3.5622,-3.5622,-3.5622,-3.5728,-3.5773,-3.5861,-3.6122,-3.6165,-3.6208,-3.6301,-3.6568,-3.6869,-3.7182,-3.7447,-3.7667,-3.7828,-3.7951,-3.8036,-3.8223,-3.8256,-3.8289,-3.835,-3.8336,-3.8336,-3.8318,-3.8318,-3.835,-3.8368,-3.8368,-3.8368,0.0,-3.8446,-3.8478,0.0,0.0,-3.8822,-3.8862,-3.8921,-3.9007,-3.9073,-3.9073,-3.9101,-3.9101,-3.9101,-3.9101,-3.9101,-3.9101,-3.9101,-3.9101,-3.9101,-3.9101,-3.9101,-3.9101,-3.9101,-3.9101,-3.5622,-3.5622,-3.5622,-3.5622,-3.5622,-3.5622,-3.5622,-3.5622,-3.5622,-3.5622,-3.5622,-3.5622,-3.5622,-3.5622,-3.5622,-3.5622,-3.5622,-3.5622,-3.5622,-3.5622,-3.5622,-3.5622,-3.5622,-3.5622,-3.5622,-3.5622,-3.5622,-3.5622,-3.5667,-3.5711,-3.5728,-3.5844,-3.5949,-3.5993,-3.6208,-3.6276,-3.6301,-3.6301,-3.6301,-3.6301,-3.6301,-3.6301,-3.6301,-3.6301,-3.6259,-3.6233,-3.6233,-3.6165,-3.5993,-3.5949,-3.5844,-3.58,-3.58,-3.5756,-3.5711,-3.5711,-3.5667,-3.5622,-3.5622,-3.5622,-3.5622,-3.5684,-3.5711,-3.5711,-3.5844,-3.5949,-3.6036,-3.6182,-3.6208,-3.6318,-3.6461,-3.6667,-3.6908,-3.7259,-3.7503,-3.7721,-3.7864,-3.8038,-3.8122,-3.8241,-3.8322,-3.8368,-3.8382,-3.8496,-3.8496,-3.8415,-3.8382,-3.8382,-3.8382,-3.8382,-3.8415,0.0,0.0,0.0,-3.8609,0.0,-3.8851,-3.891,-3.8968,-3.9036,-3.9101,-3.9101,-3.9101,-3.9101,-3.9101,-3.9101,-3.9101,-3.9101,-3.9101,-3.9101,-3.9101,-3.9101,-3.9101,-3.9101,-3.9101,-3.9101,-3.5711,-3.5711,-3.5711,-3.5711,-3.5711,-3.5667,-3.5667,-3.5622,-3.5622,-3.5622,-3.5622,-3.5622,-3.5622,-3.5622,-3.5622,-3.5622,-3.5622,-3.5622,-3.5622,-3.5622,-3.5622,-3.5622,-3.5622,-3.5622,-3.5622,-3.5622,-3.5667,-3.5711,-3.58,-3.5861,-3.5861,-3.5993,-3.6122,-3.6208,-3.6276,-3.6301,-3.6301,-3.6301,-3.6301,-3.6301,-3.6301,-3.6301,-3.6301,-3.6301,-3.6301,-3.6301,-3.6301,-3.6276,-3.6208,-3.6105,-3.6019,-3.6019,-3.6019,-3.5932,-3.5861,-3.5861,-3.5773,-3.5711,-3.5711,-3.5711,-3.5711,-3.5817,-3.5861,-3.5861,-3.6019,-3.6122,-3.6208,-3.6208,-3.6276,-3.6402,-3.6643,-3.6748,-3.6908,-3.7259,-3.7503,-3.7721,-3.7864,-3.8038,-3.8174,-3.8225,-3.8322,-3.8401,-3.8415,-3.8578,-3.8609,-3.8465,-3.8465,-3.8465,-3.8465,0.0,0.0,0.0,0.0,-3.859,-3.8719,0.0,-3.8833,-3.8921,-3.8979,-3.9064,-3.9101,-3.9101,-3.9101,-3.9101,-3.9101,-3.9101,-3.9101,-3.9101,-3.9101,-3.9101,-3.9101,-3.9101,-3.9101,-3.9101,-3.9101,-3.9101,-3.5975,-3.5975,-3.5975,-3.5975,-3.5975,-3.5932,-3.5817,-3.5773,-3.5728,-3.5622,-3.5622,-3.5622,-3.5622,-3.5622,-3.5622,-3.5622,-3.5622,-3.5622,-3.5622,-3.5622,-3.5622,-3.5622,-3.5622,-3.5667,-3.5773,-3.5773,-3.5861,-3.5975,-3.5975,-3.5975,-3.5975,-3.6122,-3.6208,-3.6301,-3.6301,-3.6301,-3.6301,-3.6301,-3.6301,-3.6301,-3.6301,-3.6301,-3.6301,-3.6301,-3.6301,-3.6301,-3.6301,-3.6301,-3.6301,-3.6259,-3.6131,-3.6019,-3.6019,-3.5975,-3.5975,-3.5975,-3.5975,-3.5975,-3.5975,-3.5975,-3.5975,-3.5975,-3.5975,-3.6019,-3.6122,-3.6165,-3.6208,-3.6276,-3.6301,-3.6402,-3.6643,-3.6748,-3.6908,-3.7259,-3.7466,-3.7667,-3.7864,-3.7985,-3.807,-3.8274,-3.8307,-3.8354,-3.8478,-3.851,-3.8559,-3.8658,-3.8658,-3.8658,-3.8658,0.0,0.0,-3.8658,-3.8658,-3.8719,-3.8792,-3.8851,-3.8921,-3.8979,-3.9045,-3.9101,-3.9101,-3.9101,-3.9101,-3.9101,-3.9101,-3.9101,-3.9101,-3.9101,-3.9101,-3.9101,-3.9101,-3.9101,-3.9101,-3.9101,-3.9101,-3.9101,-3.6019,-3.6019,-3.6019,-3.6019,-3.6019,-3.5975,-3.5932,-3.5932,-3.5888,-3.5844,-3.5711,-3.5622,-3.5622,-3.5622,-3.5622,-3.5622,-3.5622,-3.5622,-3.5622,-3.5684,-3.5728,-3.5728,-3.58,-3.5844,-3.5932,-3.5932,-3.5949,-3.6019,-3.6079,-3.6122,-3.6122,-3.6233,-3.6259,-3.6301,-3.6301,-3.6301,-3.6301,-3.6301,-3.6301,-3.6301,-3.6301,-3.6301,-3.6301,-3.6301,-3.6301,-3.6301,-3.6301,-3.6301,-3.6301,-3.6301,-3.6259,-3.6174,-3.6174,-3.6148,-3.6122,-3.6122,-3.6079,-3.6019,-3.6019,-3.6019,-3.6019,-3.6122,-3.6122,-3.6165,-3.6233,-3.6276,-3.6276,-3.6301,-3.6301,-3.6402,-3.6643,-3.6725,-3.6869,-3.722,-3.7392,-3.7577,-3.7864,-3.7951,-3.807,-3.8207,-3.8322,-3.8368,-3.8446,-3.8559,-3.8658,-3.8707,-3.8707,-3.8707,-3.8707,0.0,0.0,-3.8707,0.0,-3.8762,-3.8792,-3.891,-3.8979,-3.8979,-3.9073,-3.9101,-3.9101,-3.9101,-3.9101,-3.9101,-3.9101,-3.9101,-3.9101,-3.9101,-3.9101,-3.9101,-3.9101,-3.9101,-3.9101,-3.9101,-3.9101,-3.9101,-3.6105,-3.6105,-3.6105,-3.6105,-3.6105,-3.6105,-3.6062,-3.6079,-3.6019,-3.6019,-3.5844,-3.5711,-3.5711,-3.5711,-3.5711,-3.5711,-3.5711,-3.5711,-3.5711,-3.5817,-3.5861,-3.5861,-3.5932,-3.6019,-3.6079,-3.6079,-3.6062,-3.6105,-3.6191,-3.6251,-3.6251,-3.6276,-3.6301,-3.6301,-3.6301,-3.6301,-3.6301,-3.6301,-3.6301,-3.6301,-3.6301,-3.6301,-3.6301,-3.6301,-3.6301,-3.6301,-3.6301,-3.6301,-3.6301,-3.6301,-3.6301,-3.6301,-3.6301,-3.6276,-3.6251,-3.6251,-3.6148,-3.6105,-3.6105,-3.6105,-3.6105,-3.6208,-3.6251,-3.6233,-3.6301,-3.6301,-3.6301,-3.6343,-3.6343,-3.6444,-3.6684,-3.6725,-3.6846,-3.722,-3.7334,-3.7503,-3.7864,-3.7951,-3.8036,-3.8207,-3.8322,-3.8401,-3.8415,-3.8578,-3.8658,-3.8707,-3.8707,-3.8707,-3.8707,0.0,0.0,0.0,0.0,0.0,-3.8881,-3.895,-3.9007,-3.9036,-3.9073,-3.9101,-3.9101,-3.9101,-3.9101,-3.9101,-3.9101,-3.9101,-3.9101,-3.9101,-3.9101,-3.9101,-3.9101,-3.9101,-3.9101,-3.9101,-3.9101,-3.9101,-3.6301,-3.6301,-3.6301,-3.6301,-3.6301,-3.6259,-3.6208,-3.6225,-3.6165,-3.6019,-3.6019,-3.5975,-3.5975,-3.5975,-3.5975,-3.5975,-3.5975,-3.5975,-3.5975,-3.5975,-3.6019,-3.6019,-3.6019,-3.6079,-3.6165,-3.6225,-3.6251,-3.6301,-3.6301,-3.6301,-3.6301,-3.6301,-3.6301,-3.6301,-3.6301,-3.6301,-3.6301,-3.6301,-3.6301,-3.6301,-3.6301,-3.6301,-3.6301,-3.6301,-3.6301,-3.6301,-3.6301,-3.6301,-3.6301,-3.6301,-3.6301,-3.6301,-3.6301,-3.6301,-3.6301,-3.6301,-3.6301,-3.6301,-3.6301,-3.6301,-3.6301,-3.6301,-3.6301,-3.6301,-3.6301,-3.6301,-3.6343,-3.6444,-3.6502,-3.6585,-3.6748,-3.6788,-3.6908,-3.7259,-3.7297,-3.7447,-3.7828,-3.7899,-3.8003,-3.8274,-3.8307,-3.8354,-3.8478,-3.851,-3.8559,-3.8707,-3.8707,-3.8707,-3.8707,0.0,0.0,-3.8792,-3.8792,0.0,-3.8997,-3.8979,-3.9036,-3.9101,-3.9101,-3.9101,-3.9101,-3.9101,-3.9101,-3.9101,-3.9101,-3.9101,-3.9101,-3.9101,-3.9101,-3.9101,-3.9101,-3.9101,-3.9101,-3.9101,-3.9101,-3.9101,-3.6301,-3.6301,-3.6301,-3.6301,-3.6301,-3.6301,-3.6276,-3.6276,-3.6276,-3.6216,-3.6216,-3.6216,-3.6216,-3.6105,-3.6019,-3.6019,-3.6019,-3.6019,-3.6019,-3.6079,-3.6122,-3.6122,-3.6191,-3.6216,-3.6276,-3.6276,-3.6259,-3.6301,-3.6301,-3.6301,-3.6301,-3.6301,-3.6301,-3.6301,-3.6301,-3.6301,-3.6301,-3.6301,-3.6301,-3.6301,-3.6301,-3.6301,-3.6301,-3.6301,-3.6301,-3.6301,-3.6301,-3.6301,-3.6301,-3.6301,-3.6301,-3.6301,-3.6301,-3.6301,-3.6301,-3.6301,-3.6301,-3.6301,-3.6301,-3.6301,-3.6301,-3.6301,-3.6301,-3.6343,-3.6402,-3.6502,-3.6585,-3.6643,-3.6661,-3.6684,-3.6788,-3.6851,-3.7027,-3.7259,-3.741,-3.7594,-3.7864,-3.7951,-3.8054,-3.8274,-3.8354,-3.8382,-3.851,-3.859,-3.8658,-3.8707,-3.8707,-3.8707,-3.8707,0.0,0.0,0.0,-3.891,0.0,-3.8979,-3.9064,-3.9073,-3.9101,-3.9101,-3.9101,-3.9101,-3.9101,-3.9101,-3.9101,-3.9101,-3.9101,-3.9101,-3.9101,-3.9101,-3.9101,-3.9101,-3.9101,-3.9101,-3.9101,-3.9101,-3.9101,-3.6301,-3.6301,-3.6301,-3.6301,-3.6301,-3.6301,-3.6301,-3.6301,-3.6301,-3.6301,-3.6301,-3.6301,-3.6301,-3.6174,-3.6088,-3.6088,-3.6088,-3.6088,-3.6088,-3.6191,-3.6251,-3.6251,-3.6276,-3.6301,-3.6301,-3.6301,-3.6301,-3.6301,-3.6301,-3.6301,-3.6301,-3.6301,-3.6301,-3.6301,-3.6343,-3.6402,-3.6402,-3.6444,-3.6444,-3.6444,-3.6444,-3.6444,-3.6444,-3.6402,-3.6402,-3.636,-3.6301,-3.6301,-3.6301,-3.6301,-3.6301,-3.6301,-3.6301,-3.6301,-3.6301,-3.6301,-3.6301,-3.6301,-3.6301,-3.6301,-3.6301,-3.6301,-3.6301,-3.636,-3.6461,-3.6602,-3.6702,-3.6725,-3.6766,-3.6829,-3.6891,-3.7009,-3.7182,-3.7334,-3.7484,-3.7667,-3.7864,-3.7951,-3.8086,-3.8322,-3.8368,-3.8465,-3.8559,-3.8658,-3.8707,-3.8707,-3.8707,-3.8707,0.0,0.0,-3.8822,-3.8862,-3.8968,-3.9007,-3.9036,-3.9073,-3.9101,-3.9101,-3.9101,-3.9101,-3.9101,-3.9101,-3.9101,-3.9101,-3.9101,-3.9101,-3.9101,-3.9101,-3.9101,-3.9101,-3.9101,-3.9101,-3.9101,-3.9101,-3.9101,-3.9101,-3.6301,-3.6301,-3.6301,-3.6301,-3.6301,-3.6301,-3.6301,-3.6301,-3.6301,-3.6301,-3.6301,-3.6301,-3.6301,-3.6301,-3.6301,-3.6301,-3.6301,-3.6301,-3.6301,-3.6301,-3.6301,-3.6301,-3.6301,-3.6301,-3.6301,-3.6301,-3.6301,-3.6301,-3.6301,-3.6301,-3.6301,-3.6343,-3.6343,-3.6343,-3.6444,-3.6502,-3.6502,-3.6643,-3.6702,-3.6702,-3.6702,-3.6702,-3.6702,-3.6544,-3.6502,-3.6502,-3.6343,-3.6343,-3.6343,-3.6343,-3.6343,-3.6343,-3.6343,-3.6343,-3.6343,-3.6301,-3.6301,-3.6301,-3.6301,-3.6301,-3.6301,-3.6301,-3.6343,-3.6343,-3.6485,-3.6643,-3.6725,-3.6829,-3.693,-3.7009,-3.7108,-3.7241,-3.7334,-3.7392,-3.754,-3.7703,-3.7899,-3.7985,-3.8119,-3.835,-3.8382,-3.8465,-3.8658,-3.8707,-3.8707,-3.8707,-3.8707,-3.8719,0.0,0.0,-3.8881,-3.8997,-3.9007,-3.9036,-3.9101,-3.9101,-3.9101,-3.9101,-3.9101,-3.9101,-3.9101,-3.9101,-3.9101,-3.9101,-3.9101,-3.9101,-3.9101,-3.9101,-3.9101,-3.9101,-3.9101,-3.9101,-3.9101,-3.9101,-3.9101,-3.9101,-3.6301,-3.6301,-3.6301,-3.6301,-3.6301,-3.6301,-3.6301,-3.6301,-3.6301,-3.6301,-3.6301,-3.6301,-3.6301,-3.6301,-3.6301,-3.6301,-3.6301,-3.6301,-3.6301,-3.6301,-3.6301,-3.6301,-3.6301,-3.6301,-3.6301,-3.6301,-3.6301,-3.6301,-3.6402,-3.6444,-3.6444,-3.6544,-3.6602,-3.6602,-3.6643,-3.6643,-3.6643,-3.6702,-3.6702,-3.6702,-3.6702,-3.6702,-3.6702,-3.6643,-3.6643,-3.6643,-3.6602,-3.6602,-3.6602,-3.6602,-3.6602,-3.6602,-3.6602,-3.6602,-3.6561,-3.6343,-3.6301,-3.6301,-3.6301,-3.6301,-3.6343,-3.6444,-3.6568,-3.669,-3.6731,-3.6829,-3.6948,-3.7009,-3.7069,-3.7108,-3.7203,-3.7392,-3.754,-3.754,-3.7739,-3.7915,-3.7967,-3.8088,-3.8207,-3.8322,-3.8322,-3.8387,-3.851,-3.8559,-3.8609,-3.8707,-3.8707,-3.875,-3.8881,-3.8881,-3.8892,-3.8997,-3.9064,-3.9073,-3.9101,-3.9101,-3.9101,-3.9101,-3.9101,-3.9101,-3.9101,-3.9101,-3.9101,-3.9101,-3.9101,-3.9101,-3.9101,-3.9101,-3.9101,-3.9101,-3.9101,-3.9101,-3.9101,-3.9101,-3.9101,-3.9101,-3.6301,-3.6301,-3.6301,-3.6301,-3.6301,-3.6301,-3.6301,-3.6301,-3.6301,-3.6301,-3.6301,-3.6343,-3.6385,-3.6402,-3.6402,-3.6502,-3.6343,-3.6301,-3.6301,-3.6301,-3.6301,-3.6301,-3.6343,-3.6402,-3.6402,-3.6444,-3.6502,-3.6502,-3.6561,-3.6602,-3.6602,-3.6661,-3.6702,-3.6702,-3.6725,-3.6766,-3.6766,-3.6806,-3.6846,-3.6846,-3.6846,-3.6846,-3.6846,-3.6766,-3.6766,-3.6725,-3.6702,-3.6702,-3.6702,-3.6702,-3.6702,-3.6702,-3.6702,-3.6702,-3.6643,-3.6544,-3.6502,-3.6502,-3.6502,-3.6502,-3.6502,-3.6544,-3.6708,-3.6829,-3.6869,-3.697,-3.7087,-3.7164,-3.7241,-3.7261,-3.7392,-3.754,-3.7649,-3.7739,-3.7898,-3.7984,-3.7984,-3.8122,-3.8207,-3.8307,-3.8307,-3.8354,-3.8478,-3.851,-3.8559,-3.8707,-3.8707,0.0,-3.891,-3.891,-3.895,-3.9036,-3.9073,-3.9101,-3.9101,-3.9101,-3.9101,-3.9101,-3.9101,-3.9101,-3.9101,-3.9101,-3.9101,-3.9101,-3.9101,-3.9101,-3.9101,-3.9101,-3.9101,-3.9101,-3.9101,-3.9101,-3.9101,-3.9101,-3.9101,-3.9101,-3.6301,-3.6301,-3.6301,-3.6301,-3.6301,-3.6301,-3.6301,-3.6301,-3.6301,-3.6343,-3.6343,-3.6402,-3.6502,-3.6544,-3.6602,-3.6702,-3.6502,-3.6343,-3.6343,-3.6343,-3.6343,-3.6343,-3.6461,-3.6544,-3.6544,-3.6643,-3.6702,-3.6702,-3.6702,-3.6742,-3.6742,-3.6742,-3.6742,-3.6742,-3.6829,-3.6851,-3.6851,-3.6987,-3.7066,-3.7066,-3.7066,-3.7066,-3.7009,-3.6908,-3.6869,-3.6869,-3.6806,-3.6766,-3.6783,-3.6766,-3.6766,-3.6766,-3.6725,-3.6742,-3.6742,-3.6766,-3.6766,-3.6766,-3.6702,-3.6742,-3.6742,-3.6742,-3.6788,-3.6908,-3.7027,-3.7087,-3.7164,-3.7297,-3.7372,-3.7466,-3.7577,-3.7685,-3.7774,-3.7899,-3.7985,-3.8036,-3.8036,-3.814,-3.8225,-3.8274,-3.8274,-3.8322,-3.8446,-3.8478,-3.8559,-3.8658,-3.8707,-3.875,-3.891,-3.891,-3.895,-3.9101,-3.9101,-3.9101,-3.9101,-3.9101,-3.9101,-3.9101,-3.9101,-3.9101,-3.9101,-3.9101,-3.9101,-3.9101,-3.9101,-3.9101,-3.9101,-3.9101,-3.9101,-3.9101,-3.9101,-3.9101,-3.9101,-3.9101,-3.9101,-3.9101,-3.6301,-3.6301,-3.6301,-3.6301,-3.6301,-3.6301,-3.6301,-3.6301,-3.6343,-3.6444,-3.6461,-3.6502,-3.6643,-3.6661,-3.6702,-3.6702,-3.6643,-3.6643,-3.6643,-3.6643,-3.6643,-3.6643,-3.6643,-3.6661,-3.6661,-3.6702,-3.6702,-3.6702,-3.6766,-3.6788,-3.6788,-3.6908,-3.6948,-3.6948,-3.7031,-3.7069,-3.7069,-3.722,-3.7259,-3.7259,-3.7259,-3.7259,-3.7259,-3.722,-3.722,-3.722,-3.722,-3.72,-3.7182,-3.7087,-3.7031,-3.7031,-3.6987,-3.6948,-3.6948,-3.7009,-3.7031,-3.7009,-3.6766,-3.6806,-3.6948,-3.6948,-3.7105,-3.722,-3.7259,-3.7259,-3.7297,-3.7354,-3.7466,-3.7577,-3.7667,-3.7845,-3.7949,-3.8002,-3.8088,-3.8174,-3.8174,-3.8192,-3.8192,-3.8225,-3.8225,-3.8259,-3.8322,-3.8368,-3.8446,-3.851,-3.8658,-3.875,-3.891,-3.891,-3.895,-3.9101,-3.9101,-3.9101,-3.9101,-3.9101,-3.9101,-3.9101,-3.9101,-3.9101,-3.9101,-3.9101,-3.9101,-3.9101,-3.9101,-3.9101,-3.9101,-3.9101,-3.9101,-3.9101,-3.9101,-3.9101,-3.9101,-3.9101,-3.9101,-3.9101,-3.6301,-3.6301,-3.6301,-3.6301,-3.6343,-3.6402,-3.6402,-3.6461,-3.6544,-3.6602,-3.6602,-3.6643,-3.6748,-3.6748,-3.6788,-3.6908,-3.6908,-3.6948,-3.7005,-3.6806,-3.6702,-3.6702,-3.6725,-3.6788,-3.6891,-3.6908,-3.6948,-3.7044,-3.7066,-3.7066,-3.7066,-3.7143,-3.7143,-3.7182,-3.7203,-3.7203,-3.7203,-3.7259,-3.7297,-3.7297,-3.7297,-3.7297,-3.7297,-3.7297,-3.7297,-3.7297,-3.7297,-3.7297,-3.7297,-3.7203,-3.7203,-3.7203,-3.7182,-3.7143,-3.7182,-3.7203,-3.7203,-3.7164,-3.7083,-3.7105,-3.7143,-3.7143,-3.722,-3.7334,-3.7447,-3.7484,-3.7521,-3.7631,-3.7703,-3.7775,-3.7845,-3.7949,-3.8018,-3.8088,-3.8174,-3.8192,-3.8192,-3.8192,-3.8192,-3.8192,-3.8192,-3.8241,-3.8336,-3.8401,-3.8465,-3.8609,-3.8658,-3.875,-3.891,-3.891,-3.895,-3.9101,-3.9101,-3.9101,-3.9101,-3.9101,-3.9101,-3.9101,-3.9101,-3.9101,-3.9101,-3.9101,-3.9101,-3.9101,-3.9101,-3.9101,-3.9101,-3.9101,-3.9101,-3.9101,-3.9101,-3.9101,-3.9101,-3.9101,-3.9101,-3.9101,-3.636,-3.6343,-3.6402,-3.6402,-3.6502,-3.6544,-3.6544,-3.6643,-3.6702,-3.6725,-3.6725,-3.6806,-3.6851,-3.6908,-3.697,-3.7147,-3.7147,-3.7203,-3.7297,-3.7005,-3.6846,-3.6846,-3.6869,-3.697,-3.7147,-3.7147,-3.7203,-3.7297,-3.7297,-3.7297,-3.7297,-3.7297,-3.7297,-3.7297,-3.7334,-3.7334,-3.7334,-3.7372,-3.7372,-3.7372,-3.7372,-3.7372,-3.7372,-3.7372,-3.7372,-3.7372,-3.7372,-3.7372,-3.7372,-3.7334,-3.7334,-3.7334,-3.7297,-3.7297,-3.7297,-3.7334,-3.7372,-3.7372,-3.7297,-3.7334,-3.7372,-3.7372,-3.741,-3.7484,-3.7631,-3.7667,-3.7703,-3.7864,-3.7899,-3.7951,-3.8018,-3.8052,-3.8104,-3.8241,0.0,-3.8241,-3.8241,-3.8241,-3.8241,-3.8241,-3.8241,-3.8289,-3.8382,-3.8415,-3.8496,-3.8658,-3.8658,-3.875,-3.891,-3.891,-3.895,-3.9101,-3.9101,-3.9101,-3.9101,-3.9101,-3.9101,-3.9101,-3.9101,-3.9101,-3.9101,-3.9101,-3.9101,-3.9101,-3.9101,-3.9101,-3.9101,-3.9101,-3.9101,-3.9101,-3.9101,-3.9101,-3.9101,-3.9101,-3.9101,-3.9101,-3.6502,-3.6602,-3.6643,-3.6643,-3.6702,-3.6702,-3.6702,-3.6702,-3.6725,-3.6788,-3.6908,-3.7009,-3.7069,-3.7164,-3.7259,-3.7297,-3.7297,-3.7297,-3.7297,-3.7259,-3.7276,-3.7276,-3.7259,-3.7259,-3.7297,-3.7297,-3.7297,-3.7297,-3.7297,-3.7297,-3.7297,-3.7297,-3.7297,-3.7297,-3.7354,-3.7392,-3.7392,-3.7521,-3.7594,-3.7594,-3.7594,-3.7594,-3.7594,-3.7594,-3.7594,-3.7594,-3.7594,-3.7594,-3.754,-3.7429,-3.7392,-3.7392,-3.7334,-3.7297,-3.7297,-3.7354,-3.7522,-3.7613,-3.7372,-3.7447,-3.7594,-3.7594,-3.7703,-3.7864,-3.7864,-3.7864,-3.7864,-3.7917,-3.7951,-3.8018,-3.8068,-3.8204,-3.8289,-3.835,0.0,0.0,-3.8401,-3.8401,-3.8401,-3.8401,-3.8401,-3.8382,-3.8382,-3.8446,-3.851,-3.851,-3.8609,-3.875,-3.891,-3.891,-3.895,-3.9101,-3.9101,-3.9101,-3.9101,-3.9101,-3.9101,-3.9101,-3.9101,-3.9101,-3.9101,-3.9101,-3.9101,-3.9101,-3.9101,-3.9101,-3.9101,-3.9101,-3.9101,-3.9101,-3.9101,-3.9101,-3.9101,-3.9101,-3.9101,-3.9101,-3.6643,-3.6661,-3.6702,-3.6702,-3.6725,-3.6748,-3.6748,-3.6869,-3.697,-3.6992,-3.7087,-3.7182,-3.7203,-3.7259,-3.7334,-3.7354,-3.7354,-3.7392,-3.7484,-3.7484,-3.7447,-3.7314,-3.7297,-3.7334,-3.7354,-3.7354,-3.7392,-3.7484,-3.7484,-3.7484,-3.7484,-3.7484,-3.7484,-3.7484,-3.7503,-3.754,-3.754,-3.7577,-3.7577,-3.7577,-3.7577,-3.7577,-3.7577,-3.7577,-3.7577,-3.7577,-3.7577,-3.7577,-3.7577,-3.754,-3.754,-3.7503,-3.7466,-3.7503,-3.7577,-3.7667,-3.7775,-3.781,-3.7703,-3.7721,-3.7793,-3.7793,-3.7881,-3.7967,-3.8018,-3.8088,-3.8156,-3.8204,-3.8219,-3.8252,-3.8285,-3.8336,-3.8368,-3.8401,0.0,-3.8382,-3.8382,-3.8382,-3.8382,-3.8382,-3.8382,-3.8415,-3.8446,-3.8478,-3.8541,-3.8609,-3.8701,-3.8792,-3.891,-3.8979,-3.9045,-3.9101,-3.9101,-3.9101,-3.9101,-3.9101,-3.9101,-3.9101,-3.9101,-3.9101,-3.9101,-3.9101,-3.9101,-3.9101,-3.9101,-3.9101,-3.9101,-3.9101,-3.9101,-3.9101,-3.9101,-3.9101,-3.9101,-3.9101,-3.9101,-3.9101,-3.6725,-3.6766,-3.6846,-3.6846,-3.6908,-3.6948,-3.6948,-3.7087,-3.7147,-3.7147,-3.7241,-3.7334,-3.7334,-3.7372,-3.7392,-3.7466,-3.7466,-3.7503,-3.7577,-3.7577,-3.7558,-3.741,-3.741,-3.741,-3.7466,-3.7466,-3.7503,-3.7577,-3.7577,-3.7577,-3.7577,-3.7577,-3.7577,-3.7577,-3.7577,-3.7577,-3.7577,-3.7577,-3.7577,-3.7577,-3.7577,-3.7577,-3.7577,-3.7577,-3.7577,-3.7577,-3.7577,-3.7577,-3.7577,-3.7577,-3.7577,-3.7613,-3.7613,-3.7685,-3.7792,-3.7864,-3.7934,-3.7916,-3.7916,-3.7969,-3.8003,-3.7951,-3.8036,-3.8086,-3.8186,-3.8271,-3.8336,-3.8382,-3.8382,-3.8415,-3.8415,-3.8415,-3.8465,-3.8496,-3.8496,-3.8496,-3.8496,-3.8496,-3.8496,-3.8496,-3.8496,-3.8496,-3.8559,-3.8572,-3.8621,-3.8719,-3.8792,-3.8881,-3.8939,-3.9045,-3.9101,-3.9101,-3.9101,-3.9101,-3.9101,-3.9101,-3.9101,-3.9101,-3.9101,-3.9101,-3.9101,-3.9101,-3.9101,-3.9101,-3.9101,-3.9101,-3.9101,-3.9101,-3.9101,-3.9101,-3.9101,-3.9101,-3.9101,-3.9101,-3.9101,-3.9101,-3.6811,-3.6952,-3.7108,-3.7108,-3.7203,-3.7297,-3.7297,-3.7297,-3.7297,-3.7297,-3.7354,-3.7392,-3.7392,-3.7503,-3.7577,-3.7577,-3.7577,-3.7577,-3.7577,-3.7577,-3.7577,-3.7577,-3.7577,-3.7577,-3.7577,-3.7577,-3.7577,-3.7577,-3.7577,-3.7577,-3.7577,-3.7577,-3.7577,-3.7577,-3.7577,-3.7577,-3.7577,-3.7577,-3.7577,-3.7577,-3.7577,-3.7577,-3.7577,-3.7577,-3.7577,-3.7577,-3.7577,-3.7577,-3.7577,-3.7577,-3.7577,-3.7613,-3.7667,-3.7792,-3.7899,-3.7899,-3.7951,-3.7984,-3.7984,-3.8088,-3.8174,-3.8119,-3.8204,-3.834,-3.8401,-3.8382,-3.8382,-3.8382,-3.8382,-3.8415,-3.851,-3.851,-3.8559,-3.8658,-3.8707,-3.8707,-3.8707,-3.8707,-3.8707,-3.8707,-3.8707,-3.8707,-3.8707,-3.8762,-3.8792,-3.8792,-3.8862,-3.8921,-3.8997,-3.9045,-3.9101,-3.9101,-3.9101,-3.9101,-3.9101,-3.9101,-3.9101,-3.9101,-3.9101,-3.9101,-3.9101,-3.9101,-3.9101,-3.9101,-3.9101,-3.9101,-3.9101,-3.9101,-3.9101,-3.9101,-3.9101,-3.9101,-3.9101,-3.9101,-3.9101,-3.9101,-3.6992,-3.7126,-3.7259,-3.7259,-3.7259,-3.7297,-3.7297,-3.7334,-3.7354,-3.7354,-3.7466,-3.754,-3.754,-3.7594,-3.7577,-3.7577,-3.7577,-3.7577,-3.7577,-3.7577,-3.7577,-3.7577,-3.7577,-3.7577,-3.7577,-3.7577,-3.7577,-3.7577,-3.7577,-3.7577,-3.7577,-3.7577,-3.7577,-3.7577,-3.7577,-3.7577,-3.7577,-3.7577,-3.7577,-3.7577,-3.7577,-3.7577,-3.7577,-3.7577,-3.7577,-3.7577,-3.7577,-3.7577,-3.7577,-3.7577,-3.7577,-3.7631,-3.7775,-3.7916,-3.7967,-3.8072,-3.8106,-3.814,-3.814,-3.8174,-3.8225,-3.8223,-3.8303,-3.8401,-3.8446,-3.8528,-3.8627,-3.8627,-3.8627,-3.8627,-3.8658,-3.8658,-3.8658,-3.8707,-3.8707,-3.8707,-3.8707,-3.875,-3.8762,-3.8762,-3.8822,-3.8851,-3.8851,-3.8851,-3.8881,-3.8881,-3.8921,-3.9007,-3.9073,-3.9101,-3.9101,-3.9101,-3.9101,-3.9101,-3.9101,-3.9101,-3.9101,-3.9101,-3.9101,-3.9101,-3.9101,-3.9101,-3.9101,-3.9101,-3.9101,-3.9101,-3.9101,-3.9101,-3.9101,-3.9101,-3.9101,-3.9101,-3.9101,-3.9101,-3.9101,-3.9101,-3.7164,-3.7279,-3.7334,-3.7334,-3.7372,-3.741,-3.741,-3.7429,-3.7466,-3.7466,-3.754,-3.7577,-3.7577,-3.7577,-3.7577,-3.7577,-3.7577,-3.7577,-3.7577,-3.7577,-3.7577,-3.7577,-3.7577,-3.7577,-3.7577,-3.7577,-3.7577,-3.7577,-3.7577,-3.7577,-3.7577,-3.7577,-3.7577,-3.7577,-3.7577,-3.7577,-3.7577,-3.7577,-3.7577,-3.7577,-3.7577,-3.7577,-3.7577,-3.7577,-3.7577,-3.7577,-3.7577,-3.7577,-3.7577,-3.7577,-3.7667,-3.7739,-3.7864,-3.7985,-3.8088,-3.8192,-3.8192,-3.8192,-3.8192,-3.8192,-3.8207,-3.8322,-3.8368,-3.8415,-3.8559,-3.8658,-3.8707,-3.8707,-3.8707,-3.8707,-3.8707,-3.8719,-3.875,-3.875,-3.875,-3.878,-3.878,-3.8822,-3.8851,-3.8851,-3.8881,-3.891,-3.891,-3.8921,-3.895,-3.8979,-3.9007,-3.9064,-3.9101,-3.9101,-3.9101,-3.9101,-3.9101,-3.9101,-3.9101,-3.9101,-3.9101,-3.9101,-3.9101,-3.9101,-3.9101,-3.9101,-3.9101,-3.9101,-3.9101,-3.9101,-3.9101,-3.9101,-3.9101,-3.9101,-3.9101,-3.9101,-3.9101,-3.9101,-3.9101,-3.9101,-3.7297,-3.7354,-3.7429,-3.7429,-3.7503,-3.7577,-3.7577,-3.7577,-3.7577,-3.7577,-3.7594,-3.7594,-3.7577,-3.7577,-3.7594,-3.7577,-3.7577,-3.7577,-3.7577,-3.7577,-3.7577,-3.7577,-3.7577,-3.7577,-3.7577,-3.7577,-3.7577,-3.7577,-3.7577,-3.7577,-3.7577,-3.7577,-3.7577,-3.7577,-3.7577,-3.7577,-3.7577,-3.7577,-3.7577,-3.7577,-3.7577,-3.7577,-3.7577,-3.7577,-3.7577,-3.7577,-3.7577,-3.7577,-3.7577,-3.7577,-3.7739,-3.7899,-3.7899,-3.8056,-3.8192,-3.8192,-3.8192,-3.8192,-3.8192,-3.8192,-3.8241,-3.8368,-3.8415,-3.8465,-3.8676,-3.8707,-3.8707,-3.8707,-3.8707,-3.8707,-3.8707,-3.8762,-3.8822,-3.8822,-3.8881,-3.891,-3.891,-3.891,-3.891,-3.891,-3.8921,-3.8939,-3.8939,-3.8979,-3.9036,-3.9101,-3.9101,-3.9101,-3.9101,-3.9101,-3.9101,-3.9101,-3.9101,-3.9101,-3.9101,-3.9101,-3.9101,-3.9101,-3.9101,-3.9101,-3.9101,-3.9101,-3.9101,-3.9101,-3.9101,-3.9101,-3.9101,-3.9101,-3.9101,-3.9101,-3.9101,-3.9101,-3.9101,-3.9101,-3.9101,-3.9101,-3.7392,-3.7466,-3.754,-3.754,-3.7577,-3.7577,-3.7577,-3.7503,-3.7449,-3.7449,-3.741,-3.7372,-3.7429,-3.7449,-3.7503,-3.7577,-3.7577,-3.7577,-3.7577,-3.7577,-3.7577,-3.7577,-3.7577,-3.7577,-3.7577,-3.7577,-3.7577,-3.7577,-3.7577,-3.7577,-3.7577,-3.7577,-3.7577,-3.7577,-3.7577,-3.7577,-3.7577,-3.7577,-3.7577,-3.7577,-3.7577,-3.7577,-3.7577,-3.7577,-3.7577,-3.7577,-3.7577,-3.7577,-3.7577,-3.7577,-3.7739,-3.7899,-3.7899,-3.8056,-3.8192,-3.8192,-3.8192,-3.8192,-3.8192,-3.8259,-3.8307,-3.8401,-3.8446,-3.8528,-3.8658,-3.8707,-3.8707,-3.8707,-3.875,-3.8762,-3.8762,-3.8822,-3.8881,-3.8881,-3.891,-3.891,-3.891,-3.8968,-3.8997,-3.8997,-3.9017,-3.9045,-3.9045,-3.9073,-3.9073,-3.9101,-3.9101,-3.9101,-3.9101,-3.9101,-3.9101,-3.9101,-3.9101,-3.9101,-3.9101,-3.9101,-3.9101,-3.9101,-3.9101,-3.9101,-3.9101,-3.9101,-3.9101,-3.9101,-3.9101,-3.9101,-3.9101,-3.9101,-3.9101,-3.9101,-3.9101,-3.9101,-3.9101,-3.9101,-3.9101,-3.9101,-3.7503,-3.754,-3.7577,-3.7577,-3.754,-3.7503,-3.7503,-3.7429,-3.7354,-3.7354,-3.7334,-3.7297,-3.7354,-3.7354,-3.7372,-3.7447,-3.7484,-3.7503,-3.7503,-3.7577,-3.7577,-3.7577,-3.7577,-3.7577,-3.7577,-3.7577,-3.7577,-3.7577,-3.7577,-3.7577,-3.7577,-3.7577,-3.7577,-3.7577,-3.7577,-3.7577,-3.7577,-3.7577,-3.7577,-3.7577,-3.7577,-3.7577,-3.7577,-3.7577,-3.7577,-3.7577,-3.7577,-3.7577,-3.7577,-3.7577,-3.7739,-3.7899,-3.7899,-3.8056,-3.8192,-3.8192,-3.8192,-3.8225,-3.8241,-3.8274,-3.8322,-3.8415,-3.8478,-3.8559,-3.8658,-3.8707,-3.8707,-3.8707,-3.875,-3.8792,-3.8792,-3.8881,-3.8968,-3.8968,-3.8979,-3.9007,-3.9007,-3.9036,-3.9064,-3.9064,-3.9073,-3.9101,-3.9101,-3.9101,-3.9101,-3.9101,-3.9101,-3.9101,-3.9101,-3.9101,-3.9101,-3.9101,-3.9101,-3.9101,-3.9101,-3.9101,-3.9101,-3.9101,-3.9101,-3.9101,-3.9101,-3.9101,-3.9101,-3.9101,-3.9101,-3.9101,-3.9101,-3.9101,-3.9101,-3.9101,-3.9101,-3.9101,-3.9101,-3.9101,-3.9101,-3.9101,-3.7577,-3.7577,-3.7577,-3.7577,-3.7466,-3.7392,-3.7392,-3.7297,-3.7259,-3.7259,-3.722,-3.722,-3.7259,-3.7259,-3.7297,-3.7297,-3.7354,-3.7392,-3.7392,-3.7503,-3.7594,-3.7577,-3.7577,-3.7577,-3.7577,-3.7577,-3.7577,-3.7577,-3.7577,-3.7577,-3.7577,-3.7577,-3.7577,-3.7577,-3.7577,-3.7577,-3.7577,-3.7577,-3.7577,-3.7577,-3.7577,-3.7577,-3.7577,-3.7577,-3.7577,-3.7577,-3.7577,-3.7577,-3.7613,-3.7613,-3.7739,-3.7899,-3.7899,-3.8038,-3.8192,-3.8192,-3.8192,-3.8225,-3.8274,-3.8307,-3.8354,-3.8478,-3.851,-3.8559,-3.8658,-3.8707,-3.8707,-3.8719,-3.878,-3.8822,-3.8851,-3.8921,-3.9007,-3.9007,-3.9045,-3.9101,-3.9101,-3.9101,-3.9101,-3.9101,-3.9101,-3.9101,-3.9101,-3.9101,-3.9101,-3.9101,-3.9101,-3.9101,-3.9101,-3.9101,-3.9101,-3.9101,-3.9101,-3.9101,-3.9101,-3.9101,-3.9101,-3.9101,-3.9101,-3.9101,-3.9101,-3.9101,-3.9101,-3.9101,-3.9101,-3.9101,-3.9101,-3.9101,-3.9101,-3.9101,-3.9101,-3.9101,-3.9101,-3.9101,-3.9101,-3.9101,-3.7594,-3.7577,-3.7577,-3.7466,-3.7429,-3.7392,-3.7334,-3.7143,-3.7027,-3.7027,-3.6886,-3.6846,-3.7027,-3.7182,-3.7297,-3.7297,-3.7297,-3.7334,-3.7392,-3.7429,-3.7466,-3.7577,-3.7577,-3.7577,-3.7577,-3.7577,-3.7577,-3.7577,-3.7577,-3.7577,-3.7577,-3.7577,-3.7577,-3.7577,-3.7577,-3.7577,-3.7577,-3.7577,-3.7577,-3.7577,-3.7577,-3.7577,-3.7577,-3.7577,-3.7577,-3.7577,-3.7577,-3.7577,-3.7613,-3.7685,-3.7757,-3.7899,-3.7967,-3.8088,-3.8192,-3.8192,-3.8192,-3.8225,-3.8274,-3.8354,-3.8382,-3.8478,-3.8609,-3.8658,-3.8707,-3.8707,-3.8738,-3.8762,-3.8851,-3.8892,-3.895,-3.9036,-3.9073,-3.9073,-3.9101,-3.9101,-3.9101,-3.9101,-3.9101,-3.9101,-3.9101,-3.9101,-3.9101,-3.9101,-3.9101,-3.9101,-3.9101,-3.9101,-3.9101,-3.9101,-3.9101,-3.9101,-3.9101,-3.9101,-3.9101,-3.9101,-3.9101,-3.9101,-3.9101,-3.9101,-3.9101,-3.9101,-3.9101,-3.9101,-3.9101,-3.9101,-3.9101,-3.9101,-3.9101,-3.9101,-3.9101,-3.9101,-3.9101,-3.9101,-3.9101,-3.9101,-3.7447,-3.7447,-3.741,-3.7354,-3.7279,-3.7185,-3.7126,-3.697,-3.6869,-3.6846,-3.6783,-3.6725,-3.6806,-3.6948,-3.7027,-3.7027,-3.7126,-3.7241,-3.7334,-3.7392,-3.7466,-3.7577,-3.7577,-3.7577,-3.7577,-3.7577,-3.7577,-3.7577,-3.7577,-3.7577,-3.7577,-3.7577,-3.7577,-3.7577,-3.7577,-3.7577,-3.7577,-3.7577,-3.7577,-3.7577,-3.7577,-3.7577,-3.7577,-3.7577,-3.7577,-3.7577,-3.7577,-3.7577,-3.7613,-3.7649,-3.7775,-3.7899,-3.7916,-3.8072,-3.8192,-3.8192,-3.8192,-3.8207,-3.8322,-3.8368,-3.8415,-3.8578,-3.8658,-3.8707,-3.8707,-3.8707,-3.8707,-3.875,-3.8822,-3.891,-3.8921,-3.9036,-3.9101,-3.9101,-3.9101,-3.9101,-3.9101,-3.9101,-3.9101,-3.9101,-3.9101,-3.9101,-3.9101,-3.9101,-3.9101,-3.9101,-3.9101,-3.9101,-3.9101,-3.9101,-3.9101,-3.9101,-3.9101,-3.9101,-3.9101,-3.9101,-3.9101,-3.9101,-3.9101,-3.9101,-3.9101,-3.9101,-3.9101,-3.9101,-3.9101,-3.9101,-3.9101,-3.9101,-3.9101,-3.9101,-3.9101,-3.9101,-3.9101,-3.9101,-3.9101,-3.9101]}]]